Date StartTime U_cm/s V_cm/s W_cm/s Ustd_cm/s Vstd_cm/s Wstd_cm/s Uvar_(cm/s)^2 Vvar_(cm/s)^2 Wvar_(cm/s)^2 KE_(m/s)^2 TurbulentKE_(m/s)^2 HorizWindSpeed_cm/s FrictionSpeec_cm/s DragCoef SpeedOfSound_m/s SonicTemperature_C Pressure_mb 
03/25/2014  00:00:00       52.271       51.738       18.023       19.633       19.963       20.084      385.442      398.533      403.353        0.346        0.059       73.546       12.487        0.029      338.918       11.896      861.650
03/25/2014  00:01:00       69.420       26.717        8.213       23.585       20.389       21.250      556.252      415.706      451.575        0.351        0.071       74.383       14.341        0.037      338.782       11.667      861.631
03/25/2014  00:02:00       33.490        5.791       20.864       25.830       21.547       16.532      667.196      464.288      273.303        0.150        0.070       33.987       11.148        0.108      338.849       11.781      861.613
03/25/2014  00:03:00       21.089        0.835       10.425       15.660       12.369        8.380      245.230      152.997       70.231        0.051        0.023       21.106        5.106        0.059      338.858       11.796      861.606
03/25/2014  00:04:00      -10.641       -0.129       -1.269        9.845        9.758        6.012       96.922       95.213       36.145        0.017        0.011       10.641        1.539        0.021      338.861       11.801      861.600
03/25/2014  00:05:00      -30.261      -14.415       -8.501       12.109        9.185        5.006      146.623       84.365       25.061        0.073        0.013       33.519        3.304        0.010      338.999       12.034      861.594
03/25/2014  00:06:00      -37.812      -22.676       -4.992        6.324        8.280        5.570       39.992       68.554       31.022        0.105        0.007       44.090        2.930        0.004      339.002       12.038      861.587
03/25/2014  00:07:00      -46.907      -24.320       -7.542        6.987        5.568        5.230       48.811       30.997       27.352        0.148        0.005       52.837        2.849        0.003      338.876       11.825      861.575
03/25/2014  00:08:00      -59.414      -24.290       -5.756        7.782        8.458        5.057       60.561       71.538       25.574        0.216        0.008       64.187        3.003        0.002      338.883       11.837      861.568
03/25/2014  00:09:00      -89.486       -7.123      -11.883       12.701        9.101        7.903      161.310       82.827       62.455        0.425        0.015       89.769        4.094        0.002      339.043       12.106      861.560
03/25/2014  00:10:00      -69.196      -20.268       -5.539       36.865       14.723       12.444     1359.014      216.764      154.847        0.348        0.087       72.103       15.925        0.049      338.989       12.015      861.563
03/25/2014  00:11:00        4.798      -29.032        4.599       17.038       12.278       13.325      290.298      150.748      177.546        0.075        0.031       29.426       12.326        0.175      338.885       11.838      861.574
03/25/2014  00:12:00       -2.941       -9.793        7.397       11.462       10.908        8.526      131.384      118.983       72.698        0.024        0.016       10.225        6.860        0.450      338.777       11.658      861.586
03/25/2014  00:13:00        1.025        2.088        8.523        5.844        6.400        4.872       34.147       40.957       23.737        0.009        0.005        2.326        3.123        1.803      338.726       11.572      861.585
03/25/2014  00:14:00        0.704        8.974        2.206       10.241       11.901       11.205      104.874      141.625      125.546        0.023        0.019        9.001        8.062        0.802      338.838       11.761      861.575
03/25/2014  00:15:00      -40.656       -9.553       -2.398       16.222       13.792       10.001      263.168      190.221      100.014        0.115        0.028       41.763        7.254        0.030      338.965       11.975      861.561
03/25/2014  00:16:00      -50.236      -22.440       -2.936       17.078        8.211        9.826      291.650       67.428       96.553        0.175        0.023       55.020        8.114        0.022      339.247       12.449      861.547
03/25/2014  00:17:00      -26.126      -21.344       -5.449       14.511        5.467        7.049      210.559       29.891       49.686        0.073        0.015       33.736        4.714        0.020      339.250       12.454      861.537
03/25/2014  00:18:00        6.554      -26.748       -3.886        7.435        9.788        7.768       55.274       95.815       60.347        0.049        0.011       27.539        5.062        0.034      339.138       12.265      861.532
03/25/2014  00:19:00      -33.196      -13.800       -4.516       30.503       10.045        7.454      930.428      100.908       55.565        0.120        0.054       35.950        6.168        0.029      338.835       11.756      861.534
03/25/2014  00:20:00      -57.303      -35.082       -5.660       21.213       13.256        9.229      449.991      175.722       85.174        0.263        0.036       67.189        6.135        0.008      338.625       11.403      861.544
03/25/2014  00:21:00      -74.617      -31.415       -7.476       24.299       14.945       10.018      590.449      223.361      100.363        0.376        0.046       80.960        9.910        0.015      338.706       11.540      861.536
03/25/2014  00:22:00      -84.629      -24.312      -11.692       18.466        7.098        7.492      340.981       50.375       56.123        0.417        0.022       88.052        6.281        0.005      338.681       11.498      861.528
03/25/2014  00:23:00      -37.752      -15.605       -5.056        5.405       10.337        3.978       29.211      106.844       15.828        0.092        0.008       40.850        4.256        0.011      338.713       11.551      861.513
03/25/2014  00:24:00      -51.226      -12.240       -7.843        9.065        7.200        3.391       82.172       51.841       11.498        0.149        0.007       52.668        3.115        0.003      338.787       11.674      861.497
03/25/2014  00:25:00      -85.687      -14.078      -11.451       14.425        9.154        5.835      208.072       83.791       34.046        0.400        0.016       86.836        3.759        0.002      338.693       11.518      861.483
03/25/2014  00:26:00     -114.842       -6.948      -14.164       22.285       10.904        8.614      496.642      118.908       74.196        0.706        0.034      115.052        7.164        0.004      338.511       11.213      861.469
03/25/2014  00:27:00     -149.063        0.265      -15.939       26.272       15.389       19.282      690.223      236.807      371.800        1.189        0.065      149.064       17.784        0.014      338.417       11.054      861.455
03/25/2014  00:28:00     -138.553      -14.543      -19.977       22.749       21.694       15.396      517.503      470.610      237.049        1.052        0.061      139.314        6.193        0.002      338.378       10.989      861.461
03/25/2014  00:29:00     -116.423      -17.165       -8.745       24.336       20.927       13.641      592.235      437.927      186.076        0.757        0.061      117.682       12.523        0.011      338.424       11.065      861.465
03/25/2014  00:30:00     -117.066       -1.122      -17.831       19.245       14.840       13.004      370.367      220.223      169.106        0.739        0.038      117.072        8.878        0.006      338.670       11.480      861.461
03/25/2014  00:31:00      -80.119      -12.243       -8.570       21.830       21.889       16.845      476.527      479.148      283.739        0.394        0.062       81.049       12.518        0.024      338.536       11.254      861.461
03/25/2014  00:32:00      -90.888      -32.424       -6.100       20.375       15.403       11.152      415.131      237.256      124.368        0.506        0.039       96.498        8.564        0.008      338.408       11.038      861.450
03/25/2014  00:33:00     -113.279      -30.139      -10.238       11.381       11.066       10.731      129.523      122.455      115.155        0.711        0.018      117.219        5.232        0.002      338.440       11.093      861.441
03/25/2014  00:34:00     -121.939      -33.572      -13.010       14.589       11.591        8.021      212.848      134.351       64.343        0.829        0.021      126.476        4.416        0.001      338.388       11.005      861.422
03/25/2014  00:35:00     -132.119      -29.729      -13.950       11.344       14.887       14.403      128.688      221.627      207.449        0.955        0.028      135.423        9.000        0.004      338.318       10.889      861.407
03/25/2014  00:36:00     -138.619      -21.926      -16.453       13.615       11.375       12.349      185.370      129.395      152.505        1.022        0.023      140.343        9.302        0.004      338.276       10.818      861.393
03/25/2014  00:37:00     -124.222       -9.487      -18.959       24.566       19.946       18.079      603.480      397.850      326.834        0.860        0.066      124.584       17.748        0.020      338.419       11.057      861.373
03/25/2014  00:38:00     -137.918      -16.282      -16.707       15.169       12.700       10.921      230.105      161.281      119.258        1.004        0.026      138.876        9.568        0.005      338.309       10.872      861.364
03/25/2014  00:39:00     -108.973      -28.779       -9.450       28.965       24.530       14.205      838.993      601.717      201.771        0.722        0.082      112.709       12.349        0.012      338.274       10.814      861.357
03/25/2014  00:40:00     -114.119      -24.031       -9.094       25.268       15.370       15.172      638.472      236.224      230.201        0.739        0.055      116.622       15.208        0.017      338.318       10.887      861.356
03/25/2014  00:41:00     -101.469      -28.837      -12.485       18.553       15.435       13.661      344.202      238.246      186.618        0.603        0.038      105.487       10.351        0.010      338.372       10.978      861.359
03/25/2014  00:42:00     -115.868      -33.444      -20.391       12.110       13.505        8.927      146.645      182.377       79.699        0.768        0.020      120.598        6.551        0.003      338.345       10.932      861.353
03/25/2014  00:43:00     -130.696      -23.324      -12.293       18.238       19.724       15.592      332.625      389.017      243.103        0.937        0.048      132.761       10.088        0.006      338.136       10.583      861.340
03/25/2014  00:44:00     -148.489      -17.343      -15.945       21.766       15.925       16.787      473.741      253.598      281.809        1.181        0.050      149.498       15.613        0.011      338.106       10.533      861.326
03/25/2014  00:45:00     -151.780      -11.466      -20.923       12.288       13.780        9.206      150.994      189.895       84.757        1.202        0.021      152.213        3.262        0.000      338.045       10.428      861.314
03/25/2014  00:46:00     -147.566       -2.096      -18.657       15.761       15.219       12.501      248.404      231.631      156.264        1.138        0.032      147.581        9.539        0.004      338.112       10.542      861.291
03/25/2014  00:47:00     -126.809      -21.684      -15.460       26.046       21.482       18.431      678.389      461.459      339.694        0.913        0.074      128.650       17.506        0.019      337.967       10.298      861.274
03/25/2014  00:48:00     -105.914      -17.457      -19.030       26.073       19.645       15.115      679.822      385.939      228.473        0.659        0.065      107.343       12.662        0.014      337.883       10.159      861.266
03/25/2014  00:49:00      -92.148      -33.708       -5.180       47.790       33.042       20.602     2283.911     1091.759      424.429        0.673        0.190       98.120       19.593        0.040      337.811       10.037      861.256
03/25/2014  00:50:00     -123.186      -33.943      -11.790       29.397       35.055       21.953      864.159     1228.830      481.931        0.952        0.129      127.777       13.087        0.010      337.728        9.897      861.238
03/25/2014  00:51:00     -109.667      -21.982       -8.996       41.788       25.958       19.876     1746.217      673.808      395.056        0.770        0.141      111.849       14.819        0.018      337.658        9.782      861.230
03/25/2014  00:52:00     -119.249      -40.422      -13.735       36.665       25.441       23.186     1344.331      647.239      537.583        0.929        0.126      125.914       14.175        0.013      337.700        9.851      861.227
03/25/2014  00:53:00     -103.422      -40.022      -13.251       20.934       18.686       15.120      438.246      349.154      228.629        0.674        0.051      110.896       11.956        0.012      337.708        9.864      861.215
03/25/2014  00:54:00     -120.753      -55.322      -22.090       29.964       18.665       17.076      897.828      348.378      291.591        0.983        0.077      132.822       11.875        0.008      337.698        9.848      861.199
03/25/2014  00:55:00     -141.023      -23.858      -10.881       47.879       44.181       23.446     2292.406     1951.934      549.704        1.268        0.240      143.027       27.301        0.036      337.667        9.795      861.188
03/25/2014  00:56:00     -140.876      -21.831      -17.422       42.978       40.615       24.150     1847.143     1649.546      583.216        1.235        0.204      142.557       19.074        0.018      337.768        9.963      861.179
03/25/2014  00:57:00     -125.126      -11.728        3.546       64.541       50.054       35.612     4165.521     2505.360     1268.186        1.187        0.397      125.674       38.712        0.095      337.839       10.081      861.174
03/25/2014  00:58:00     -120.632        4.362       -7.522       47.048       43.625       30.493     2213.501     1903.173      929.847        0.984        0.252      120.711       26.119        0.047      337.912       10.208      861.159
03/25/2014  00:59:00      -81.658      -54.947      -14.327       43.156       38.127       24.047     1862.412     1453.678      578.260        0.689        0.195       98.423       20.848        0.045      337.829       10.068      861.155
03/25/2014  01:00:00      -30.333      -41.878        7.582       37.753       31.332       22.611     1425.289      981.711      511.254        0.282        0.146       51.709       25.121        0.236      337.691        9.836      861.131
03/25/2014  01:01:00     -105.395      -39.936      -13.925       46.505       30.044       18.590     2162.752      902.633      345.590        0.815        0.171      112.707       20.452        0.033      337.844       10.092      861.099
03/25/2014  01:02:00     -124.367      -36.513      -12.140       42.763       30.982       23.580     1828.667      959.912      555.999        1.015        0.167      129.616       21.568        0.028      337.831       10.071      861.089
03/25/2014  01:03:00     -122.058      -18.453      -12.425       54.908       35.902       23.812     3014.940     1288.979      567.017        1.013        0.244      123.445       24.931        0.041      337.819       10.051      861.078
03/25/2014  01:04:00      -85.398      -24.684       -0.444       46.797       47.757       27.379     2189.924     2280.760      749.583        0.656        0.261       88.894       27.615        0.097      337.837       10.081      861.072
03/25/2014  01:05:00      -81.191       -6.177       -1.204       53.664       45.433       26.970     2879.828     2064.128      727.402        0.615        0.284       81.426       27.166        0.111      337.921       10.221      861.068
03/25/2014  01:06:00      -69.008      -24.716       -1.676       34.683       23.209       18.751     1202.898      538.679      351.595        0.373        0.105       73.300       12.996        0.031      337.781        9.986      861.059
03/25/2014  01:07:00      -64.985       -8.011       -2.405       47.298       44.062       28.249     2237.071     1941.450      798.009        0.463        0.249       65.476       26.523        0.164      337.816       10.048      861.035
03/25/2014  01:08:00      -73.244      -19.707       -1.129       37.666       44.881       22.618     1418.725     2014.289      511.579        0.485        0.197       75.849       18.101        0.057      337.918       10.216      861.017
03/25/2014  01:09:00      -24.728      -27.251        1.441       35.654       16.193       13.078     1271.200      262.204      171.032        0.153        0.085       36.798       12.706        0.119      337.786        9.994      861.009
03/25/2014  01:10:00     -103.826      -49.855       -7.483       21.236       20.699       15.113      450.972      428.438      228.410        0.721        0.055      115.175       14.348        0.016      337.464        9.457      860.985
03/25/2014  01:11:00      -96.907      -20.681      -13.615       36.388       20.873       16.089     1324.103      435.687      258.870        0.601        0.101       99.090       17.528        0.031      337.449        9.429      860.978
03/25/2014  01:12:00     -109.588      -37.714       -5.442       34.707       27.275       16.977     1204.596      743.911      288.233        0.785        0.112      115.896       13.923        0.014      337.366        9.293      860.979
03/25/2014  01:13:00     -143.386      -27.463      -20.593       49.139       28.555       23.801     2414.661      815.401      566.507        1.277        0.190      145.993       20.063        0.019      337.259        9.112      860.973
03/25/2014  01:14:00      -91.442      -53.461        1.338       41.184       35.842       21.052     1696.150     1284.667      443.166        0.732        0.171      105.923       16.738        0.025      337.287        9.159      860.970
03/25/2014  01:15:00     -106.008      -42.136       -5.536       21.566       16.616       13.464      465.093      276.086      181.292        0.698        0.046      114.076        9.011        0.006      337.240        9.081      860.973
03/25/2014  01:16:00     -117.750      -28.272      -20.701       17.117       18.716       12.131      293.003      350.271      147.164        0.794        0.040      121.097        6.888        0.003      337.363        9.286      860.957
03/25/2014  01:17:00     -127.085      -34.682      -16.490       11.753       15.866       10.933      138.130      251.741      119.540        0.907        0.025      131.733        8.442        0.004      337.367        9.293      860.936
03/25/2014  01:18:00     -105.586      -32.642      -11.288       24.310       23.183       16.531      590.961      537.440      273.261        0.687        0.070      110.517       11.249        0.010      337.415        9.373      860.929
03/25/2014  01:19:00     -104.168      -24.327       -3.413       31.289       30.366       20.148      979.010      922.098      405.925        0.688        0.115      106.970       18.386        0.030      337.284        9.154      860.932
03/25/2014  01:20:00      -81.714      -53.067        4.144       61.942       32.588       27.665     3836.798     1061.946      765.353        0.759        0.283       97.434       34.695        0.127      337.196        9.007      860.933
03/25/2014  01:21:00     -138.671      -54.164      -10.283       18.828       26.433       14.353      354.501      698.711      206.008        1.176        0.063      148.873        8.365        0.003      337.213        9.035      860.936
03/25/2014  01:22:00      -93.006      -25.915       -5.836       20.914       15.150       14.585      437.382      229.535      212.710        0.512        0.044       96.549        3.877        0.002      337.369        9.296      860.942
03/25/2014  01:23:00      -88.701      -42.632       -8.797       30.143       23.496       13.983      908.593      552.078      195.514        0.571        0.083       98.414       12.890        0.017      337.367        9.295      860.931
03/25/2014  01:24:00     -115.516      -32.009      -12.002       26.162       19.244       10.899      684.431      370.342      118.783        0.784        0.059      119.869       10.797        0.008      337.306        9.191      860.913
03/25/2014  01:25:00      -47.403      -34.931        0.191       18.423       19.501       11.077      339.389      380.306      122.692        0.215        0.042       58.883       12.002        0.042      337.398        9.345      860.907
03/25/2014  01:26:00     -155.578      -60.549       -9.672       27.291       24.092       11.216      744.803      580.428      125.788        1.471        0.073      166.946        7.220        0.002      337.186        8.990      860.911
03/25/2014  01:27:00      -81.342      -56.821        1.617       48.540       22.436       15.582     2356.177      503.388      242.794        0.647        0.155       99.223       21.938        0.049      337.280        9.147      860.910
03/25/2014  01:28:00      -27.294      -30.666        7.950       40.858       26.242       19.115     1669.410      688.638      365.386        0.224        0.136       41.053        4.556        0.012      337.918       10.216      860.898
03/25/2014  01:29:00     -156.127      -86.239       -6.993       81.475       35.694       17.927     6638.171     1274.093      321.371        2.005        0.412      178.362       19.025        0.011      337.181        8.980      860.915
03/25/2014  01:30:00      -82.053      -67.591        4.287       59.691       24.480       20.028     3563.039      599.286      401.123        0.794        0.228      106.307       23.628        0.049      337.304        9.187      860.913
03/25/2014  01:31:00      -91.447      -34.259       -4.264       48.685       27.209       18.070     2370.231      740.324      326.530        0.650        0.172       97.654       17.259        0.031      337.317        9.210      860.891
03/25/2014  01:32:00      -44.920      -65.861       -1.305       30.514       47.766       18.968      931.083     2281.604      359.768        0.496        0.179       79.722       19.600        0.060      337.560        9.615      860.867
03/25/2014  01:33:00      -60.713     -101.755       -0.315       28.759       31.671       19.576      827.069     1003.028      383.219        0.813        0.111      118.491       16.508        0.019      337.589        9.666      860.848
03/25/2014  01:34:00      -52.745      -80.274       -3.719       23.547       30.403       15.039      554.482      924.318      226.173        0.547        0.085       96.052       11.454        0.014      337.546        9.594      860.841
03/25/2014  01:35:00      -49.168      -32.854       11.240       47.947       27.875       22.535     2298.877      777.029      507.809        0.360        0.179       59.134       17.825        0.091      337.385        9.324      860.842
03/25/2014  01:36:00      -79.247      -92.131       -1.009       64.522       44.044       31.327     4163.040     1939.846      981.351        1.093        0.354      121.524       20.340        0.028      337.504        9.522      860.838
03/25/2014  01:37:00      -40.244      -60.224        9.189       37.894       37.570       26.186     1435.983     1411.510      685.686        0.443        0.177       72.433       18.338        0.064      337.711        9.870      860.829
03/25/2014  01:38:00      -36.636      -33.295        6.785       43.807       27.812       19.319     1919.033      773.527      373.211        0.278        0.153       49.505       12.691        0.066      337.649        9.766      860.821
03/25/2014  01:39:00     -109.660      -75.687       -1.602       61.580       33.468       20.488     3792.107     1120.138      419.755        1.154        0.267      133.243       17.091        0.016      337.358        9.279      860.824
03/25/2014  01:40:00      -81.192     -120.719      -10.887       33.405       31.850       22.829     1115.874     1014.412      521.154        1.197        0.133      145.482       20.128        0.019      338.096       10.516      860.811
03/25/2014  01:41:00     -124.784      -97.239      -15.012       26.281       32.441       19.042      690.692     1052.401      362.595        1.368        0.105      158.197       12.839        0.007      337.895       10.179      860.804
03/25/2014  01:42:00      -91.095      -80.542        0.231       56.093       46.015       25.047     3146.478     2117.387      627.359        1.034        0.295      121.595       24.950        0.042      337.560        9.617      860.798
03/25/2014  01:43:00      -85.623     -116.073       -2.001       38.725       37.849       23.335     1499.595     1432.571      544.527        1.214        0.174      144.237       21.992        0.023      337.751        9.937      860.779
03/25/2014  01:44:00      -57.549     -118.747       -5.046       36.639       54.331       24.914     1342.422     2951.813      620.695        1.118        0.246      131.958       21.570        0.027      337.783        9.991      860.774
03/25/2014  01:45:00      -86.517      -71.969       -0.230       48.859       42.218       19.067     2387.217     1782.360      363.540        0.860        0.227      112.538       18.804        0.028      337.460        9.450      860.777
03/25/2014  01:46:00     -116.731      -56.042        6.754       42.536       31.508       23.407     1809.349      992.763      547.879        1.008        0.167      129.486       20.042        0.024      337.211        9.032      860.782
03/25/2014  01:47:00      -88.445     -101.246        2.483       52.349       50.171       26.256     2740.452     2517.100      689.383        1.201        0.297      134.437       28.990        0.046      337.361        9.281      860.777
03/25/2014  01:48:00      -61.910      -76.570        1.959       38.645       35.116       24.168     1493.433     1233.111      584.092        0.650        0.166       98.468       23.049        0.055      337.343        9.253      860.759
03/25/2014  01:49:00      -79.187      -72.446        8.606       51.682       41.406       29.852     2671.005     1714.458      891.126        0.843        0.264      107.327       29.965        0.078      337.403        9.353      860.732
03/25/2014  01:50:00      -68.398      -59.323       -1.531       44.148       34.414       22.573     1949.037     1184.309      509.530        0.592        0.182       90.540       13.516        0.022      337.281        9.148      860.721
03/25/2014  01:51:00      -91.894      -55.134       -3.386       44.886       26.746       20.530     2014.748      715.350      421.486        0.732        0.158      107.164       17.958        0.028      337.236        9.074      860.705
03/25/2014  01:52:00      -48.094      -34.953       10.512       46.853       26.566       18.988     2195.163      705.730      360.547        0.345        0.163       59.454       21.796        0.134      337.186        8.991      860.687
03/25/2014  01:53:00      -36.043      -23.510       11.842       26.976       21.747       16.577      727.703      472.921      274.806        0.173        0.074       43.033       15.997        0.138      337.184        8.987      860.682
03/25/2014  01:54:00      -19.217      -23.869       14.744       29.302       19.974       15.657      858.616      398.958      245.155        0.133        0.075       30.644       17.107        0.312      337.180        8.982      860.690
03/25/2014  01:55:00      -23.176      -24.467        1.542       21.581       14.634       11.535      465.728      214.168      133.054        0.098        0.041       33.701        9.787        0.084      337.187        8.993      860.682
03/25/2014  01:56:00      -31.397      -29.654        1.933       33.690       17.361       10.654     1135.035      301.400      113.506        0.171        0.077       43.187        8.238        0.036      337.174        8.971      860.675
03/25/2014  01:57:00      -45.990        0.504        1.969       14.477       13.198        7.750      209.584      174.188       60.065        0.128        0.022       45.992        3.022        0.004      337.220        9.048      860.659
03/25/2014  01:58:00       -3.456       -2.118        4.111       11.361        8.240        5.706      129.066       67.905       32.553        0.013        0.011        4.053        1.911        0.222      337.091        8.829      860.644
03/25/2014  01:59:00       -8.596      -11.333        5.730       22.257       12.610        8.231      495.388      159.010       67.753        0.048        0.036       14.224        8.295        0.340      337.246        9.090      860.644
03/25/2014  02:00:00      -54.072      -36.359       -4.405       45.040       18.684       11.355     2028.626      349.095      128.937        0.339        0.125       65.160        5.201        0.006      337.243        9.087      860.643
03/25/2014  02:01:00      -16.129      -12.512        7.590       26.051       14.695       13.592      678.635      215.948      184.744        0.078        0.054       20.413       13.137        0.414      337.167        8.960      860.643
03/25/2014  02:02:00      -48.037      -19.758       -1.028       22.845       17.570       10.860      521.872      308.700      117.948        0.182        0.047       51.942        7.134        0.019      337.133        8.902      860.634
03/25/2014  02:03:00      -71.099      -61.715        0.716       28.137       31.341       17.034      791.710      982.231      290.142        0.546        0.103       94.148       14.616        0.024      337.152        8.935      860.638
03/25/2014  02:04:00      -76.975      -89.506        1.573       49.470       47.453       21.983     2447.251     2251.781      483.257        0.956        0.259      118.053       25.584        0.047      337.097        8.841      860.644
03/25/2014  02:05:00      -91.477      -75.463        4.446       40.576       50.743       22.793     1646.419     2574.815      519.512        0.941        0.237      118.586       25.377        0.046      337.015        8.703      860.642
03/25/2014  02:06:00     -102.361      -41.287       -5.597       37.402       26.273       16.535     1398.919      690.296      273.405        0.729        0.118      110.374       14.652        0.018      336.953        8.600      860.615
03/25/2014  02:07:00      -96.680      -11.468       -2.593       21.974       16.308       17.131      482.867      265.959      293.471        0.526        0.052       97.358       12.264        0.016      336.943        8.582      860.603
03/25/2014  02:08:00      -86.233      -36.253       -3.053       33.240       22.981       19.957     1104.925      528.126      398.298        0.540        0.102       93.543       19.433        0.043      336.919        8.542      860.609
03/25/2014  02:09:00      -96.480      -50.283        1.420       39.323       28.094       18.658     1546.270      789.287      348.122        0.726        0.134      108.797       19.841        0.033      336.749        8.260      860.629
03/25/2014  02:10:00     -100.093      -42.160        0.692       34.084       23.299       15.429     1161.746      542.824      238.050        0.687        0.097      108.609       12.960        0.014      336.701        8.180      860.635
03/25/2014  02:11:00      -78.137      -40.206        1.927       40.055       30.372       17.883     1604.416      922.456      319.805        0.529        0.142       87.874       14.194        0.026      336.791        8.331      860.626
03/25/2014  02:12:00      -97.597      -54.774       -0.969       35.313       28.000       19.397     1246.974      783.979      376.243        0.747        0.120      111.917       16.814        0.023      336.786        8.323      860.621
03/25/2014  02:13:00      -29.778      -31.060        7.591       22.257       19.234       16.897      495.385      369.943      285.508        0.153        0.058       43.029        7.033        0.027      336.795        8.336      860.603
03/25/2014  02:14:00      -41.653      -26.221       -0.319       23.342        9.582        8.531      544.838       91.810       72.783        0.157        0.035       49.219        5.896        0.014      336.795        8.338      860.599
03/25/2014  02:15:00      -11.996      -22.344        5.176       24.945       16.373       13.472      622.239      268.075      181.493        0.087        0.054       25.360        8.306        0.107      336.796        8.339      860.592
03/25/2014  02:16:00      -69.484      -32.508       -0.675       34.854       31.901       18.371     1214.798     1017.655      337.494        0.423        0.128       76.713       19.113        0.062      336.753        8.267      860.586
03/25/2014  02:17:00      -47.683       13.213       -2.329       26.610       30.191       16.882      708.099      911.487      285.016        0.218        0.095       49.480        8.613        0.030      336.868        8.457      860.539
03/25/2014  02:18:00      -34.267       66.266       -8.867       30.625       11.526       10.813      937.904      132.847      116.925        0.342        0.059       74.602       14.052        0.035      336.900        8.512      860.504
03/25/2014  02:19:00      -48.453       35.155       -6.074       20.122       35.020       12.595      404.905     1226.375      158.642        0.270        0.089       59.863       10.566        0.031      337.112        8.865      860.497
03/25/2014  02:20:00      -22.676       40.876       -2.253       21.650       20.712       15.911      468.725      429.003      253.146        0.167        0.058       46.745        2.620        0.003      336.717        8.207      860.513
03/25/2014  02:21:00       12.598       11.331        0.751       14.380       11.130        9.217      206.793      123.875       84.962        0.035        0.021       16.945        7.152        0.178      336.711        8.199      860.540
03/25/2014  02:22:00       13.536       12.487       16.506       19.110        8.169        7.252      365.210       66.725       52.596        0.055        0.024       18.416        7.626        0.171      336.629        8.062      860.544
03/25/2014  02:23:00       39.248       23.736       12.974        7.557        5.185        7.900       57.113       26.885       62.409        0.121        0.007       45.868        4.163        0.008      336.594        8.000      860.533
03/25/2014  02:24:00        3.651       11.622       -7.504       12.232       10.905        7.126      149.617      118.913       50.776        0.026        0.016       12.182        8.033        0.435      336.621        8.046      860.544
03/25/2014  02:25:00      -60.638       -6.595       -9.514       19.140        8.773        9.799      366.343       76.962       96.020        0.218        0.027       60.995        6.307        0.011      336.486        7.820      860.554
03/25/2014  02:26:00      -69.315       -6.217       -2.449       25.124       24.831       19.136      631.191      616.576      366.169        0.323        0.081       69.594       16.737        0.058      336.508        7.856      860.544
03/25/2014  02:27:00      -78.394      -17.303       -7.309       34.957       18.092       16.028     1221.967      327.319      256.911        0.415        0.090       80.281       12.024        0.022      336.433        7.730      860.538
03/25/2014  02:28:00      -57.032      -15.336       -5.705       28.227       11.062       11.167      796.735      122.358      124.698        0.228        0.052       59.058       12.709        0.046      336.626        8.056      860.537
03/25/2014  02:29:00      -50.745      -10.776       -3.772       20.670       11.723        8.978      427.266      137.422       80.611        0.168        0.032       51.877        8.665        0.028      336.710        8.194      860.525
03/25/2014  02:30:00       12.436        2.048       -3.145       14.332        5.679       12.156      205.401       32.249      147.764        0.028        0.019       12.604        8.032        0.406      336.681        8.147      860.498
03/25/2014  02:31:00       20.945       26.796        1.828       18.755       13.838       10.958      351.754      191.488      120.079        0.091        0.033       34.011        8.004        0.055      336.787        8.325      860.469
03/25/2014  02:32:00        8.775        8.681       -0.996        9.877       17.757       11.353       97.560      315.312      128.885        0.035        0.027       12.343        5.811        0.222      336.644        8.088      860.448
03/25/2014  02:33:00        3.148        8.822       -0.893        9.981        8.761        6.135       99.625       76.753       37.634        0.015        0.011        9.367        5.123        0.299      336.804        8.352      860.439
03/25/2014  02:34:00        2.377        3.498       -4.711        5.615       10.679        5.731       31.532      114.040       32.842        0.011        0.009        4.230        4.610        1.188      336.703        8.185      860.445
03/25/2014  02:35:00        9.998      -15.848        2.937        7.683       15.900        9.582       59.034      252.797       91.814        0.038        0.020       18.738        9.201        0.241      336.846        8.421      860.464
03/25/2014  02:36:00      -17.883       -8.771        6.910       17.944       16.093       12.056      321.986      258.988      145.337        0.059        0.036       19.918       10.562        0.281      336.744        8.254      860.468
03/25/2014  02:37:00       -6.791       19.848       10.826       22.978       11.981        8.642      528.011      143.548       74.690        0.065        0.037       20.978       10.236        0.238      336.640        8.078      860.441
03/25/2014  02:38:00       31.086       29.477        4.461       15.449       16.483       19.178      238.680      271.693      367.779        0.137        0.044       42.840       10.327        0.058      336.832        8.399      860.390
03/25/2014  02:39:00       29.774       37.200        0.922       14.303       32.650       18.817      204.567     1066.018      354.091        0.195        0.081       47.648       16.485        0.120      336.836        8.404      860.371
03/25/2014  02:40:00       15.449       27.420       -3.780       12.874       13.905       11.338      165.747      193.347      128.550        0.075        0.024       31.473        8.415        0.071      336.978        8.641      860.373
03/25/2014  02:41:00      -26.522       -9.667       -2.572       22.616       19.264       11.803      511.467      371.115      139.320        0.091        0.051       28.229       12.954        0.211      336.774        8.303      860.379
03/25/2014  02:42:00      -26.150      -25.758       -8.107       12.561        7.978        5.253      157.770       63.645       27.597        0.083        0.012       36.705        4.327        0.014      336.326        7.554      860.386
03/25/2014  02:43:00       -1.310       -9.493       -0.760        6.070       13.983        6.761       36.841      195.526       45.705        0.019        0.014        9.583        7.814        0.665      336.695        8.170      860.386
03/25/2014  02:44:00      -13.353       18.874       27.997       13.476       14.496       16.902      181.605      210.147      285.662        0.100        0.034       23.119       11.183        0.234      336.531        7.895      860.380
03/25/2014  02:45:00      -46.546       -2.769       -0.380       10.474       13.564        8.256      109.696      183.974       68.154        0.127        0.018       46.629        7.246        0.024      336.805        8.351      860.383
03/25/2014  02:46:00      -32.099      -11.832       -5.994       24.800       11.338        8.241      615.035      128.544       67.911        0.101        0.041       34.210       11.777        0.119      336.614        8.034      860.379
03/25/2014  02:47:00      -19.824      -15.209       -2.681       12.495        9.491        7.537      156.116       90.076       56.810        0.047        0.015       24.986        4.387        0.031      336.612        8.032      860.361
03/25/2014  02:48:00       16.556       31.429        2.659       20.258       14.628        9.918      410.393      213.980       98.363        0.100        0.036       35.523       12.399        0.122      336.692        8.165      860.312
03/25/2014  02:49:00       25.224       68.920       -9.713        9.991       12.117        9.969       99.813      146.833       99.389        0.291        0.017       73.391        9.738        0.018      336.907        8.523      860.245
03/25/2014  02:50:00       27.447       87.601      -15.353       14.501       18.865       12.851      210.267      355.901      165.143        0.470        0.037       91.800       10.576        0.013      336.884        8.486      860.199
03/25/2014  02:51:00       35.376       98.442      -21.206       17.405       15.099       14.698      302.929      227.994      216.040        0.607        0.037      104.605       11.134        0.011      336.880        8.478      860.168
03/25/2014  02:52:00       -3.086       81.788      -19.817       14.464       19.591        7.568      209.210      383.801       57.279        0.387        0.033       81.846        8.899        0.012      336.907        8.523      860.179
03/25/2014  02:53:00      -15.868       16.712       -8.298       28.423       34.842       15.221      807.877     1213.936      231.672        0.143        0.113       23.045       14.635        0.403      336.800        8.344      860.212
03/25/2014  02:54:00      -43.944      -29.903       -6.308       24.923       17.632       14.366      621.180      310.877      206.369        0.200        0.057       53.153       13.878        0.068      336.133        7.230      860.253
03/25/2014  02:55:00      -85.971      -20.449      -11.705       16.366       18.656       13.175      267.854      348.047      173.569        0.437        0.039       88.370        9.052        0.010      336.125        7.217      860.264
03/25/2014  02:56:00      -67.515      -17.179      -11.175       28.244       15.532       10.424      797.699      241.237      108.657        0.306        0.057       69.666       11.925        0.029      336.296        7.502      860.259
03/25/2014  02:57:00       -3.331        6.866        0.006       14.851        9.143        6.130      220.551       83.597       37.578        0.020        0.017        7.632        5.709        0.560      336.737        8.240      860.230
03/25/2014  02:58:00       18.923       -3.105       -0.772       15.167       19.174       12.043      230.045      367.634      145.039        0.056        0.037       19.176       10.615        0.306      336.571        7.963      860.229
03/25/2014  02:59:00       -6.394      -26.328       -4.153       20.248       17.707       19.314      409.999      313.547      373.033        0.092        0.055       27.094        9.100        0.113      336.715        8.204      860.253
03/25/2014  03:00:00       29.969       44.738       36.792       21.015       18.296       18.749      441.610      334.727      351.537        0.269        0.056       53.848        2.661        0.002      336.812        8.365      860.222
03/25/2014  03:01:00       -9.504        4.536       15.346       27.188       15.517       13.987      739.202      240.775      195.648        0.076        0.059       10.531       16.303        2.397      336.832        8.397      860.212
03/25/2014  03:02:00      -67.299        0.002       -9.047       33.477       25.550       15.650     1120.714      652.782      244.920        0.331        0.101       67.299       16.183        0.058      336.768        8.292      860.215
03/25/2014  03:03:00      -36.835        8.193       -4.799       25.599       27.021       14.505      655.328      730.144      210.407        0.152        0.080       37.735       11.951        0.100      336.978        8.643      860.208
03/25/2014  03:04:00      -16.483       -8.946       -7.138       20.980       17.673        9.188      440.179      312.341       84.422        0.062        0.042       18.754        9.238        0.243      336.742        8.246      860.203
03/25/2014  03:05:00      -51.739      -35.139      -13.813       19.739       22.767       15.764      389.638      518.333      248.514        0.263        0.058       62.544        7.846        0.016      336.411        7.695      860.197
03/25/2014  03:06:00      -30.902        2.721       -8.816       15.410       20.845       10.718      237.459      434.505      114.878        0.091        0.039       31.022        9.060        0.085      336.613        8.031      860.164
03/25/2014  03:07:00       -4.576       41.859       -5.936       10.999        9.891        5.489      120.970       97.830       30.134        0.103        0.012       42.108        5.122        0.015      337.349        9.261      860.117
03/25/2014  03:08:00       26.257       49.825       -6.908       17.397       20.955       15.122      302.669      439.105      228.663        0.209        0.049       56.321       14.142        0.063      337.162        8.950      860.097
03/25/2014  03:09:00        8.849       12.761       -1.580       30.920       28.677       18.933      956.048      822.348      358.441        0.119        0.107       15.529       19.494        1.576      336.759        8.276      860.089
03/25/2014  03:10:00       18.617       54.624      -15.828       32.149       27.829       14.707     1033.548      774.466      216.287        0.280        0.101       57.709       11.710        0.041      336.916        8.539      860.090
03/25/2014  03:11:00      -55.964       25.644       -7.992       39.497       56.688       17.373     1560.012     3213.525      301.820        0.446        0.254       61.560       16.428        0.071      336.809        8.362      860.092
03/25/2014  03:12:00      -71.408       -0.264       -6.901       62.896       42.212       27.745     3955.961     1781.824      769.761        0.583        0.325       71.409       33.217        0.216      336.288        7.490      860.078
03/25/2014  03:13:00      -77.230       36.692       -6.304       27.322       29.405       23.243      746.488      864.635      540.219        0.475        0.108       85.503       12.913        0.023      336.689        8.160      860.049
03/25/2014  03:14:00      -67.628       -4.441       -9.307       28.694       32.460       19.853      823.321     1053.679      394.133        0.348        0.114       67.774       17.018        0.063      336.502        7.848      860.036
03/25/2014  03:15:00      -62.350      -39.461      -13.045       25.343       17.765       14.307      642.263      315.595      204.693        0.339        0.058       73.789        9.663        0.017      336.169        7.290      860.038
03/25/2014  03:16:00      -44.136       22.466      -17.070       30.895       47.508       22.150      954.510     2257.053      490.635        0.322        0.185       49.525       17.010        0.118      336.378        7.639      860.029
03/25/2014  03:17:00       71.544       52.703        0.292       36.300       24.955       20.131     1317.694      622.770      405.257        0.512        0.117       88.861        4.960        0.003      336.660        8.111      860.019
03/25/2014  03:18:00       23.521       -6.850        4.004       30.685       65.240       35.357      941.563     4256.242     1250.092        0.353        0.322       24.499       38.613        2.484      336.443        7.748      860.060
03/25/2014  03:19:00      -90.506      -72.493        0.593       97.121       45.210       39.069     9432.502     2043.939     1526.404        1.322        0.650      115.959       41.906        0.131      336.408        7.689      860.146
03/25/2014  03:20:00     -160.401      -38.304      -10.045       59.931       41.671       23.719     3591.682     1736.451      562.597        1.659        0.295      164.911       11.518        0.005      336.143        7.245      860.161
03/25/2014  03:21:00      -43.505       41.502      -13.978       34.251       19.461       14.424     1173.097      378.749      208.040        0.278        0.088       60.126       10.617        0.031      336.711        8.196      860.100
03/25/2014  03:22:00       -5.711       67.056      -13.730       18.145       13.472        9.119      329.246      181.489       83.158        0.266        0.030       67.299        8.047        0.014      337.324        9.221      860.063
03/25/2014  03:23:00      -39.239       30.292      -11.370       21.376       32.882       12.563      456.926     1081.231      157.819        0.214        0.085       49.571       11.643        0.055      337.125        8.889      860.070
03/25/2014  03:24:00      -11.392       62.677      -12.007       15.698       22.765       11.358      246.430      518.239      129.014        0.255        0.045       63.704        7.526        0.014      337.026        8.723      860.059
03/25/2014  03:25:00       30.792      136.798      -24.755       35.216       36.924       18.341     1240.161     1363.372      336.374        1.161        0.147      140.221       12.901        0.008      337.306        9.191      860.021
03/25/2014  03:26:00       -6.151      136.332      -32.354       70.221       76.699       16.271     4930.943     5882.777      264.740        1.537        0.554      136.470       29.923        0.048      337.355        9.273      859.991
03/25/2014  03:27:00      -30.110       77.090       -9.735       39.473       46.742       22.391     1558.094     2184.806      501.372        0.559        0.212       82.762       21.347        0.067      337.320        9.214      859.969
03/25/2014  03:28:00       20.593       23.184       -5.242       36.293       79.832       30.026     1317.193     6373.219      901.543        0.479        0.430       31.010       19.110        0.380      337.066        8.790      859.948
03/25/2014  03:29:00        9.237     -111.883      -25.877       34.314       25.889       17.696     1177.419      670.220      313.152        0.772        0.108      112.264       18.412        0.027      337.097        8.840      859.967
03/25/2014  03:30:00       10.628      -15.407       19.318       41.624       48.250       37.785     1732.579     2328.086     1427.704        0.311        0.274       18.718       27.872        2.217      336.943        8.584      859.975
03/25/2014  03:31:00      109.751     -123.356      -35.362       52.989       63.824       47.318     2807.807     4073.511     2238.973        1.881        0.456      165.112       44.992        0.074      337.100        8.845      859.952
03/25/2014  03:32:00       53.887      -52.395        1.498       28.672       31.414       22.034      822.061      986.855      485.476        0.397        0.115       75.160       19.234        0.065      337.223        9.052      859.947
03/25/2014  03:33:00      -14.423      -18.477        7.831       23.202       21.232       19.308      538.347      450.792      372.808        0.099        0.068       23.439       14.592        0.388      337.100        8.846      859.970
03/25/2014  03:34:00      -41.086      -36.266        2.984       34.600       35.368       17.403     1197.145     1250.861      302.874        0.288        0.138       54.802       13.545        0.061      336.716        8.204      859.989
03/25/2014  03:35:00      -19.252       32.243       -0.889       25.287       23.983       12.263      639.417      575.190      150.389        0.139        0.068       37.553        4.495        0.014      336.814        8.368      859.972
03/25/2014  03:36:00      -50.195       37.734      -11.910       57.332       30.303       15.773     3286.949      918.250      248.790        0.427        0.223       62.797       28.343        0.204      336.880        8.478      859.962
03/25/2014  03:37:00     -216.817      -77.388       -5.490       55.309       60.185       32.314     3059.046     3622.294     1044.213        3.038        0.386      230.214       14.735        0.004      336.548        7.922      859.980
03/25/2014  03:38:00     -128.435      -66.093       12.135       69.190       38.985       28.865     4787.241     1519.859      833.179        1.407        0.357      144.443       14.461        0.010      336.697        8.174      859.983
03/25/2014  03:39:00      -32.602      -18.445       -4.738       11.734       11.496        8.499      137.698      132.169       72.230        0.088        0.017       37.458        5.320        0.020      337.034        8.735      859.948
03/25/2014  03:40:00      -17.330      -18.752       -9.291       28.169       10.522        7.886      793.490      110.717       62.187        0.085        0.048       25.534       10.117        0.157      337.063        8.783      859.926
03/25/2014  03:41:00       17.648       20.774       27.372       17.718       17.349       15.642      313.923      300.995      244.678        0.118        0.043       27.258       13.207        0.235      336.858        8.442      859.894
03/25/2014  03:42:00        8.892       24.627       24.760       13.532       22.979       20.406      183.123      528.030      416.408        0.121        0.056       26.183       18.337        0.490      336.729        8.229      859.894
03/25/2014  03:43:00       64.222       31.117       19.663       33.233       16.580       17.856     1104.445      274.901      318.849        0.359        0.085       71.363       11.662        0.027      337.062        8.782      859.889
03/25/2014  03:44:00      -67.831      -25.142        2.325       81.084       33.926       23.199     6574.605     1150.955      538.207        0.675        0.413       72.340       34.729        0.230      336.967        8.624      859.915
03/25/2014  03:45:00     -206.432      -47.158      -11.335       53.736       48.524       33.760     2887.524     2354.553     1139.754        2.567        0.319      211.750       28.044        0.018      336.591        7.994      859.950
03/25/2014  03:46:00     -136.879      -14.081       -8.045       65.221       43.445       24.121     4253.733     1887.472      581.833        1.286        0.336      137.602       30.687        0.050      336.737        8.240      859.951
03/25/2014  03:47:00       18.767        4.813       18.137       30.278       40.202       22.782      916.783     1616.166      519.031        0.188        0.153       19.374       16.037        0.685      336.791        8.331      859.943
03/25/2014  03:48:00       70.937        2.872       10.013       25.092       18.646       16.984      629.617      347.676      288.451        0.320        0.063       70.996       13.660        0.037      336.917        8.540      859.916
03/25/2014  03:49:00       56.550       48.369        7.306       20.845       19.869        9.059      434.534      394.758       82.065        0.325        0.046       74.414        8.276        0.012      337.212        9.032      859.888
03/25/2014  03:50:00      -37.063      -19.195       -0.775       40.784       34.042       20.332     1663.342     1158.880      413.373        0.249        0.162       41.738       14.989        0.129      337.178        8.975      859.930
03/25/2014  03:51:00      -64.781      -20.668       12.117       62.996       32.348       20.592     3968.541     1046.421      424.033        0.510        0.272       67.998       28.718        0.178      336.749        8.261      859.941
03/25/2014  03:52:00        5.078       50.237        8.291       22.323       26.265       19.568      498.327      689.826      382.909        0.209        0.079       50.493       19.733        0.153      336.824        8.385      859.890
03/25/2014  03:53:00       44.607       22.073        6.626       26.925       30.691       21.656      724.948      941.911      468.995        0.233        0.107       49.770       16.263        0.107      336.818        8.375      859.889
03/25/2014  03:54:00       17.198      -18.712      -10.984       12.664       17.859        9.253      160.378      318.928       85.616        0.067        0.028       25.415        8.221        0.105      336.962        8.615      859.892
03/25/2014  03:55:00       39.581       45.616       15.055       19.266       15.793       21.106      371.183      249.412      445.481        0.247        0.053       60.394        9.231        0.023      336.870        8.461      859.856
03/25/2014  03:56:00       37.233       72.548       -4.360       15.532       24.990       18.772      241.258      624.516      352.375        0.394        0.061       81.545       17.976        0.049      336.712        8.198      859.857
03/25/2014  03:57:00       52.799       40.833       -1.384       31.081       26.858       21.493      966.056      721.326      461.958        0.330        0.107       66.746       19.717        0.087      336.549        7.926      859.829
03/25/2014  03:58:00       13.455       29.856       -6.721       39.156       45.822       15.652     1533.162     2099.617      244.979        0.250        0.194       32.748       18.300        0.312      336.538        7.907      859.840
03/25/2014  03:59:00       31.393       79.289      -10.883       21.169       36.959       11.863      448.146     1365.950      140.742        0.467        0.098       85.278       13.894        0.027      336.504        7.852      859.863
03/25/2014  04:00:00       71.219       38.595       20.064       37.348       23.849       30.109     1394.895      568.765      906.539        0.492        0.144       81.004       29.030        0.128      336.409        7.691      859.852
03/25/2014  04:01:00       -7.950       56.845       67.645       15.663       37.666       21.468      245.340     1418.726      460.883        0.500        0.106       57.398       21.164        0.136      336.238        7.407      859.825
03/25/2014  04:02:00       43.681       58.057       31.538       22.083       11.366       20.926      487.645      129.191      437.905        0.366        0.053       72.654       19.508        0.072      336.319        7.541      859.788
03/25/2014  04:03:00       59.500       58.167       -1.417       30.233       26.092       21.732      914.057      680.780      472.279        0.450        0.103       83.209       19.565        0.055      336.320        7.544      859.734
03/25/2014  04:04:00      -11.828       18.894        0.765       30.213       31.230       17.071      912.803      975.329      291.429        0.134        0.109       22.291       12.604        0.320      336.218        7.372      859.694
03/25/2014  04:05:00     -127.853      -39.126      -11.522       38.362       40.820       22.430     1471.628     1666.246      503.094        1.082        0.182      133.706       12.121        0.008      336.217        7.371      859.733
03/25/2014  04:06:00      -64.638      -47.016        2.162       47.442       35.072       28.870     2250.757     1230.023      833.455        0.535        0.216       79.929       21.701        0.074      336.292        7.495      859.767
03/25/2014  04:07:00      -13.479      -10.548        1.792       18.594       14.889       15.569      345.737      221.694      242.402        0.055        0.040       17.115       11.868        0.481      336.344        7.581      859.744
03/25/2014  04:08:00      -16.035      -11.669       -9.114       14.656        8.077        9.692      214.799       65.234       93.935        0.043        0.019       19.831       10.908        0.303      336.777        8.306      859.694
03/25/2014  04:09:00       13.464      -48.924       -6.697       17.136       21.237       13.724      293.641      451.025      188.346        0.178        0.047       50.743       12.719        0.063      336.701        8.180      859.702
03/25/2014  04:10:00       -6.250       -6.686       -2.952       19.191       15.299        9.940      368.291      234.057       98.810        0.040        0.035        9.153       10.804        1.393      336.651        8.099      859.710
03/25/2014  04:11:00       21.237       -5.905       45.183       51.191       78.215       47.320     2620.543     6117.626     2239.172        0.675        0.549       22.042       56.702        6.617      336.391        7.661      859.704
03/25/2014  04:12:00       35.956      -45.222       22.904       49.264       87.843       32.155     2426.957     7716.467     1033.969        0.752        0.559       57.774       44.599        0.596      336.067        7.119      859.686
03/25/2014  04:13:00        3.108      -12.035       14.389       11.660       27.971       18.430      135.952      782.395      339.677        0.081        0.063       12.430       20.954        2.842      336.165        7.283      859.676
03/25/2014  04:14:00      -13.010      -48.478      -24.427       31.851       30.757       10.460     1014.491      945.983      109.417        0.259        0.103       50.194        5.804        0.013      336.361        7.611      859.656
03/25/2014  04:15:00       14.189       19.974        2.963       52.462       17.658       24.485     2752.271      311.793      599.533        0.214        0.183       24.501       21.628        0.779      336.231        7.393      859.646
03/25/2014  04:16:00      132.936       70.125       32.933       50.911       35.404       38.143     2591.921     1253.462     1454.862        1.449        0.265      150.298       34.822        0.054      336.115        7.199      859.595
03/25/2014  04:17:00       37.160       39.673       57.346       43.594       40.907       32.399     1900.409     1673.350     1049.675        0.543        0.231       54.359       31.628        0.339      336.193        7.329      859.582
03/25/2014  04:18:00       -4.753       23.972       23.619       21.373       16.289       16.307      456.803      265.327      265.906        0.107        0.049       24.438       11.370        0.216      336.107        7.188      859.599
03/25/2014  04:19:00       58.619       26.024       14.098       18.373       15.383       16.674      337.559      236.637      278.019        0.258        0.043       64.136       12.439        0.038      336.133        7.230      859.597
03/25/2014  04:20:00       93.148       49.355       23.220       35.140       22.360       31.278     1234.785      499.990      978.312        0.718        0.136      105.416       23.684        0.050      336.099        7.175      859.589
03/25/2014  04:21:00       78.035       59.059       34.386       38.315       33.554       33.629     1468.060     1125.891     1130.881        0.724        0.186       97.864       26.023        0.071      336.079        7.140      859.575
03/25/2014  04:22:00       28.326       30.989       45.748       25.390       20.786       21.697      644.638      432.067      470.774        0.270        0.077       41.984       16.559        0.156      336.034        7.064      859.590
03/25/2014  04:23:00       13.527       26.742       46.573       23.698       36.914       17.798      561.580     1362.632      316.751        0.265        0.112       29.969       19.365        0.418      336.232        7.395      859.621
03/25/2014  04:24:00       53.128      -80.561        1.642       37.743       32.882       25.477     1424.505     1081.244      649.083        0.623        0.158       96.503       19.323        0.040      336.468        7.789      859.640
03/25/2014  04:25:00        1.371      -68.807       -5.933       54.830       30.306       15.472     3006.343      918.443      239.368        0.447        0.208       68.821       19.347        0.079      336.323        7.548      859.670
03/25/2014  04:26:00      -50.180        2.086       -0.961       15.857       18.655        9.531      251.445      348.020       90.840        0.161        0.035       50.223        9.442        0.035      336.137        7.237      859.675
03/25/2014  04:27:00      -86.062       16.621      -14.892       18.036        9.895        7.411      325.295       97.903       54.928        0.419        0.024       87.652        6.620        0.006      336.272        7.462      859.644
03/25/2014  04:28:00     -129.106      -12.219      -13.159       15.490       34.934       11.800      239.947     1220.394      139.234        0.929        0.080      129.683        7.987        0.004      336.147        7.252      859.610
03/25/2014  04:29:00     -144.672      -66.236       -2.407       34.777       30.833       18.114     1209.414      950.691      328.103        1.391        0.124      159.114       12.667        0.006      336.123        7.213      859.591
03/25/2014  04:30:00      -80.809      -42.964       -4.920       42.508       25.086       14.978     1806.941      629.319      224.345        0.553        0.133       91.520       12.348        0.018      336.332        7.563      859.595
03/25/2014  04:31:00       27.605       -2.725       29.074       26.152       44.477       27.511      683.914     1978.217      756.851        0.252        0.171       27.739       26.458        0.910      336.350        7.593      859.606
03/25/2014  04:32:00       17.535      -45.673       34.753       37.765       79.512       50.405     1426.167     6322.096     2540.680        0.694        0.514       48.923       57.187        1.366      336.339        7.574      859.593
03/25/2014  04:33:00       -3.156       -6.500       -4.700       27.895       39.559       19.117      778.144     1564.900      365.477        0.139        0.135        7.226       13.720        3.606      336.600        8.010      859.598
03/25/2014  04:34:00        5.102       10.488       13.382       44.496       30.803       16.960     1979.885      948.839      287.644        0.177        0.161       11.663       24.744        4.501      336.435        7.735      859.611
03/25/2014  04:35:00       86.954       61.525       10.360       25.564       20.356       26.827      653.532      414.371      719.691        0.662        0.089      106.519       16.777        0.025      336.196        7.337      859.599
03/25/2014  04:36:00       67.134       33.636        8.214       21.600       21.299       14.739      466.539      453.666      217.238        0.342        0.057       75.089       10.610        0.020      336.066        7.117      859.613
03/25/2014  04:37:00       82.232       47.130       26.956       43.098       31.640       33.825     1857.406     1001.096     1144.105        0.686        0.200       94.781       27.170        0.082      336.031        7.059      859.643
03/25/2014  04:38:00       62.017       59.551       36.477       30.793       29.545       31.838      948.217      872.926     1013.634        0.578        0.142       85.979       19.393        0.051      335.805        6.684      859.646
03/25/2014  04:39:00       27.970        7.365        6.076       23.271       14.148       14.518      541.549      200.175      210.758        0.091        0.048       28.923        6.592        0.052      336.131        7.225      859.643
03/25/2014  04:40:00       10.314        2.036        4.875       17.668        6.333        6.980      312.172       40.109       48.719        0.027        0.020       10.513        7.494        0.508      336.158        7.270      859.679
03/25/2014  04:41:00       13.481       34.866       54.451       24.928       25.958       23.361      621.398      673.813      545.714        0.310        0.092       37.382       18.447        0.244      336.074        7.130      859.657
03/25/2014  04:42:00        8.676       -7.234       22.937       21.441       39.040       31.553      459.714     1524.144      995.608        0.182        0.149       11.296       31.573        7.812      336.064        7.115      859.643
03/25/2014  04:43:00        1.731       12.578       -3.873       10.749       23.793        9.963      115.535      566.092       99.260        0.048        0.039       12.697        3.092        0.059      336.486        7.820      859.622
03/25/2014  04:44:00       12.656       36.736       -1.187       13.121       13.263        7.943      172.164      175.910       63.096        0.096        0.021       38.855        0.739        0.000      336.857        8.440      859.606
03/25/2014  04:45:00        2.038        4.017        3.370       12.933       12.513        7.412      167.252      156.583       54.941        0.021        0.019        4.504        7.613        2.856      336.786        8.322      859.578
03/25/2014  04:46:00        3.621       20.668        0.203       13.332       15.678        7.708      177.743      245.788       59.417        0.046        0.024       20.983        5.061        0.058      336.564        7.951      859.568
03/25/2014  04:47:00        6.166        4.968        2.529       27.562       16.137       10.795      759.682      260.406      116.537        0.060        0.057        7.919        9.017        1.297      336.231        7.393      859.608
03/25/2014  04:48:00       32.402       32.824        7.429       11.466        9.825       12.110      131.473       96.528      146.649        0.128        0.019       46.123        5.525        0.014      335.861        6.776      859.591
03/25/2014  04:49:00       32.605       37.741        3.144       17.566       12.751        9.597      308.562      162.589       92.100        0.153        0.028       49.875        7.767        0.024      335.959        6.939      859.546
03/25/2014  04:50:00      -64.812       15.714       -6.654       32.631       15.991        9.221     1064.812      255.724       85.033        0.295        0.070       66.690        5.467        0.007      336.193        7.330      859.545
03/25/2014  04:51:00      -67.050        9.595       -4.551       29.573       26.372       15.809      874.547      695.485      249.910        0.321        0.091       67.733       14.469        0.046      335.996        7.001      859.540
03/25/2014  04:52:00      -60.673      -27.609       -3.850       22.949       23.806       16.943      526.654      566.713      287.073        0.292        0.069       66.659       11.188        0.028      335.876        6.802      859.535
03/25/2014  04:53:00      -25.334      -32.433        0.589       27.029       16.355       15.896      730.577      267.495      252.669        0.147        0.063       41.155       13.092        0.101      335.885        6.815      859.498
03/25/2014  04:54:00      -91.085      -31.183       -3.343       13.501       16.746       11.639      182.273      280.432      135.458        0.494        0.030       96.275        6.414        0.004      335.955        6.934      859.497
03/25/2014  04:55:00      -35.589        7.828        5.001       41.435       23.649       11.385     1716.834      559.285      129.629        0.188        0.120       36.440       16.624        0.208      335.879        6.807      859.502
03/25/2014  04:56:00       51.983       42.660       11.120       21.941       23.981       18.010      481.405      575.087      324.344        0.301        0.069       67.246       15.657        0.054      335.837        6.737      859.463
03/25/2014  04:57:00     -161.680       -4.624      -23.457       73.255       37.986       25.090     5366.270     1442.909      629.513        1.707        0.372      161.746       22.529        0.019      335.902        6.842      859.511
03/25/2014  04:58:00     -189.682       -7.031      -23.631       75.379       28.207       19.351     5681.962      795.645      374.472        2.172        0.343      189.812       24.189        0.016      335.893        6.827      859.541
03/25/2014  04:59:00      -23.449      -14.249       -1.042       32.442       18.907        9.137     1052.502      357.490       83.486        0.112        0.075       27.439       10.368        0.143      336.285        7.485      859.520
03/25/2014  05:00:00       21.704      -50.947      -18.806       21.224       26.914       19.373      450.453      724.389      375.326        0.248        0.078       55.377       14.420        0.068      336.140        7.242      859.524
03/25/2014  05:01:00       14.533      -29.335      -15.431       25.687       32.085       18.120      659.797     1029.449      328.320        0.166        0.101       32.737       16.683        0.260      336.232        7.396      859.521
03/25/2014  05:02:00       -7.693        6.580      -10.601       16.802        8.453        7.623      282.313       71.447       58.117        0.031        0.021       10.123        8.214        0.658      336.323        7.546      859.475
03/25/2014  05:03:00      -71.442       25.753      -10.958       37.881       10.077       11.308     1434.965      101.540      127.881        0.378        0.083       75.942       16.703        0.048      336.216        7.369      859.452
03/25/2014  05:04:00     -116.655       -4.643      -13.546       25.218       23.204       16.561      635.942      538.444      274.274        0.763        0.072      116.747       12.450        0.011      335.818        6.705      859.455
03/25/2014  05:05:00     -114.435       28.425      -19.154       46.085       38.950       24.956     2123.823     1517.072      622.807        0.927        0.213      117.913       21.367        0.033      335.934        6.898      859.462
03/25/2014  05:06:00      -72.433       25.704      -10.266       39.698       42.380       23.610     1575.916     1796.034      557.438        0.497        0.196       76.858       20.708        0.073      335.977        6.970      859.447
03/25/2014  05:07:00      -84.315      -31.815       -0.668       44.329       35.684       21.246     1965.045     1273.379      451.376        0.591        0.184       90.118       20.759        0.053      335.892        6.829      859.429
03/25/2014  05:08:00     -125.498       -7.728      -11.683       59.951       48.969       30.904     3594.147     2397.948      955.031        1.145        0.347      125.736       26.903        0.046      335.812        6.696      859.423
03/25/2014  05:09:00     -141.517      -14.393       -5.990       38.569       51.606       28.113     1487.574     2663.170      790.345        1.260        0.247      142.247       19.498        0.019      335.759        6.607      859.406
03/25/2014  05:10:00     -142.926      -14.277      -14.675       57.394       75.533       38.215     3294.067     5705.219     1460.365        1.565        0.523      143.638       35.129        0.060      335.717        6.537      859.384
03/25/2014  05:11:00     -252.647       42.766      -25.548       62.846       51.820       38.001     3949.661     2685.345     1444.087        3.719        0.404      256.241       27.977        0.012      335.865        6.779      859.372
03/25/2014  05:12:00     -196.339       -9.100      -21.832       54.499       58.912       30.966     2970.140     3470.676      958.894        2.325        0.370      196.550       22.540        0.013      335.838        6.738      859.361
03/25/2014  05:13:00     -108.631      -11.387       -6.429       51.148       57.699       29.851     2616.141     3329.217      891.109        0.940        0.342      109.226       26.533        0.059      335.900        6.841      859.383
03/25/2014  05:14:00      -58.457        9.321       -9.354       58.853       28.549       20.176     3463.637      815.041      407.059        0.414        0.234       59.195       12.861        0.047      335.935        6.900      859.350
03/25/2014  05:15:00      -51.815       -2.070       -6.315       37.181       29.168       19.626     1382.448      850.782      385.169        0.267        0.131       51.856       20.085        0.150      336.075        7.133      859.278
03/25/2014  05:16:00      -99.593       60.462      -13.691       51.194       45.928       30.065     2620.845     2109.391      903.887        0.970        0.282      116.509       31.543        0.073      336.087        7.152      859.209
03/25/2014  05:17:00      -62.046      -33.019      -16.586       65.988       63.911       32.632     4354.445     4084.666     1064.824        0.736        0.475       70.285       18.886        0.072      336.120        7.207      859.279
03/25/2014  05:18:00      -40.682       16.485      -24.265       43.221       40.592       22.899     1868.049     1647.727      524.356        0.328        0.202       43.895       20.999        0.229      336.306        7.518      859.301
03/25/2014  05:19:00     -155.413        9.560      -19.622       35.004       28.617       25.574     1225.285      818.904      654.045        1.366        0.135      155.707       21.302        0.019      336.040        7.074      859.262
03/25/2014  05:20:00     -151.791        3.243      -17.410       36.807       27.163       21.642     1354.736      737.828      468.396        1.296        0.128      151.826       20.837        0.019      335.939        6.906      859.249
03/25/2014  05:21:00     -111.971       11.591       -6.008       44.509       36.391       27.198     1981.012     1324.307      739.752        0.838        0.202      112.569       24.973        0.049      335.985        6.982      859.245
03/25/2014  05:22:00      -59.383       -2.996       -2.665       53.576       38.612       20.918     2870.343     1490.890      437.552        0.417        0.240       59.458       17.290        0.085      336.108        7.187      859.259
03/25/2014  05:23:00      -74.723      -17.606      -12.257       43.668       38.985       15.313     1906.902     1519.818      234.486        0.485        0.183       76.769       13.877        0.033      336.123        7.214      859.300
03/25/2014  05:24:00      -46.467       28.051      -11.964       25.834       50.881       18.982      667.398     2588.919      360.324        0.335        0.181       54.278       18.066        0.111      336.050        7.091      859.246
03/25/2014  05:25:00       36.109       58.317      -16.203       36.977       24.711       20.522     1367.332      610.646      421.146        0.368        0.120       68.591        7.811        0.013      335.970        6.958      859.157
03/25/2014  05:26:00       10.165       75.874      -14.004       18.778       30.374        9.842      352.631      922.590       96.855        0.371        0.069       76.552        9.968        0.017      336.014        7.033      859.160
03/25/2014  05:27:00     -118.291      -11.317       -9.727       51.836       50.649       23.296     2686.932     2565.310      542.705        1.000        0.290      118.831       20.576        0.030      335.755        6.599      859.164
03/25/2014  05:28:00     -159.709      -15.937       -7.054       54.500       55.468       31.331     2970.265     3076.730      981.602        1.642        0.351      160.502       29.519        0.034      335.636        6.402      859.205
03/25/2014  05:29:00      -74.722       -9.836        1.802       63.167       44.148       20.668     3990.110     1949.074      427.151        0.602        0.318       75.367       20.739        0.076      335.616        6.369      859.202
03/25/2014  05:30:00      -92.681        2.179      -13.722       25.918       24.774       20.643      671.733      613.764      426.120        0.525        0.086       92.706       14.928        0.026      335.866        6.785      859.155
03/25/2014  05:31:00       -9.035      -22.006       -1.222       27.063       37.045       20.530      732.401     1372.299      421.463        0.155        0.126       23.789       13.674        0.330      336.160        7.275      859.151
03/25/2014  05:32:00       93.051     -102.580       -4.486       95.597      133.138       79.201     9138.874    17725.745     6272.799        2.616        1.657      138.496       89.872        0.421      336.095        7.164      859.184
03/25/2014  05:33:00       17.799     -100.183      -13.152       98.713       89.989       33.015     9744.236     8097.998     1090.005        1.473        0.947      101.751       41.774        0.169      336.313        7.528      859.213
03/25/2014  05:34:00       -1.384       28.829       48.185       41.049       40.946       47.556     1685.052     1676.537     2261.556        0.439        0.281       28.862       37.435        1.682      336.229        7.389      859.206
03/25/2014  05:35:00       33.572        2.352       69.361       56.339       95.576       77.931     3174.028     9134.775     6073.260        1.216        0.919       33.655       82.203        5.966      336.140        7.242      859.162
03/25/2014  05:36:00        0.070       51.855      -11.030       21.298       66.163       20.345      453.601     4377.583      413.907        0.403        0.262       51.855       18.048        0.121      336.289        7.491      859.073
03/25/2014  05:37:00       40.315       41.585       49.989       41.601       32.822       42.086     1730.617     1077.303     1771.222        0.522        0.229       57.919       24.438        0.178      336.148        7.256      859.045
03/25/2014  05:38:00       -5.707       12.998       33.006       27.842       56.993       47.557      775.181     3248.243     2261.652        0.379        0.314       14.195       48.009       11.438      336.008        7.022      859.049
03/25/2014  05:39:00       12.073      -48.378      -17.780       23.088       18.059       16.962      533.045      326.117      287.725        0.197        0.057       49.862       14.670        0.087      336.309        7.524      859.083
03/25/2014  05:40:00       -6.968       41.647        2.657       19.140       18.543       15.954      366.352      343.851      254.539        0.138        0.048       42.226       12.263        0.084      336.401        7.678      859.078
03/25/2014  05:41:00       60.028       33.779        5.461       28.677       21.369       17.873      822.350      456.651      319.452        0.319        0.080       68.879        6.220        0.008      336.904        8.518      859.034
03/25/2014  05:42:00       79.946       61.013        3.723       22.958       23.175       19.301      527.091      537.063      372.522        0.578        0.072      100.568        7.399        0.005      337.072        8.799      859.002
03/25/2014  05:43:00       42.887       13.067        5.939       31.762       29.150       17.515     1008.852      849.711      306.775        0.210        0.108       44.833       21.747        0.235      336.925        8.552      859.012
03/25/2014  05:44:00        5.297       10.110       48.149       20.316       48.942       36.279      412.745     2395.347     1316.171        0.329        0.206       11.413       34.613        9.197      336.588        7.991      859.018
03/25/2014  05:45:00      -17.005       74.003      109.420       25.103       55.929       28.613      630.148     3128.029      818.726        1.116        0.229       75.931       30.802        0.165      336.339        7.573      858.986
03/25/2014  05:46:00        7.357       71.828       95.198       24.484       33.613       17.375      599.460     1129.867      301.890        0.815        0.102       72.204       18.405        0.065      336.429        7.725      858.983
03/25/2014  05:47:00       45.553       57.634       55.591       39.438       28.368       36.280     1555.360      804.769     1316.246        0.608        0.184       73.462       28.125        0.147      336.217        7.371      858.994
03/25/2014  05:48:00       95.953      110.783       91.135       46.254       35.445       33.764     2139.422     1256.356     1140.024        1.716        0.227      146.560       16.990        0.013      336.492        7.830      858.972
03/25/2014  05:49:00      109.467      115.331       95.965       81.187       68.995       67.999     6591.382     4760.270     4623.814        2.523        0.799      159.010       68.531        0.186      336.716        8.203      858.912
03/25/2014  05:50:00      151.968      100.418       23.749       55.490       54.349       47.197     3079.124     2953.823     2227.580        2.100        0.413      182.148       35.226        0.037      336.961        8.610      858.877
03/25/2014  05:51:00       52.732       -5.203       27.483       59.336       41.524       36.174     3520.819     1724.201     1308.537        0.506        0.328       52.988       32.914        0.386      336.692        8.165      858.877
03/25/2014  05:52:00       34.886       88.021      112.903       63.697       73.418       50.737     4057.268     5390.156     2574.276        1.686        0.601       94.682       51.834        0.300      336.581        7.980      858.896
03/25/2014  05:53:00       61.592       19.959       64.925       63.732       53.314       41.094     4061.791     2842.363     1688.733        0.850        0.430       64.745       38.554        0.355      336.578        7.974      858.931
03/25/2014  05:54:00       44.507       40.814       27.225       33.243       37.412       33.357     1105.118     1399.635     1112.656        0.400        0.181       60.388       29.358        0.236      336.534        7.900      858.910
03/25/2014  05:55:00       70.824       36.321       21.431       48.115       27.349       25.011     2315.087      747.943      625.537        0.524        0.184       79.595       10.701        0.018      336.426        7.719      858.883
03/25/2014  05:56:00        9.110       -0.373        8.848       20.562       26.464       17.052      422.793      700.349      290.761        0.079        0.071        9.118       17.079        3.509      336.363        7.614      858.950
03/25/2014  05:57:00      -13.805      -19.921        7.340       24.957       21.017       16.863      622.851      441.700      284.369        0.099        0.067       24.237        7.100        0.086      336.420        7.709      859.002
03/25/2014  05:58:00     -119.953       10.370       -8.169       42.517       36.881       24.322     1807.706     1360.194      591.581        0.916        0.188      120.401       20.470        0.029      336.179        7.307      858.967
03/25/2014  05:59:00     -199.168       57.583      -20.736       48.516       38.922       28.052     2353.799     1514.887      786.926        2.403        0.233      207.325       17.807        0.007      336.028        7.053      858.834
03/25/2014  06:00:00     -120.713       33.312      -15.821       68.054       44.729       29.803     4631.302     2000.711      888.224        1.172        0.376      125.225       25.518        0.042      335.884        6.814      858.758
03/25/2014  06:01:00      -81.687      -48.614       -8.413       49.693       41.860       28.499     2469.372     1752.242      812.196        0.707        0.252       95.058       27.481        0.084      335.939        6.906      858.813
03/25/2014  06:02:00     -102.603      -50.795       -8.561       45.325       36.528       23.866     2054.340     1334.258      569.569        0.857        0.198      114.488       13.235        0.013      336.125        7.217      858.898
03/25/2014  06:03:00      -42.289      -18.560       -7.663       29.943       24.232       14.336      896.591      587.191      205.525        0.194        0.084       46.183       11.248        0.059      336.345        7.584      858.915
03/25/2014  06:04:00       60.545       47.892       21.094       26.857       27.471       31.983      721.322      754.671     1022.881        0.445        0.125       77.197       26.147        0.115      336.312        7.529      858.868
03/25/2014  06:05:00      126.344      103.521       38.035       46.998       34.578       48.273     2208.799     1195.671     2330.239        1.693        0.287      163.339       34.481        0.045      336.416        7.703      858.813
03/25/2014  06:06:00      170.679       95.638       29.550       56.239       48.291       52.378     3162.812     2331.994     2743.493        2.369        0.412      195.647       32.679        0.028      336.946        8.586      858.721
03/25/2014  06:07:00      118.081       52.027       11.050      100.687       63.530       39.087    10137.931     4036.092     1527.790        1.623        0.785      129.034       32.696        0.064      336.652        8.097      858.725
03/25/2014  06:08:00      -11.044      -38.498       -7.217       16.684       24.515       15.376      278.355      601.006      236.417        0.139        0.056       40.051        7.935        0.039      336.477        7.806      858.791
03/25/2014  06:09:00      -91.830       16.182      -16.995       55.010       27.340       13.845     3026.144      747.501      191.684        0.647        0.198       93.245       12.511        0.018      336.403        7.682      858.813
03/25/2014  06:10:00     -223.087       12.797      -20.255       68.399       47.945       37.177     4678.424     2298.762     1382.129        2.935        0.418      223.454       36.508        0.027      336.112        7.192      858.836
03/25/2014  06:11:00     -229.043       -1.453      -35.315       52.080       42.624       28.469     2712.318     1816.792      810.510        2.952        0.267      229.048       17.832        0.006      335.959        6.935      858.811
03/25/2014  06:12:00     -127.491        8.722      -15.093       34.013       45.989       25.098     1156.871     2115.033      629.910        1.023        0.195      127.789       18.821        0.022      335.875        6.800      858.782
03/25/2014  06:13:00      -65.352       94.660      -15.945       50.036       51.716       28.046     2503.642     2674.574      786.562        0.972        0.298      115.028       20.250        0.031      336.211        7.359      858.745
03/25/2014  06:14:00       20.632      103.298       -8.738       34.350       55.392       26.461     1179.942     3068.291      700.168        0.806        0.247      105.338       26.904        0.065      336.240        7.409      858.704
03/25/2014  06:15:00       55.407       22.554       13.257       45.602       21.929       24.565     2079.521      480.875      603.435        0.346        0.158       59.822       14.097        0.056      336.486        7.821      858.723
03/25/2014  06:16:00       30.015       30.747       14.377       24.314       25.963       26.909      591.165      674.080      724.106        0.202        0.099       42.968       23.482        0.299      336.324        7.548      858.758
03/25/2014  06:17:00        2.244       21.794        2.116       30.091       25.949       15.063      905.451      673.333      226.886        0.114        0.090       21.909       15.755        0.517      336.302        7.512      858.725
03/25/2014  06:18:00       40.876       25.298       -0.298       28.586       20.773       11.524      817.153      431.519      132.797        0.185        0.069       48.072       12.103        0.063      336.211        7.359      858.696
03/25/2014  06:19:00       65.003       46.309       14.779       19.796       16.419       14.259      391.875      269.571      203.324        0.373        0.043       79.812       12.406        0.024      336.264        7.448      858.682
03/25/2014  06:20:00       41.415       29.519        2.607       16.141       19.736       13.805      260.521      389.499      190.588        0.172        0.042       50.858        9.835        0.037      336.138        7.239      858.665
03/25/2014  06:21:00       30.547       28.116        1.702       46.026       23.639       14.929     2118.420      558.807      222.867        0.231        0.145       41.517        7.515        0.033      336.073        7.128      858.659
03/25/2014  06:22:00      -28.612       33.943      -14.546       40.562       39.103       11.431     1645.259     1529.040      130.658        0.274        0.165       44.393        9.542        0.046      336.124        7.215      858.658
03/25/2014  06:23:00      -56.424      -25.420      -12.379       17.437       16.475       10.786      304.039      271.434      116.345        0.234        0.035       61.886        7.920        0.016      336.223        7.380      858.696
03/25/2014  06:24:00     -128.017      -65.156      -14.215       19.502       27.444       12.372      380.342      753.182      153.074        1.106        0.064      143.644        7.315        0.003      336.224        7.384      858.739
03/25/2014  06:25:00      -37.693      116.467      -17.400       39.595       85.717       13.913     1567.788     7347.341      193.580        1.220        0.455      122.414       22.369        0.033      336.682        8.148      858.653
03/25/2014  06:26:00       20.203      167.581      -17.263       32.728       63.397       26.661     1071.153     4019.124      710.804        1.729        0.290      168.794       32.635        0.037      336.833        8.399      858.590
03/25/2014  06:27:00        8.176       -7.758       -3.296       42.436       39.267       28.870     1800.831     1541.873      833.474        0.216        0.209       11.272       25.010        4.923      336.458        7.774      858.636
03/25/2014  06:28:00      -73.331       -4.971        3.082       57.398       35.402       20.231     3294.523     1253.271      409.303        0.518        0.248       73.499       23.215        0.100      336.200        7.341      858.662
03/25/2014  06:29:00     -116.057       11.721       -9.460       35.555       40.227       26.715     1264.135     1618.233      713.696        0.865        0.180      116.648       19.436        0.028      336.269        7.458      858.669
03/25/2014  06:30:00     -135.878      -35.085      -15.950       32.190       41.316       20.094     1036.182     1707.016      403.767        1.155        0.157      140.334       10.369        0.005      336.242        7.412      858.677
03/25/2014  06:31:00     -121.880      -73.340       -6.570       30.761       33.449       18.419      946.219     1118.810      339.242        1.134        0.120      142.244       14.697        0.011      336.138        7.238      858.685
03/25/2014  06:32:00     -108.211      -25.708      -15.749       30.456       31.404       18.671      927.571      986.236      348.617        0.744        0.113      111.223        9.499        0.007      336.170        7.293      858.667
03/25/2014  06:33:00      -63.466      112.838      -21.828       40.864       42.522       16.135     1669.846     1808.110      260.323        1.049        0.187      129.462       13.200        0.010      337.400        9.348      858.587
03/25/2014  06:34:00       -4.349      194.391      -26.903       18.488       37.884       17.977      341.818     1435.171      323.179        2.031        0.105      194.440       11.915        0.004      337.637        9.744      858.484
03/25/2014  06:35:00       41.366       31.344      -14.824       34.217      111.848       28.357     1170.805    12509.906      804.136        0.870        0.724       51.899       16.059        0.096      336.993        8.670      858.450
03/25/2014  06:36:00       32.150     -106.144       -8.502       36.681       26.236       21.358     1345.475      688.306      456.152        0.743        0.124      110.907       18.887        0.029      336.971        8.632      858.488
03/25/2014  06:37:00       -4.194      -62.486       -2.059       25.504       25.254       14.037      650.433      637.789      197.041        0.271        0.074       62.627       10.774        0.030      337.302        9.184      858.496
03/25/2014  06:38:00      -68.067        8.619       -8.482       11.236       14.532        8.923      126.247      211.180       79.626        0.260        0.021       68.611        4.709        0.005      336.801        8.346      858.492
03/25/2014  06:39:00      -75.214        9.742      -10.502       13.684        8.337        4.768      187.260       69.513       22.734        0.307        0.014       75.842        2.628        0.001      337.092        8.833      858.470
03/25/2014  06:40:00     -101.210      -19.670      -12.556       20.046       19.957       13.857      401.855      398.292      192.005        0.589        0.050      103.103       10.668        0.011      336.954        8.601      858.440
03/25/2014  06:41:00      -63.603      -52.802        8.045       43.683       28.845       20.958     1908.166      832.048      439.250        0.504        0.159       82.664       21.187        0.066      336.712        8.199      858.471
03/25/2014  06:42:00      -59.895      -35.710       -1.234       21.391       19.968       10.005      457.574      398.741      100.102        0.291        0.048       69.733        8.465        0.015      336.904        8.519      858.490
03/25/2014  06:43:00      -84.541        1.240       -9.282       12.980       10.901        7.709      168.478      118.825       59.425        0.379        0.017       84.550        5.672        0.004      337.004        8.684      858.439
03/25/2014  06:44:00      -88.802       39.441       -4.504       31.770       20.627       21.413     1009.330      425.467      458.525        0.568        0.095       97.167       14.452        0.022      336.953        8.601      858.390
03/25/2014  06:45:00     -106.393       56.581      -16.922       42.979       33.034       28.713     1847.179     1091.224      824.422        0.928        0.188      120.503       20.978        0.030      337.558        9.613      858.371
03/25/2014  06:46:00      -92.497       22.549       -7.555       35.088       26.364       21.292     1231.169      695.086      453.350        0.575        0.119       95.206       16.451        0.030      337.198        9.010      858.400
03/25/2014  06:47:00      -20.575      -22.419        0.693       30.973       20.916       15.262      959.347      437.467      232.923        0.128        0.081       30.430       10.532        0.120      336.649        8.094      858.426
03/25/2014  06:48:00      -42.598      -22.769       -6.444       22.218       25.375       24.715      493.634      643.907      610.852        0.206        0.087       48.301       10.213        0.045      336.626        8.056      858.418
03/25/2014  06:49:00      -60.486       -0.635      -15.177       18.224       26.723       14.966      332.109      714.109      223.981        0.258        0.064       60.489       11.457        0.036      336.684        8.153      858.398
03/25/2014  06:50:00      -28.106       39.114       -9.997       23.734       16.091        7.257      563.321      258.911       52.668        0.165        0.044       48.165        6.607        0.019      337.677        9.815      858.379
03/25/2014  06:51:00       -3.743       67.390       -7.071       11.258       30.014       13.623      126.733      900.866      185.576        0.291        0.061       67.494        9.199        0.019      338.003       10.359      858.322
03/25/2014  06:52:00       -4.259       88.232       -6.343       20.483       18.296        6.931      419.546      334.759       48.038        0.432        0.040       88.334        3.743        0.002      338.168       10.638      858.298
03/25/2014  06:53:00        9.400       30.735       -1.886       13.117       37.773        9.580      172.047     1426.798       91.771        0.136        0.085       32.141        9.229        0.082      337.816       10.046      858.309
03/25/2014  06:54:00       48.766       32.030       17.935       20.949       20.778       25.416      438.878      431.743      645.956        0.262        0.076       58.344       14.005        0.058      336.879        8.477      858.293
03/25/2014  06:55:00      100.186       61.412       11.062       29.034       29.811       20.986      842.971      888.690      440.426        0.805        0.109      117.510       12.548        0.011      336.755        8.271      858.252
03/25/2014  06:56:00       70.593       46.933       18.830       23.142       16.667       19.405      535.554      277.778      376.566        0.437        0.059       84.770        7.682        0.008      336.838        8.408      858.240
03/25/2014  06:57:00       15.147       12.159        4.666       16.847       11.365       14.871      283.815      129.167      221.153        0.052        0.032       19.424       10.598        0.298      336.886        8.489      858.254
03/25/2014  06:58:00      -14.750       10.694       -1.189       10.493        8.678        6.730      110.107       75.304       45.298        0.028        0.012       18.219        3.516        0.037      337.422        9.385      858.266
03/25/2014  06:59:00      -36.669       -7.176       -1.337       13.142        8.809        8.241      172.713       77.606       67.919        0.086        0.016       37.364        6.715        0.032      337.115        8.871      858.273
03/25/2014  07:00:00      -11.897        4.125        2.649        9.997        8.959        7.255       99.937       80.258       52.640        0.020        0.012       12.592        2.729        0.047      337.633        9.737      858.259
03/25/2014  07:01:00        5.318       41.753      -12.480       13.525       18.953        8.203      182.927      359.209       67.286        0.127        0.030       42.090        7.294        0.030      338.017       10.383      858.268
03/25/2014  07:02:00       11.584       71.600       -9.791        9.739       13.338        5.766       94.854      177.902       33.247        0.283        0.015       72.531        5.639        0.006      338.217       10.717      858.251
03/25/2014  07:03:00       16.343       41.404       -0.798       12.654       41.113       15.411      160.119     1690.305      237.509        0.203        0.104       44.513       18.070        0.165      337.999       10.353      858.237
03/25/2014  07:04:00       63.426       32.391       12.616       30.701       22.878       18.577      942.537      523.380      345.089        0.352        0.091       71.218        4.934        0.005      337.617        9.712      858.226
03/25/2014  07:05:00       76.819       52.876       -0.681       27.850       25.090       17.023      775.623      629.518      289.783        0.520        0.085       93.258       14.884        0.025      337.347        9.260      858.225
03/25/2014  07:06:00       38.298       48.453        1.153       28.009       28.805       21.514      784.511      829.745      462.869        0.295        0.104       61.761       18.306        0.088      337.534        9.574      858.226
03/25/2014  07:07:00       22.284      133.827      -23.705       20.862       29.288       11.227      435.226      857.761      126.045        1.019        0.071      135.670       10.982        0.007      338.379       10.991      858.181
03/25/2014  07:08:00       33.282      176.060      -36.175       28.458       27.937       18.166      809.831      780.486      330.003        1.767        0.096      179.178       13.726        0.006      338.545       11.269      858.115
03/25/2014  07:09:00       39.181      153.505      -22.459       25.958       50.793       22.651      673.804     2579.929      513.053        1.468        0.188      158.427       24.984        0.025      338.378       10.990      858.127
03/25/2014  07:10:00       31.078       40.744       10.981       33.312       28.421       25.443     1109.718      807.751      647.331        0.266        0.128       51.243       21.141        0.170      338.121       10.558      858.177
03/25/2014  07:11:00       11.888       21.226       20.463       36.912       20.928       29.590     1362.462      437.989      875.562        0.184        0.134       24.328       26.351        1.173      337.360        9.282      858.172
03/25/2014  07:12:00       21.334       55.941       74.659       28.884       56.453       37.039      834.303     3186.981     1371.875        0.727        0.270       59.871       32.001        0.286      337.144        8.921      858.113
03/25/2014  07:13:00       98.522       75.377       38.890       42.979       23.746       29.625     1847.235      563.871      877.631        1.009        0.164      124.050       17.175        0.019      337.471        9.468      858.053
03/25/2014  07:14:00       10.652       19.650       43.252       27.992       26.347       23.030      783.525      694.147      530.393        0.219        0.100       22.352       11.107        0.247      337.343        9.251      858.061
03/25/2014  07:15:00      -14.778      -44.037       -8.041       44.429       27.459       17.080     1973.930      754.013      291.735        0.262        0.151       46.451       14.787        0.101      337.256        9.107      858.097
03/25/2014  07:16:00     -110.261      -70.016       -8.703       37.823       30.178       21.414     1430.542      910.721      458.554        0.997        0.140      130.613       16.987        0.017      336.633        8.066      858.118
03/25/2014  07:17:00     -159.600      -76.036      -19.581       29.465       24.107       17.792      868.175      581.144      316.549        1.670        0.088      176.787        9.038        0.003      336.710        8.195      858.126
03/25/2014  07:18:00     -101.528      -45.960       -8.194       35.339       23.379       18.390     1248.833      546.564      338.205        0.731        0.107      111.446       15.412        0.019      336.700        8.178      858.160
03/25/2014  07:19:00     -119.701      -33.964       -2.816       20.237       24.484       15.762      409.549      599.450      248.444        0.837        0.063      124.426        8.700        0.005      336.652        8.098      858.180
03/25/2014  07:20:00     -121.977      -37.280       -6.269       43.664       36.069       24.957     1906.577     1300.974      622.835        1.007        0.192      127.547       21.025        0.027      336.591        7.998      858.186
03/25/2014  07:21:00     -152.116     -117.608       -2.202       49.848       46.613       34.113     2484.867     2172.779     1163.686        2.140        0.291      192.278       28.387        0.022      336.741        8.245      858.179
03/25/2014  07:22:00     -156.183      -67.341        8.647       47.011       34.711       28.190     2210.065     1204.851      794.665        1.661        0.210      170.082       28.097        0.027      336.958        8.607      858.202
03/25/2014  07:23:00     -101.260      -57.518       -1.748       50.830       25.401       18.556     2583.720      645.193      344.336        0.857        0.179      116.455       11.682        0.010      336.990        8.662      858.222
03/25/2014  07:24:00     -137.606     -145.308       -1.234      111.179      100.666       43.840    12360.660    10133.726     1921.946        3.223        1.221      200.124       58.848        0.086      336.927        8.554      858.244
03/25/2014  07:25:00     -164.504     -140.611        0.377       89.488       72.257       43.918     8008.146     5221.110     1928.793        3.099        0.758      216.409       43.740        0.041      336.835        8.400      858.245
03/25/2014  07:26:00     -182.236     -109.291       -1.455       67.309       59.830       34.150     4530.493     3579.676     1166.202        2.721        0.464      212.495       27.473        0.017      336.935        8.567      858.248
03/25/2014  07:27:00     -125.960      -66.673       -4.244       57.490       43.308       28.835     3305.108     1875.553      831.461        1.317        0.301      142.518       29.621        0.043      337.040        8.744      858.250
03/25/2014  07:28:00      -99.745      -52.619      -15.545       44.551       26.714       22.432     1984.757      713.631      503.188        0.808        0.160      112.774       13.505        0.014      337.128        8.894      858.196
03/25/2014  07:29:00      -83.243        9.022       -9.593       37.978       38.213       15.647     1442.317     1460.262      244.825        0.512        0.157       83.730       19.989        0.057      337.087        8.825      858.133
03/25/2014  07:30:00     -133.154       12.030      -10.315       42.804       25.989       23.534     1832.189      675.427      553.863        1.052        0.153      133.696       25.799        0.037      337.097        8.841      858.097
03/25/2014  07:31:00     -117.663      -13.130       -5.994       43.447       29.228       20.285     1887.650      854.257      411.467        0.860        0.158      118.393       21.884        0.034      337.022        8.715      858.111
03/25/2014  07:32:00     -102.777      -26.335      -10.200       19.347       22.628       14.678      374.288      512.010      215.440        0.623        0.055      106.097        8.407        0.006      337.082        8.815      858.130
03/25/2014  07:33:00      -35.504      -44.027       -5.361       36.719       15.808       10.747     1348.294      249.907      115.505        0.247        0.086       56.559        9.326        0.027      337.234        9.069      858.105
03/25/2014  07:34:00       10.599        5.985        6.392       16.572       31.800       12.606      274.616     1011.266      158.911        0.082        0.072       12.172       12.254        1.013      337.687        9.828      858.104
03/25/2014  07:35:00       83.222       57.711       17.391       25.623       21.061       26.897      656.554      443.585      723.447        0.619        0.091      101.274       24.393        0.058      338.263       10.797      858.079
03/25/2014  07:36:00       11.559       37.326        7.920       18.001       18.508       15.620      324.019      342.552      243.969        0.125        0.046       39.075       11.291        0.084      338.274       10.815      858.035
03/25/2014  07:37:00       18.677       58.379      -11.372       15.643       25.850       12.499      244.717      668.210      156.232        0.248        0.053       61.294       10.743        0.031      337.966       10.297      858.078
03/25/2014  07:38:00       42.005       39.382        1.853       20.909       21.873       18.009      437.188      478.406      324.337        0.228        0.062       57.580       15.179        0.069      338.183       10.661      858.111
03/25/2014  07:39:00       79.696       41.137        9.822       21.631       16.110       17.501      467.889      259.541      306.282        0.459        0.052       89.686       12.541        0.020      338.144       10.596      858.084
03/25/2014  07:40:00      100.791       32.086       16.139       30.252       19.016       28.626      915.178      361.607      819.476        0.677        0.105      105.775       12.614        0.014      337.872       10.139      858.002
03/25/2014  07:41:00       99.894       58.530       23.658       56.127       28.293       35.586     3150.224      800.470     1266.339        0.959        0.261      115.778       36.260        0.098      337.866       10.129      857.996
03/25/2014  07:42:00       18.801       36.933       45.117       21.926       20.825       12.842      480.730      433.699      164.905        0.242        0.054       41.443        7.001        0.029      338.012       10.374      858.014
03/25/2014  07:43:00       -9.637      -53.824        2.558       36.838       68.379       42.776     1357.062     4675.718     1829.746        0.543        0.393       54.680       50.389        0.849      338.141       10.592      857.986
03/25/2014  07:44:00       53.732     -102.090       -9.176       64.837       68.678       40.659     4203.806     4716.668     1653.135        1.198        0.529      115.367       24.436        0.045      337.852       10.107      857.973
03/25/2014  07:45:00      -15.994      -20.529       -3.289       32.650       28.679       34.827     1066.032      822.494     1212.929        0.189        0.155       26.025       23.315        0.803      337.938       10.250      857.925
03/25/2014  07:46:00     -150.988      -63.345       -8.297       53.768       41.102       16.595     2890.999     1689.399      275.406        1.587        0.243      163.737       15.574        0.009      337.632        9.738      857.865
03/25/2014  07:47:00     -122.917      -63.397        5.229       41.954       40.511       26.313     1760.101     1641.118      692.369        1.162        0.205      138.303       22.235        0.026      337.666        9.796      857.864
03/25/2014  07:48:00      -11.216       -0.336       14.539       49.107       30.398       29.801     2411.498      924.026      888.119        0.228        0.211       11.221       24.482        4.760      338.004       10.361      857.876
03/25/2014  07:49:00      -60.552      -25.073        4.365       38.854       27.808       16.741     1509.641      773.305      280.270        0.344        0.128       65.537       15.387        0.055      337.863       10.125      857.912
03/25/2014  07:50:00       25.961      -13.745        3.724       22.451       21.203       16.380      504.039      449.584      268.316        0.105        0.061       29.375       10.684        0.132      338.080       10.489      857.945
03/25/2014  07:51:00       41.179       73.880       46.662       29.035       28.073       25.563      843.038      788.070      653.445        0.581        0.114       84.581       11.359        0.018      338.045       10.429      857.942
03/25/2014  07:52:00       85.210       42.822        7.265       22.999       34.693       25.194      528.946     1203.596      634.745        0.576        0.118       95.365       14.778        0.024      337.938       10.251      857.869
03/25/2014  07:53:00      146.293       51.398        6.264       56.011       46.941       37.229     3137.287     2203.465     1385.990        1.540        0.336      155.059       22.197        0.020      338.093       10.509      857.805
03/25/2014  07:54:00      103.076      103.698       55.291       69.063       45.505       57.233     4769.655     2070.727     3275.659        1.727        0.506      146.212       50.011        0.117      338.162       10.625      857.764
03/25/2014  07:55:00      133.594       40.536       41.141       88.805       68.979       57.483     7886.279     4758.039     3304.293        1.856        0.797      139.609       38.438        0.076      338.003       10.357      857.769
03/25/2014  07:56:00      129.155       96.696        8.732       58.125       40.597       35.161     3378.506     1648.113     1236.295        1.618        0.313      161.342       17.925        0.012      338.049       10.435      857.742
03/25/2014  07:57:00       66.337       57.990       15.391       55.670       45.096       31.756     3099.116     2033.672     1008.466        0.707        0.307       88.110       17.545        0.040      338.188       10.669      857.718
03/25/2014  07:58:00      -51.479       46.989      -14.153       48.458       39.278       21.849     2348.161     1542.725      477.376        0.471        0.218       69.700       22.162        0.101      338.185       10.664      857.773
03/25/2014  07:59:00      -78.646       26.590      -18.359       25.007       34.427       15.938      625.340     1185.233      254.021        0.465        0.103       83.020        9.119        0.012      338.178       10.653      857.846
03/25/2014  08:00:00      -44.410      -28.891       -9.915       40.308       29.419       17.115     1624.738      865.495      292.930        0.284        0.139       52.980       16.719        0.100      338.216       10.718      857.878
03/25/2014  08:01:00       38.782       93.409       80.792       56.884       53.321       54.069     3235.832     2843.088     2923.411        1.288        0.450      101.140       50.776        0.252      338.410       11.043      857.780
03/25/2014  08:02:00       96.766      154.745      127.298       79.680       62.247       56.536     6348.913     3874.642     3196.340        3.146        0.671      182.510       37.829        0.043      338.259       10.784      857.684
03/25/2014  08:03:00       95.533      150.777      138.475       77.343       56.387       44.060     5982.014     3179.453     1941.266        3.107        0.555      178.494       32.070        0.032      338.173       10.641      857.617
03/25/2014  08:04:00       94.784       87.567       81.595       73.369       69.176       59.102     5382.956     4785.335     3493.073        1.848        0.683      129.043       48.454        0.141      338.115       10.546      857.620
03/25/2014  08:05:00       72.788        6.074       26.383       54.167       60.373       40.666     2934.038     3644.936     1653.688        0.713        0.412       73.041       37.650        0.266      338.179       10.654      857.714
03/25/2014  08:06:00      107.290       36.526       39.734       77.490       45.876       43.777     6004.677     2104.615     1916.404        1.222        0.501      113.337       49.379        0.190      338.137       10.583      857.749
03/25/2014  08:07:00      106.149       63.075       26.656       69.578       52.295       56.625     4841.100     2734.736     3206.400        1.337        0.539      123.475       42.736        0.120      338.012       10.374      857.653
03/25/2014  08:08:00       45.675       17.107        9.879       31.295       34.311       26.387      979.407     1177.262      696.257        0.266        0.143       48.773       19.491        0.160      338.102       10.526      857.630
03/25/2014  08:09:00       53.465       44.398       40.953       42.006       40.208       29.945     1764.465     1616.670      896.698        0.539        0.214       69.496       24.330        0.123      338.163       10.628      857.667
03/25/2014  08:10:00       60.830       49.751       16.555       41.222       31.538       31.583     1699.277      994.668      997.515        0.507        0.185       78.584       17.128        0.048      338.086       10.500      857.660
03/25/2014  08:11:00       45.002       67.416        5.395       51.299       34.244       24.816     2631.599     1172.653      615.853        0.551        0.221       81.056       16.207        0.040      337.999       10.351      857.671
03/25/2014  08:12:00     -150.071      -31.480      -19.647       57.697       41.090       25.909     3328.951     1688.357      671.294        1.479        0.284      153.337       17.997        0.014      338.049       10.435      857.705
03/25/2014  08:13:00     -147.835      -79.954        3.783       80.023       51.324       33.952     6403.743     2634.171     1152.767        1.922        0.510      168.071       39.006        0.054      338.107       10.533      857.756
03/25/2014  08:14:00     -233.925      -17.423       -4.102       74.971       55.862       29.322     5620.655     3120.520      859.766        3.232        0.480      234.573       32.436        0.019      338.069       10.468      857.749
03/25/2014  08:15:00      -97.493       27.470      -11.529       45.442       47.079       26.047     2064.933     2216.437      678.463        0.768        0.248      101.289       18.124        0.032      338.095       10.514      857.653
03/25/2014  08:16:00      -43.412      -15.097       -5.936       14.765       11.305       11.362      218.002      127.809      129.100        0.131        0.024       45.962        6.415        0.019      338.131       10.575      857.626
03/25/2014  08:17:00      -47.220       -0.493       -7.951       14.449       16.575        7.484      208.785      274.745       56.018        0.142        0.027       47.222        6.217        0.017      338.135       10.580      857.656
03/25/2014  08:18:00       -8.353       24.474      -23.473       25.247       14.296       12.004      637.435      204.385      144.098        0.110        0.049       25.860       10.808        0.175      338.222       10.726      857.667
03/25/2014  08:19:00      110.116      109.892       -3.312       97.018       56.096       37.742     9412.512     3146.814     1424.459        1.910        0.699      155.569       45.905        0.087      338.263       10.795      857.683
03/25/2014  08:20:00      258.536      184.453       61.947       87.444       67.235       67.569     7646.464     4520.577     4565.563        6.071        0.837      317.591       29.838        0.009      338.380       10.988      857.618
03/25/2014  08:21:00       71.165       96.219       94.925       76.156       59.689       50.602     5799.710     3562.802     2560.554        1.763        0.596      119.677       42.924        0.129      338.349       10.940      857.593
03/25/2014  08:22:00       34.438       -4.130        3.642       32.636       39.045       25.830     1065.083     1524.476      667.181        0.224        0.163       34.685       18.275        0.278      338.312       10.877      857.583
03/25/2014  08:23:00      -18.444       16.241        4.741       24.506       19.579       17.919      600.550      383.337      321.106        0.097        0.065       24.576       17.699        0.519      338.326       10.901      857.542
03/25/2014  08:24:00      -28.879       -8.028        1.958       19.976       17.742       12.454      399.023      314.790      155.105        0.089        0.043       29.974        7.782        0.067      338.349       10.940      857.489
03/25/2014  08:25:00      -58.800       -8.954       -1.538       28.219       14.877       14.560      796.323      221.322      212.001        0.238        0.061       59.478       14.969        0.063      338.320       10.893      857.474
03/25/2014  08:26:00      -81.715      -22.698      -12.514       18.076       13.357        8.538      326.752      178.421       72.899        0.396        0.029       84.809        7.544        0.008      338.323       10.895      857.441
03/25/2014  08:27:00      -34.390      -33.634        2.884       43.499       21.520       17.717     1892.197      463.124      313.882        0.250        0.133       48.104       20.106        0.175      338.436       11.085      857.420
03/25/2014  08:28:00      -18.057       -1.698        6.997       21.417       20.364       14.551      458.668      414.677      211.726        0.073        0.054       18.136       12.148        0.449      338.578       11.325      857.423
03/25/2014  08:29:00       34.880      -97.178       -8.911       45.246       58.896       36.037     2047.192     3468.693     1298.695        0.878        0.341      103.248       24.668        0.057      338.562       11.299      857.466
03/25/2014  08:30:00       -1.662      -29.960       -0.620       37.911       77.710       31.225     1437.277     6038.771      975.024        0.467        0.423       30.006       35.378        1.390      338.625       11.404      857.495
03/25/2014  08:31:00       72.851       62.741       19.878       18.312       19.828       22.665      335.325      393.157      513.718        0.544        0.062       96.144       10.968        0.013      338.370       10.975      857.426
03/25/2014  08:32:00       38.423        6.981        7.194       36.453       24.729       14.762     1328.830      611.504      217.915        0.187        0.108       39.052       14.421        0.136      338.472       11.145      857.398
03/25/2014  08:33:00       -5.833      -12.350       -3.391       18.220       28.466       22.887      331.979      810.319      523.817        0.093        0.083       13.658       20.890        2.339      338.565       11.302      857.435
03/25/2014  08:34:00      -72.910      -49.800       -2.591       21.049       23.968       19.184      443.045      574.463      368.038        0.459        0.069       88.295       10.204        0.013      338.520       11.225      857.389
03/25/2014  08:35:00      -18.367      -55.052       -0.020       23.797       27.268       11.163      566.287      743.539      124.613        0.240        0.072       58.035       11.706        0.041      338.566       11.304      857.392
03/25/2014  08:36:00      -13.802      -46.889       -2.711        8.270       33.546        7.219       68.397     1125.364       52.111        0.182        0.062       48.878       11.223        0.053      338.537       11.256      857.329
03/25/2014  08:37:00      -16.973        5.414        7.268        9.471       11.635       14.635       89.707      135.374      214.186        0.040        0.022       17.815        8.852        0.247      338.671       11.480      857.240
03/25/2014  08:38:00      -45.400       15.331        2.048       22.379       13.983       11.376      500.834      195.523      129.416        0.156        0.041       47.918        9.138        0.036      338.599       11.361      857.277
03/25/2014  08:39:00      -69.881      -53.879       -1.802       32.275       43.217       15.458     1041.660     1867.667      238.936        0.547        0.157       88.240        9.525        0.012      338.593       11.350      857.304
03/25/2014  08:40:00     -116.866      -60.978        1.807       49.554       46.792       24.372     2455.641     2189.521      593.992        1.131        0.262      131.818       19.105        0.021      338.538       11.258      857.322
03/25/2014  08:41:00      -90.047      -54.261        1.911       51.082       36.491       28.243     2609.365     1331.610      797.653        0.790        0.237      105.132       23.913        0.052      338.575       11.321      857.328
03/25/2014  08:42:00      -65.604      -35.033       -4.987       58.754       37.090       18.986     3452.085     1375.665      360.457        0.537        0.259       74.373       14.346        0.037      338.646       11.439      857.303
03/25/2014  08:43:00      -68.827      -36.425       -9.145       25.392       40.510       14.648      644.748     1641.051      214.572        0.432        0.125       77.872       14.517        0.035      338.488       11.174      857.261
03/25/2014  08:44:00     -172.191       29.181      -20.451       22.881       18.198       15.804      523.544      331.161      249.764        1.601        0.055      174.646       10.624        0.004      338.516       11.221      857.244
03/25/2014  08:45:00      -95.493      -11.259      -20.010       61.150       57.643       31.019     3739.272     3322.753      962.195        0.883        0.401       96.155       29.432        0.094      338.513       11.216      857.313
03/25/2014  08:46:00     -103.346       -4.675       -6.037       40.667       45.454       20.563     1653.781     2066.107      422.832        0.744        0.207      103.452       20.399        0.039      338.505       11.202      857.292
03/25/2014  08:47:00     -142.037      -18.151      -19.752       21.480       26.835       13.569      461.405      720.137      184.114        1.113        0.068      143.192       11.005        0.006      338.550       11.278      857.222
03/25/2014  08:48:00      -97.246      -25.666        6.374       55.229       47.673       31.478     3050.256     2272.750      990.839        0.823        0.316      100.576       35.236        0.123      338.627       11.406      857.279
03/25/2014  08:49:00     -152.262       11.224      -17.247       40.114       41.349       24.534     1609.121     1709.726      601.906        1.376        0.196      152.675       18.107        0.014      338.604       11.368      857.298
03/25/2014  08:50:00     -106.291       20.378       -9.898       73.169       36.125       27.855     5353.725     1304.989      775.925        0.962        0.372      108.227       37.117        0.118      338.666       11.472      857.214
03/25/2014  08:51:00       64.790       58.810       10.999       46.279       26.805       24.554     2141.786      718.528      602.913        0.562        0.173       87.500       23.934        0.075      338.714       11.553      857.095
03/25/2014  08:52:00       88.686      107.678       59.342       47.805       38.871       46.901     2285.288     1510.975     2199.674        1.449        0.300      139.499       37.261        0.071      338.790       11.680      857.014
03/25/2014  08:53:00       54.399       51.177       51.236       57.437       31.772       33.931     3299.011     1009.454     1151.289        0.683        0.273       74.688       35.719        0.229      338.857       11.793      856.953
03/25/2014  08:54:00       31.126      -29.845       31.079       40.019       58.183       39.509     1601.525     3385.277     1560.968        0.469        0.327       43.122       42.558        0.974      338.896       11.860      857.067
03/25/2014  08:55:00       44.852       34.153       39.097       46.605       42.846       28.225     2171.992     1835.819      796.667        0.475        0.240       56.375       30.176        0.287      338.867       11.810      857.090
03/25/2014  08:56:00       31.688      -14.968       10.940       37.263       47.113       26.374     1388.544     2219.624      695.572        0.283        0.215       35.046       22.183        0.401      338.905       11.873      857.096
03/25/2014  08:57:00      -24.456      -56.949       -7.207       86.804       81.598       49.122     7534.909     6658.225     2412.972        1.025        0.830       61.979       45.913        0.549      339.051       12.120      857.093
03/25/2014  08:58:00      -70.788      -44.380        3.048       61.126       28.386       21.968     3736.348      805.787      482.592        0.601        0.251       83.549        4.049        0.002      338.977       11.994      857.137
03/25/2014  08:59:00      -45.993      -56.832        2.787       28.623       31.603       16.979      819.257      998.769      288.281        0.373        0.105       73.111       14.490        0.039      338.996       12.025      857.130
03/25/2014  09:00:00      -62.823      -25.059        1.181       32.315       30.571       16.478     1044.282      934.585      271.536        0.341        0.113       67.636       13.174        0.038      339.038       12.097      857.070
03/25/2014  09:01:00      -80.173      -33.577        3.299       50.375       28.315       21.100     2537.671      801.756      445.222        0.567        0.189       86.920       17.230        0.039      339.050       12.117      857.051
03/25/2014  09:02:00      -97.124      -20.536        2.829       57.723       34.095       22.901     3331.994     1162.490      524.449        0.744        0.251       99.271       21.841        0.048      339.026       12.077      857.036
03/25/2014  09:03:00      -30.618      -27.421        9.159       38.533       21.383       17.260     1484.804      457.218      297.898        0.201        0.112       41.102       18.520        0.203      339.021       12.069      857.015
03/25/2014  09:04:00      -99.072      -43.290       -7.209       48.898       36.072       22.149     2391.034     1301.224      490.570        0.796        0.209      108.117       17.072        0.025      339.121       12.238      857.072
03/25/2014  09:05:00      -33.640     -127.778        5.798       47.066       57.473       34.558     2215.180     3303.131     1194.249        1.210        0.336      132.132       36.326        0.076      339.213       12.392      857.086
03/25/2014  09:06:00      -59.226      -84.431       -6.029       36.248       42.256       19.007     1313.883     1785.556      361.256        0.707        0.173      103.133       19.409        0.035      339.207       12.382      857.039
03/25/2014  09:07:00     -103.710      -84.912        0.221       47.442       39.040       23.990     2250.774     1524.109      575.506        1.116        0.218      134.037       21.738        0.026      339.236       12.431      857.034
03/25/2014  09:08:00      -87.987     -135.003       -7.937       44.293       53.608       25.796     1961.891     2873.828      665.451        1.576        0.275      161.144       18.134        0.013      339.288       12.517      857.019
03/25/2014  09:09:00      -48.844      -54.693       19.327       41.869       58.881       26.520     1753.025     3466.918      703.317        0.584        0.296       73.328       25.052        0.117      339.448       12.788      856.982
03/25/2014  09:10:00       12.309      -90.381        1.394       61.291       61.594       44.657     3756.548     3793.814     1994.210        0.893        0.477       91.216       43.798        0.231      339.553       12.965      856.974
03/25/2014  09:11:00        6.991      -39.342       15.180      123.173       64.586       42.007    15171.651     4171.327     1764.574        1.146        1.055       39.958       32.574        0.665      339.512       12.896      856.931
03/25/2014  09:12:00       52.578      -25.723       11.222       68.975       61.225       36.886     4757.590     3748.477     1360.554        0.671        0.493       58.533       37.623        0.413      339.688       13.194      856.899
03/25/2014  09:13:00       65.703     -113.140      -15.598      105.204      164.765      102.601    11067.884    27147.637    10527.010        3.304        2.437      130.834      110.629        0.715      340.087       13.864      856.849
03/25/2014  09:14:00      -91.832     -102.757       30.540      119.903      115.160       67.229    14376.824    13261.931     4519.729        2.604        1.608      137.812       67.667        0.241      340.025       13.758      856.837
03/25/2014  09:15:00     -191.276     -197.888        3.747      126.471       99.454       60.197    15994.919     9891.083     3623.688        5.263        1.475      275.220       58.089        0.045      340.254       14.144      856.825
03/25/2014  09:16:00     -125.806     -114.598       16.018      125.485      101.796       59.788    15746.406    10362.395     3574.591        2.944        1.484      170.176       52.716        0.096      340.212       14.074      856.837
03/25/2014  09:17:00      -61.135      -99.967       13.928       73.057       67.610       54.953     5337.271     4571.065     3019.821        1.342        0.646      117.179       19.913        0.029      340.154       13.978      856.886
03/25/2014  09:18:00      -39.471     -141.045       -0.793       85.441       68.621       46.115     7300.233     4708.905     2126.589        1.779        0.707      146.464       23.711        0.026      340.232       14.109      856.897
03/25/2014  09:19:00       52.719      -44.490       20.120       75.016      100.656       56.054     5627.371    10131.602     3142.103        1.203        0.945       68.983       57.012        0.683      340.219       14.087      856.874
03/25/2014  09:20:00       24.589      106.234      131.808       73.491       99.593       62.865     5400.902     9918.674     3951.984        2.426        0.964      109.043       67.290        0.381      340.129       13.935      856.673
03/25/2014  09:21:00       72.267     -143.472      -14.202      114.874      106.274       58.391    13195.988    11294.235     3409.527        2.695        1.395      160.645       67.042        0.174      340.117       13.914      856.729
03/25/2014  09:22:00      -18.666      -76.053       -6.431       54.179       47.327       40.273     2935.318     2239.818     1621.883        0.648        0.340       78.310       32.489        0.172      340.249       14.139      856.796
03/25/2014  09:23:00      -60.300     -122.446      -10.626       59.982       75.274       37.304     3597.804     5666.198     1391.593        1.470        0.533      136.489       11.944        0.008      340.229       14.103      856.791
03/25/2014  09:24:00      -72.599     -131.675       12.218       64.656       75.671       45.440     4180.436     5726.047     2064.781        1.736        0.599      150.362       33.574        0.050      340.229       14.104      856.783
03/25/2014  09:25:00      -10.146     -113.989        0.904       78.002       71.855       41.134     6084.262     5163.145     1691.991        1.302        0.647      114.440       31.457        0.076      340.249       14.137      856.722
03/25/2014  09:26:00       41.403     -225.236      -31.744      121.028       82.186       63.702    14647.767     6754.527     4057.993        3.945        1.273      229.010       44.930        0.038      340.319       14.254      856.812
03/25/2014  09:27:00      -19.351     -217.217       -2.653       95.488       84.030       60.607     9117.867     7060.979     3673.237        3.370        0.993      218.077       24.880        0.013      340.272       14.175      856.944
03/25/2014  09:28:00       37.557     -139.181       49.925      121.231      211.258       87.721    14696.846    44630.140     7694.911        4.514        3.351      144.159      115.042        0.637      340.243       14.126      856.840
03/25/2014  09:29:00       63.992       11.482       65.072       82.896      124.408       77.822     6871.674    15477.438     6056.293        1.843        1.420       65.014       91.036        1.961      340.193       14.044      856.613
03/25/2014  09:30:00       20.776     -264.081      -11.764      147.960      149.414       99.435    21892.220    22324.410     9887.336        6.220        2.705      264.897       67.695        0.065      340.330       14.272      856.688
03/25/2014  09:31:00       14.647     -177.331       13.355      127.190      181.785       77.499    16177.383    33045.717     6006.037        4.352        2.761      177.935       91.647        0.265      340.449       14.475      856.725
03/25/2014  09:32:00      157.506     -207.446      -24.711      128.586      117.054       76.295    16534.316    13701.685     5820.944        5.225        1.803      260.465       81.738        0.098      340.324       14.264      856.700
03/25/2014  09:33:00      138.960     -182.849      -14.029       93.138      124.912       68.446     8674.620    15602.934     4684.889        4.095        1.448      229.660       71.061        0.096      340.309       14.238      856.672
03/25/2014  09:34:00       22.613       -8.898       62.490       46.503       70.428       45.639     2162.575     4960.041     2082.963        0.685        0.460       24.300       44.405        3.339      340.356       14.320      856.526
03/25/2014  09:35:00       -2.684     -106.458        3.322       90.330       84.737       68.602     8159.438     7180.422     4706.290        1.570        1.002      106.492       70.670        0.440      340.372       14.346      856.622
03/25/2014  09:36:00      -53.407     -147.187       10.234      113.345      104.793       66.867    12847.031    10981.519     4471.139        2.646        1.415      156.577       56.015        0.128      340.367       14.336      856.776
03/25/2014  09:37:00      -51.718     -107.457       -0.583       63.754       64.150       49.002     4064.538     4115.226     2401.163        1.240        0.529      119.255       30.114        0.064      340.345       14.301      856.775
03/25/2014  09:38:00     -118.971     -157.561      -14.082       60.086       79.956       29.446     3610.361     6392.953      867.047        2.502        0.544      197.432       15.321        0.006      340.280       14.191      856.643
03/25/2014  09:39:00      -71.278      -84.409       -1.543       71.389       52.464       30.403     5096.342     2752.472      924.353        1.049        0.439      110.478       33.378        0.091      340.280       14.191      856.597
03/25/2014  09:40:00     -148.963     -135.480        2.576       95.766       70.127       45.230     9171.116     4917.861     2045.759        2.834        0.807      201.357       42.921        0.045      340.247       14.133      856.667
03/25/2014  09:41:00     -144.642     -204.503      -15.747       79.671       96.807       43.768     6347.394     9371.520     1915.660        4.031        0.882      250.485       47.809        0.036      340.233       14.108      856.724
03/25/2014  09:42:00      -99.825     -144.501        6.442       80.364      140.577       50.435     6458.301    19762.022     2543.645        2.982        1.438      175.629       61.074        0.121      340.243       14.127      856.706
03/25/2014  09:43:00      -73.182      -98.406      -12.893       47.343       46.646       34.208     2241.374     2175.807     1170.173        1.040        0.279      122.635       23.171        0.036      340.331       14.278      856.609
03/25/2014  09:44:00      -52.751      -44.351       -0.147       75.122       50.675       35.253     5643.343     2567.973     1242.750        0.710        0.473       68.917       21.674        0.099      340.288       14.206      856.558
03/25/2014  09:45:00      -39.329      -19.126       16.018       58.738       44.988       26.820     3450.136     2023.878      719.320        0.418        0.310       43.732       36.080        0.681      340.388       14.374      856.460
03/25/2014  09:46:00      -19.482      -10.361       10.291       31.365       32.376       23.549      983.786     1048.191      554.569        0.159        0.129       22.065       22.880        1.075      340.384       14.368      856.409
03/25/2014  09:47:00      -26.533      -36.987       -1.560       37.834       30.261       26.745     1431.427      915.752      715.306        0.257        0.153       45.520        6.614        0.021      340.412       14.414      856.441
03/25/2014  09:48:00      -82.955      -60.780        5.629       94.371       45.051       31.812     8905.827     2029.609     1012.015        1.128        0.597      102.838       36.135        0.123      340.397       14.388      856.491
03/25/2014  09:49:00      -58.313      -59.519       10.809       80.306       78.795       34.072     6449.094     6208.730     1160.873        1.044        0.691       83.324       30.653        0.135      340.346       14.302      856.442
03/25/2014  09:50:00      -57.775      -87.844        0.985       70.445       43.276       33.041     4962.484     1872.840     1091.702        0.949        0.396      105.140       19.874        0.036      340.386       14.370      856.414
03/25/2014  09:51:00      -48.880      -61.062       16.687       47.252       47.862       28.157     2232.755     2290.740      792.795        0.586        0.266       78.217       26.371        0.114      340.472       14.516      856.381
03/25/2014  09:52:00      -40.957      -83.166        6.296       50.601       70.102       30.877     2560.467     4914.335      953.397        0.853        0.421       92.704       23.613        0.065      340.499       14.561      856.385
03/25/2014  09:53:00       32.586        0.434       48.827       93.841      106.956       68.011     8806.074    11439.592     4625.501        1.415        1.244       32.588       78.856        5.855      340.579       14.697      856.348
03/25/2014  09:54:00       39.050     -159.628       36.357      163.123      155.518       83.893    26609.244    24185.937     7038.086        4.307        2.892      164.335       90.981        0.307      340.621       14.766      856.356
03/25/2014  09:55:00       31.054      -57.055       65.492      146.791      204.409      127.069    21547.508    41783.210    16146.481        4.398        3.974       64.959      139.159        4.589      340.662       14.835      856.189
03/25/2014  09:56:00       64.847     -170.475        7.105      102.954      119.934       79.555    10599.484    14384.164     6329.005        3.231        1.566      182.392       69.305        0.144      340.658       14.828      856.274
03/25/2014  09:57:00       35.410     -123.843       12.394       80.117       82.339       54.772     6418.694     6779.678     2999.978        1.647        0.810      128.806       38.966        0.092      340.722       14.936      856.292
03/25/2014  09:58:00       -8.222      -82.280       17.020       96.021       78.910       52.508     9219.944     6226.862     2757.064        1.266        0.910       82.689       59.307        0.514      340.713       14.923      856.178
03/25/2014  09:59:00     -196.559      -92.209        3.671      148.411      131.547       45.529    22025.751    17304.520     2072.932        4.427        2.070      217.113       39.066        0.032      340.567       14.675      856.115
03/25/2014  10:00:00     -292.543     -254.483       23.400      263.953      136.456       87.031    69670.967    18620.188     7574.333       12.336        4.793      387.741      104.261        0.072      340.585       14.704      856.266
03/25/2014  10:01:00     -286.588     -249.273        0.289      194.568      194.685       99.113    37856.734    37902.217     9823.318       11.491        4.279      379.829      114.760        0.091      340.599       14.727      856.343
03/25/2014  10:02:00     -102.035     -233.676       29.069      142.104      180.516       71.456    20193.503    32586.086     5105.952        6.186        2.894      254.981       69.393        0.074      340.654       14.820      856.415
03/25/2014  10:03:00     -124.405     -194.144       -4.939       84.965       97.054       46.124     7219.029     9419.456     2127.413        3.598        0.938      230.583       29.137        0.016      340.681       14.865      856.375
03/25/2014  10:04:00      -15.703      -53.897      -13.800       56.934       45.604       27.847     3241.457     2079.740      775.466        0.472        0.305       56.138       25.567        0.207      340.752       14.989      856.230
03/25/2014  10:05:00       -8.498     -188.663       -6.569      127.641      123.142       59.306    16292.211    15163.951     3517.250        3.534        1.749      188.855       55.302        0.086      340.771       15.018      856.205
03/25/2014  10:06:00     -148.690      -84.683        2.473      182.126      102.903       64.793    33169.882    10588.967     4198.094        3.861        2.398      171.113       64.737        0.143      340.609       14.747      856.062
03/25/2014  10:07:00      -18.747      -91.155       18.041      102.375       61.952       50.705    10480.696     3838.050     2570.985        1.294        0.844       93.063       34.946        0.141      340.688       14.880      856.154
03/25/2014  10:08:00      -34.461     -175.565       -4.661      151.288      115.575       62.485    22888.107    13357.694     3904.385        3.608        2.008      178.915       58.421        0.107      340.693       14.886      856.277
03/25/2014  10:09:00     -119.660     -277.838      -10.420      141.356      142.018       85.964    19981.431    20169.237     7389.776        6.957        2.377      302.511       65.629        0.047      340.630       14.778      856.347
03/25/2014  10:10:00      -43.055     -156.096       -0.567      159.938      131.499       76.038    25580.077    17291.938     5781.768        3.743        2.433      161.925       71.688        0.196      340.645       14.807      856.248
03/25/2014  10:11:00      -87.390     -203.358       15.165      121.891      165.733       66.815    14857.504    27467.368     4464.270        4.800        2.339      221.341       66.414        0.090      340.612       14.750      856.179
03/25/2014  10:12:00     -175.324     -141.269      -16.242       78.258       93.013       42.682     6124.268     8651.479     1821.717        3.378        0.830      225.156       45.786        0.041      340.586       14.707      856.040
03/25/2014  10:13:00     -189.240     -179.203        1.726      104.270       91.978       52.691    10872.152     8460.028     2776.335        4.501        1.105      260.626       42.549        0.027      340.610       14.746      856.052
03/25/2014  10:14:00     -109.926      -91.878       18.092      101.549       81.739       51.267    10312.290     6681.249     2628.312        2.023        0.981      143.266       27.980        0.038      340.644       14.805      856.046
03/25/2014  10:15:00     -176.983     -223.422        8.210      237.177      129.592       85.682    56252.869    16794.176     7341.335        8.083        4.019      285.027       57.215        0.040      340.676       14.858      856.052
03/25/2014  10:16:00     -204.228     -268.064       -4.364      163.109      143.642       73.093    26604.686    20633.097     5342.649        8.307        2.629      336.998       77.596        0.053      340.648       14.810      856.077
03/25/2014  10:17:00     -111.033     -171.319       -8.324      145.189      138.880       73.448    21079.880    19287.624     5394.539        4.375        2.288      204.153       82.051        0.162      340.694       14.888      856.054
03/25/2014  10:18:00     -170.555     -102.518       -1.388      144.006      102.450       57.794    20737.640    10495.952     3340.096        3.708        1.729      198.995       66.876        0.113      340.671       14.850      856.084
03/25/2014  10:19:00      -86.402     -107.072        2.375       68.731       74.271       45.680     4723.996     5516.246     2086.646        1.563        0.616      137.585       38.761        0.079      340.663       14.838      855.998
03/25/2014  10:20:00     -152.869     -156.905       -9.641       85.824       80.085       39.423     7365.842     6413.592     1554.171        3.170        0.767      219.062       35.956        0.027      340.666       14.841      856.017
03/25/2014  10:21:00     -174.371     -200.853       -3.396      167.885      120.256       75.161    28185.393    14461.437     5649.192        5.952        2.415      265.984       73.149        0.076      340.666       14.842      856.059
03/25/2014  10:22:00     -263.899     -244.602       -1.780      157.873      146.426       81.774    24923.964    21440.683     6686.950        9.126        2.653      359.824       74.987        0.043      340.610       14.745      856.003
03/25/2014  10:23:00     -205.722     -138.423        8.958      140.329      130.583       77.055    19692.098    17051.970     5937.420        5.212        2.134      247.957       70.759        0.081      340.625       14.771      856.074
03/25/2014  10:24:00     -163.222     -222.024       -1.383      108.610      116.348       59.557    11796.204    13536.906     3547.015        5.240        1.444      275.566       42.184        0.023      340.639       14.793      856.037
03/25/2014  10:25:00     -154.315      -81.223        3.540       86.109       95.586       63.662     7414.738     9136.669     4052.804        2.551        1.030      174.386       50.085        0.082      340.612       14.752      855.940
03/25/2014  10:26:00     -166.153     -171.616       14.159      176.397       92.675       63.194    31115.867     8588.728     3993.447        5.047        2.185      238.870       70.618        0.087      340.616       14.757      855.975
03/25/2014  10:27:00       -7.375     -121.417       12.034      102.357      107.794       50.772    10476.981    11619.516     2577.796        1.980        1.234      121.641       33.885        0.078      340.696       14.892      855.937
03/25/2014  10:28:00      -75.772     -106.514        0.351      110.928      150.798       59.367    12305.112    22740.144     3524.492        2.782        1.928      130.716       59.019        0.204      340.742       14.972      855.976
03/25/2014  10:29:00      114.598     -222.580       20.397      179.827      221.878      134.858    32337.884    49230.031    18186.593        8.141        4.988      250.349      144.986        0.335      340.739       14.965      855.934
03/25/2014  10:30:00      -83.539     -211.585        5.964      135.646      205.189       71.454    18399.821    42102.581     5105.632        5.868        3.280      227.480       85.274        0.141      340.682       14.868      855.975
03/25/2014  10:31:00       70.761     -399.814      -25.355      148.604      261.161      103.860    22083.280    68205.096    10786.888       13.327        5.054      406.027       96.555        0.057      340.736       14.959      855.952
03/25/2014  10:32:00       -4.048     -338.515       -6.948      140.854      146.160       84.379    19839.813    21362.735     7119.859        8.148        2.416      338.540       68.674        0.041      340.723       14.938      855.929
03/25/2014  10:33:00     -140.510     -237.592      -19.205      137.163      115.511       85.449    18813.698    13342.817     7301.506        5.800        1.973      276.031       69.077        0.063      340.666       14.840      855.922
03/25/2014  10:34:00      -19.546     -160.740       -4.921      127.469      106.452       51.532    16248.314    11332.010     2655.515        2.823        1.512      161.924       46.338        0.082      340.687       14.876      855.898
03/25/2014  10:35:00        8.311     -138.089       -3.498       90.745       66.474       41.006     8234.611     4418.763     1681.455        1.674        0.717      138.339       31.531        0.052      340.830       15.121      855.859
03/25/2014  10:36:00     -193.141     -138.614        6.862      168.045      102.693       66.844    28238.980    10545.928     4468.126        4.990        2.163      237.733       64.458        0.074      340.724       14.941      855.877
03/25/2014  10:37:00     -274.621     -217.416       -3.833      165.760      170.638       83.237    27476.410    29117.244     6928.424        9.310        3.176      350.266       88.953        0.064      340.638       14.792      855.842
03/25/2014  10:38:00       -7.584     -338.236      -15.914      245.695      259.492       93.424    60366.139    67336.099     8728.004       12.555        6.822      338.321       83.272        0.061      340.713       14.921      855.868
03/25/2014  10:39:00      -24.515     -223.585       -6.357      110.691      145.642       77.931    12252.561    21211.595     6073.289        4.508        1.977      224.925       77.767        0.120      340.748       14.980      855.855
03/25/2014  10:40:00        1.382     -165.634       14.877       88.043      132.209       59.875     7751.511    17479.278     3584.961        2.823        1.441      165.640       60.827        0.135      340.800       15.068      855.805
03/25/2014  10:41:00      -53.994     -196.829       -5.573       69.590      136.338       39.672     4842.759    18587.942     1573.844        3.334        1.250      204.100       40.715        0.040      340.821       15.104      855.809
03/25/2014  10:42:00     -103.622     -163.459        2.495       87.956      164.601       55.678     7736.242    27093.331     3099.987        3.769        1.896      193.536       46.220        0.057      340.717       14.929      855.827
03/25/2014  10:43:00     -270.686     -304.624      -26.023      211.303      213.141       68.761    44648.786    45429.023     4728.008       13.076        4.740      407.513       86.585        0.045      340.664       14.836      855.848
03/25/2014  10:44:00     -316.860     -266.223      -16.543      169.038      172.627       78.174    28573.688    29799.973     6111.151       11.801        3.224      413.854       84.345        0.042      340.616       14.755      855.823
03/25/2014  10:45:00     -143.095     -174.175       20.018      173.231      195.750       89.662    30008.863    38317.867     8039.234        6.378        3.818      225.418       98.780        0.192      340.638       14.793      855.825
03/25/2014  10:46:00      -60.158     -105.598       24.713      164.133      106.093       69.162    26939.568    11255.743     4783.315        2.917        2.149      121.532       41.163        0.115      340.692       14.886      855.819
03/25/2014  10:47:00       -7.578     -171.729       20.216      125.200      150.326       70.809    15675.130    22598.032     5013.932        3.661        2.164      171.896       40.539        0.056      340.732       14.954      855.838
03/25/2014  10:48:00      -77.403     -158.889      -12.790       99.267      106.517       61.247     9854.012    11345.787     3751.207        2.817        1.248      176.740       34.471        0.038      340.734       14.956      855.801
03/25/2014  10:49:00      -51.932     -126.885       -7.512       95.915       63.331       46.976     9199.757     4010.802     2206.785        1.713        0.771      137.101       33.000        0.058      340.804       15.076      855.760
03/25/2014  10:50:00      -76.935      -99.319       10.777      120.960       73.896       49.048    14631.430     5460.597     2405.685        1.919        1.125      125.632       36.375        0.084      340.766       15.012      855.787
03/25/2014  10:51:00      -89.497      -84.167       17.792      111.688       73.808       46.439    12474.303     5447.691     2156.614        1.774        1.004      122.857       49.520        0.162      340.737       14.963      855.728
03/25/2014  10:52:00      -80.258     -158.555       12.318      110.933       88.803       57.429    12306.104     7886.050     3298.089        2.761        1.175      177.710       48.353        0.074      340.715       14.924      855.703
03/25/2014  10:53:00      -46.169     -146.344      -12.749      100.405      107.136       53.257    10081.156    11478.119     2836.337        2.405        1.220      153.454       48.962        0.102      340.774       15.026      855.709
03/25/2014  10:54:00      -91.146     -280.091      -11.450      141.494      159.907       70.373    20020.443    25570.223     4952.327        6.871        2.527      294.548       66.844        0.052      340.719       14.929      855.742
03/25/2014  10:55:00       97.413     -367.522      -26.690      175.634      154.859       97.443    30847.416    23981.211     9495.051       10.479        3.216      380.213       82.960        0.048      340.787       15.045      855.672
03/25/2014  10:56:00       43.306     -320.327        4.191      148.649      170.332       86.262    22096.484    29012.944     7441.092        8.152        2.928      323.241       78.499        0.059      340.777       15.029      855.650
03/25/2014  10:57:00      -62.694     -288.348       -1.850      126.933      116.091       62.217    16111.955    13477.224     3870.958        6.026        1.673      295.085       55.979        0.036      340.780       15.034      855.581
03/25/2014  10:58:00      -86.261     -285.380       -9.834      113.034      148.303       56.826    12776.785    21993.676     3229.177        6.348        1.900      298.132       37.580        0.016      340.721       14.933      855.661
03/25/2014  10:59:00      -33.903     -113.060        8.516      101.830      121.282       61.883    10369.332    14709.245     3829.567        2.145        1.445      118.034       55.616        0.222      340.736       14.962      855.622
03/25/2014  11:00:00     -126.489     -175.410        8.337      107.415       84.868       57.019    11537.962     7202.650     3251.215        3.441        1.100      216.259       41.866        0.037      340.695       14.891      855.639
03/25/2014  11:01:00     -147.746     -224.685      -13.165      112.231      130.623       50.892    12595.709    17062.284     2590.045        5.236        1.612      268.909       52.375        0.038      340.666       14.841      855.624
03/25/2014  11:02:00     -307.406     -339.237      -17.456      147.767      187.418       65.320    21835.058    35125.436     4266.707       13.555        3.061      457.799       70.221        0.024      340.638       14.792      855.607
03/25/2014  11:03:00     -223.709     -280.734       -1.473      136.472      197.901       77.612    18624.655    39164.964     6023.550        9.633        3.191      358.967       58.831        0.027      340.673       14.853      855.605
03/25/2014  11:04:00     -231.514     -161.549      -11.921       90.089      114.824       55.355     8115.955    13184.464     3064.207        5.210        1.218      282.306       38.292        0.018      340.704       14.906      855.625
03/25/2014  11:05:00     -163.164     -155.177       -4.770      108.989      110.877       56.093    11878.500    12293.667     3146.403        3.902        1.366      225.172       58.202        0.067      340.721       14.935      855.599
03/25/2014  11:06:00     -207.175     -144.343        2.475      107.283       95.508       57.459    11509.559     9121.762     3301.552        4.384        1.197      252.500       55.828        0.049      340.715       14.924      855.642
03/25/2014  11:07:00     -126.764     -165.078        1.309      107.158      108.754       52.939    11482.771    11827.535     2802.502        3.471        1.306      208.134       52.093        0.063      340.716       14.927      855.637
03/25/2014  11:08:00       41.132     -277.627      -20.313      124.151      122.834       62.836    15413.459    15088.283     3948.398        5.681        1.723      280.657       50.279        0.032      340.780       15.036      855.567
03/25/2014  11:09:00      -49.610     -147.783       16.087      154.972      174.993       88.964    24016.472    30622.621     7914.586        4.355        3.128      155.888       97.782        0.393      340.789       15.051      855.469
03/25/2014  11:10:00       27.024     -241.426        8.342      223.543      193.758      104.603    49971.533    37542.293    10941.685        7.875        4.923      242.934      108.553        0.200      340.799       15.065      855.425
03/25/2014  11:11:00       37.653     -331.573      -13.409      206.969      152.010       93.129    42836.158    23107.076     8673.071        9.306        3.731      333.704       71.329        0.046      340.826       15.111      855.380
03/25/2014  11:12:00      -78.630     -186.798       -3.948      134.394      119.488       67.872    18061.723    14277.364     4606.653        3.901        1.847      202.673       65.599        0.105      340.830       15.117      855.379
03/25/2014  11:13:00      -28.956     -166.148       23.770      136.741      149.716       76.409    18698.047    22414.970     5838.325        3.797        2.348      168.653       66.851        0.157      340.843       15.142      855.390
03/25/2014  11:14:00       89.792     -280.064       -9.824      156.586      138.520       83.061    24519.284    19187.719     6899.151        6.859        2.530      294.107       61.267        0.043      340.807       15.079      855.398
03/25/2014  11:15:00     -155.704     -278.508        4.412      173.345      142.527       79.458    30048.630    20313.823     6313.577        7.924        2.834      319.078       77.619        0.059      340.757       14.993      855.467
03/25/2014  11:16:00     -183.691     -234.876        2.224      139.485      111.710       62.001    19455.998    12479.020     3844.114        6.234        1.789      298.176       64.638        0.047      340.736       14.957      855.493
03/25/2014  11:17:00     -124.671     -203.134       -1.323      126.077      112.498       64.094    15895.299    12655.827     4108.004        4.473        1.633      238.341       52.096        0.048      340.756       14.994      855.492
03/25/2014  11:18:00      -27.295     -245.794       14.101      188.113      185.871       84.190    35386.653    34548.027     7087.888        6.918        3.851      247.304       84.248        0.116      340.805       15.076      855.520
03/25/2014  11:19:00      -96.843     -235.930       -9.773       97.716       91.139       54.548     9548.414     8306.405     2975.458        4.298        1.042      255.032       41.874        0.027      340.832       15.121      855.540
03/25/2014  11:20:00      -58.389      -91.160        1.570      120.484      151.643       55.064    14516.514    22995.660     3032.016        2.613        2.027      108.256       55.471        0.263      340.776       15.028      855.530
03/25/2014  11:21:00      -16.377       -7.161       -4.956       54.174       40.814       29.533     2934.789     1665.820      872.175        0.291        0.274       17.874       21.306        1.421      340.773       15.026      855.503
03/25/2014  11:22:00      -29.253     -143.721       -1.102      122.955      131.561       51.789    15117.927    17308.304     2682.071        2.830        1.755      146.668       45.012        0.094      340.826       15.113      855.616
03/25/2014  11:23:00      -54.318     -279.272        9.228      108.380      147.460       73.828    11746.184    21744.472     5450.615        5.998        1.947      284.506       76.450        0.072      340.764       15.008      855.624
03/25/2014  11:24:00      -91.368     -125.204       16.619      108.772       96.911       58.401    11831.380     9391.766     3410.676        2.446        1.232      154.997       38.716        0.062      340.749       14.982      855.706
03/25/2014  11:25:00     -238.214     -277.226       -5.230      165.153      173.891       72.996    27275.351    30237.966     5328.372        9.822        3.142      365.514       87.120        0.057      340.689       14.879      855.744
03/25/2014  11:26:00     -314.655     -149.735      -15.411      128.266      128.409       62.603    16452.187    16488.839     3919.123        7.926        1.843      348.465       59.724        0.029      340.699       14.897      855.807
03/25/2014  11:27:00     -407.533     -114.762       -6.765      186.330      171.274       78.642    34718.688    29334.884     6184.589       12.476        3.512      423.384       99.936        0.056      340.632       14.784      855.880
03/25/2014  11:28:00     -515.138      -66.119      -27.152      203.251      192.119      103.471    41310.830    36909.840    10706.255       17.969        4.446      519.364       93.691        0.033      340.379       14.355      855.767
03/25/2014  11:29:00     -422.722     -337.573       -8.351      253.813      217.751      124.876    64421.062    47415.329    15594.126       21.005        6.372      540.971      141.477        0.068      340.295       14.214      855.702
03/25/2014  11:30:00     -283.964     -207.260        7.222      266.459      196.695      109.923    71000.159    38688.981    12083.080       12.269        6.089      351.557      140.089        0.159      340.342       14.294      855.749
03/25/2014  11:31:00     -219.021     -180.498       15.335      169.124      128.994       76.625    28603.095    16639.529     5871.399        6.594        2.556      283.813       80.644        0.081      340.336       14.283      855.765
03/25/2014  11:32:00     -269.544     -120.829       15.465      199.822      179.569       98.226    39929.001    32245.071     9648.263        8.464        4.091      295.387      114.955        0.151      340.353       14.313      855.740
03/25/2014  11:33:00     -177.945     -133.293       20.908      185.973      106.594       74.808    34585.933    11362.241     5596.204        5.070        2.577      222.332       84.234        0.144      340.330       14.273      855.736
03/25/2014  11:34:00     -220.964      -83.850       -6.120      153.054      174.628       79.219    23425.473    30494.911     6275.640        5.803        3.010      236.339       78.413        0.110      340.328       14.269      855.708
03/25/2014  11:35:00     -367.437     -258.958      -18.486      240.077      233.774       96.940    57637.205    54650.368     9397.409       16.203        6.084      449.521      133.086        0.088      340.247       14.132      855.691
03/25/2014  11:36:00     -330.074     -128.951       -9.104      127.508      119.865       63.226    16258.273    14367.593     3997.563        8.014        1.731      354.368       58.879        0.028      340.253       14.142      855.732
03/25/2014  11:37:00     -357.872     -225.430      -23.021      173.588      128.531       79.382    30132.721    16520.178     6301.554       11.618        2.648      422.955       71.626        0.029      340.244       14.128      855.743
03/25/2014  11:38:00     -516.499     -263.856       -9.532      270.379      177.247      121.085    73105.007    31416.406    14661.609       22.781        5.959      579.993      141.165        0.059      340.179       14.017      855.711
03/25/2014  11:39:00     -369.775      -54.391       -8.109      265.820      189.674      108.065    70660.162    35976.109    11678.115       12.902        5.916      373.753      119.267        0.102      340.127       13.930      855.664
03/25/2014  11:40:00     -383.295     -186.076       -1.924      241.565      174.617       94.945    58353.882    30491.249     9014.501       13.968        4.893      426.074      114.341        0.072      340.128       13.933      855.667
03/25/2014  11:41:00     -564.392     -291.568       -8.921      311.884      235.724      121.211    97271.859    55566.029    14692.209       28.555        8.377      635.256      149.440        0.055      340.146       13.961      855.692
03/25/2014  11:42:00     -344.571     -167.491       -9.890      254.507      195.311       98.455    64774.042    38146.316     9693.384       12.973        5.631      383.122       89.763        0.055      340.184       14.027      855.739
03/25/2014  11:43:00     -554.319     -233.219       -9.629      297.168      233.278      115.998    88308.905    54418.419    13455.553       25.894        7.809      601.383      118.663        0.039      340.210       14.069      855.689
03/25/2014  11:44:00     -397.209     -271.815        6.462      247.011      193.346      101.461    61014.411    37382.682    10294.397       17.018        5.435      481.309      111.092        0.053      340.221       14.087      855.765
03/25/2014  11:45:00     -258.262     -218.624        7.022      191.820      134.053       77.361    36794.749    17970.129     5984.693        8.764        3.037      338.373       64.135        0.036      340.207       14.064      855.852
03/25/2014  11:46:00     -330.226     -220.114       15.198      214.962      167.567       93.150    46208.725    28078.784     8676.920       12.033        4.148      396.862       97.385        0.060      340.200       14.052      855.864
03/25/2014  11:47:00     -403.266     -223.070       -1.122      224.387      191.126      101.278    50349.473    36529.286    10257.171       15.474        4.857      460.851      113.554        0.061      340.055       13.808      855.844
03/25/2014  11:48:00     -319.964     -170.811        5.640      216.897      154.827       92.908    47044.374    23971.319     8631.970       10.560        3.982      362.703      107.531        0.088      340.029       13.764      855.838
03/25/2014  11:49:00     -335.692     -124.483       -6.379      116.477      100.561       58.240    13566.817    10112.469     3391.862        7.764        1.354      358.030       50.249        0.020      340.049       13.798      855.845
03/25/2014  11:50:00     -329.460     -153.480        5.258      160.176      166.437       81.350    25656.353    27701.420     6617.788        9.604        2.999      363.455       87.921        0.059      340.154       13.976      855.896
03/25/2014  11:51:00     -254.037     -253.497        9.406      214.758      140.320       96.790    46120.977    19689.791     9368.290       10.202        3.759      358.881      100.728        0.079      340.114       13.908      855.887
03/25/2014  11:52:00     -477.856     -302.653      -25.272      294.633      221.502      125.365    86808.335    49063.194    15716.415       23.606        7.579      565.637      113.713        0.040      340.062       13.820      855.853
03/25/2014  11:53:00     -502.646     -144.381       -8.668      240.057      176.860      106.418    57627.333    31279.620    11324.796       18.689        5.012      522.972      103.109        0.039      340.134       13.941      855.885
03/25/2014  11:54:00     -261.264      -69.630       13.083      212.148      155.930       99.850    45006.610    24314.086     9970.015        7.627        3.965      270.383      121.613        0.202      340.083       13.856      855.877
03/25/2014  11:55:00     -317.727     -193.597        0.380      214.808      199.356      109.377    46142.265    39742.921    11963.353       11.812        4.892      372.062      115.299        0.096      340.044       13.791      855.881
03/25/2014  11:56:00     -536.867     -215.816      -27.366      318.706      234.923      124.762   101573.241    55188.826    15565.474       25.391        8.616      578.621      145.256        0.063      340.032       13.768      855.855
03/25/2014  11:57:00     -516.768     -267.545      -18.972      236.981      195.588       98.411    56159.806    38254.617     9684.651       22.153        5.205      581.919      109.592        0.035      340.038       13.780      855.909
03/25/2014  11:58:00     -589.154     -325.228      -15.491      261.946      239.938      122.935    68615.938    57570.419    15113.041       29.718        7.065      672.960      146.689        0.048      339.935       13.605      855.879
03/25/2014  11:59:00     -497.736     -314.134        5.662      262.198      169.239      101.253    68747.887    28641.701    10252.200       22.703        5.382      588.576      119.148        0.041      339.930       13.596      855.927
03/25/2014  12:00:00     -326.104     -236.738       15.916      211.510      144.219      102.255    44736.387    20799.001    10456.121       11.930        3.800      402.975      117.162        0.085      339.955       13.639      855.934
03/25/2014  12:01:00     -384.370     -135.801      -29.668      195.524      179.332       95.445    38229.546    32159.937     9109.680       12.327        3.975      407.655       91.614        0.051      339.918       13.576      855.917
03/25/2014  12:02:00     -222.256      -68.919       16.577      188.880      156.890       82.336    35675.732    24614.423     6779.274        6.073        3.353      232.696      100.835        0.188      340.041       13.787      855.865
03/25/2014  12:03:00     -147.739      -55.300        5.727      174.181      126.475       83.273    30339.083    15996.048     6934.354        3.908        2.663      157.750       83.918        0.283      340.096       13.879      855.882
03/25/2014  12:04:00     -292.608     -144.181      -10.695      188.158      124.839       72.952    35403.557    15584.756     5322.062        8.141        2.816      326.202       65.533        0.040      339.964       13.656      855.889
03/25/2014  12:05:00     -358.977     -193.460      -10.840      172.842      156.408       79.199    29874.439    24463.608     6272.415       11.350        3.031      407.788       82.050        0.040      339.915       13.572      855.930
03/25/2014  12:06:00     -455.279     -200.238      -23.436      303.944      194.046      111.089    92381.756    37653.979    12340.819       19.513        7.119      497.368      142.114        0.082      339.879       13.511      855.904
03/25/2014  12:07:00     -504.088     -175.955      -19.864      234.981      217.193      101.029    55216.281    47172.910    10206.872       19.901        5.630      533.915       83.481        0.024      339.867       13.490      855.849
03/25/2014  12:08:00     -458.516     -154.543       -2.134      231.699      195.713      101.296    53684.643    38303.707    10260.919       16.817        5.112      483.860      112.084        0.054      339.853       13.469      855.835
03/25/2014  12:09:00     -343.734     -119.272       -8.460      257.722      182.416       98.902    66420.606    33275.623     9781.565       12.095        5.474      363.839      113.499        0.097      339.850       13.462      855.811
03/25/2014  12:10:00     -402.341     -197.159       -7.693      219.209      205.749      103.207    48052.448    42332.609    10651.659       15.091        5.052      448.051      108.770        0.059      339.879       13.510      855.795
03/25/2014  12:11:00     -379.471     -201.225        3.287      236.668      199.775      102.030    56011.703    39910.179    10410.090       14.540        5.317      429.523      114.246        0.071      339.939       13.613      855.796
03/25/2014  12:12:00     -486.392     -339.496      -28.661      173.389      158.498       97.708    30063.817    25121.491     9546.802       20.868        3.237      593.156       92.165        0.024      339.907       13.559      855.803
03/25/2014  12:13:00     -351.544     -251.447       12.714      202.084      218.877       97.172    40838.123    47907.232     9442.415       14.256        4.909      432.213       89.688        0.043      339.921       13.582      855.815
03/25/2014  12:14:00     -428.924     -244.017      -13.572      235.797      177.242       98.773    55600.343    31414.736     9756.078       17.022        4.839      493.477      123.884        0.063      339.872       13.499      855.737
03/25/2014  12:15:00     -427.466     -209.436      -12.943      192.153      163.800       89.995    36922.926    26830.446     8099.131       14.929        3.593      476.015       92.907        0.038      339.898       13.541      855.731
03/25/2014  12:16:00     -421.211     -256.965       -8.489      278.160      198.098      111.698    77373.207    39242.856    12476.485       18.629        6.455      493.406      139.383        0.080      339.914       13.569      855.784
03/25/2014  12:17:00     -317.212     -224.329        1.746      205.341      155.005      101.343    42164.864    24026.683    10270.391       11.369        3.823      388.519      112.178        0.083      339.965       13.656      855.739
03/25/2014  12:18:00     -399.396     -218.020        5.446      216.068      159.607       90.633    46685.591    25474.376     8214.354       14.371        4.019      455.028      100.482        0.049      339.895       13.537      855.768
03/25/2014  12:19:00     -438.664     -283.928      -18.247      199.006      183.038      107.028    39603.338    33502.791    11455.020       17.895        4.228      522.534      110.503        0.045      339.843       13.450      855.746
03/25/2014  12:20:00     -481.935     -158.661      -22.076      217.058      200.273       84.069    47114.112    40109.277     7067.525       17.609        4.715      507.381       72.573        0.020      339.787       13.356      855.708
03/25/2014  12:21:00     -383.545     -188.539      -21.935      209.974      184.864       80.649    44088.990    34174.745     6504.199       13.394        4.238      427.380       88.769        0.043      339.784       13.350      855.688
03/25/2014  12:22:00     -348.819     -239.161      -12.833      184.424      151.813       76.975    34012.214    23047.111     5925.095       12.100        3.149      422.933       75.503        0.032      339.833       13.434      855.714
03/25/2014  12:23:00     -506.247     -188.008       -0.365      238.099      201.418      104.370    56691.191    40569.193    10893.186       19.988        5.408      540.030      113.474        0.044      339.749       13.292      855.639
03/25/2014  12:24:00     -488.482     -241.869      -18.424      257.215      210.070      101.722    66159.382    44129.216    10347.384       20.903        6.032      545.083      109.591        0.040      339.736       13.269      855.599
03/25/2014  12:25:00     -642.868     -294.627       -4.663      266.090      181.064      111.792    70804.027    32784.346    12497.517       30.808        5.804      707.166      127.959        0.033      339.725       13.252      855.628
03/25/2014  12:26:00     -384.698     -285.493       -4.632      207.241      194.326      102.492    42948.750    37762.699    10504.586       16.035        4.561      479.061      107.343        0.050      339.758       13.308      855.680
03/25/2014  12:27:00     -428.765     -295.118        2.571      245.813      175.523      104.914    60424.209    30808.381    11006.970       18.657        5.112      520.514      121.206        0.054      339.774       13.335      855.658
03/25/2014  12:28:00     -423.570     -206.397      -22.920      182.562      145.736       84.431    33329.049    21238.969     7128.580       14.211        3.085      471.181       73.610        0.024      339.807       13.390      855.665
03/25/2014  12:29:00     -425.870     -252.392      -14.868      232.591      180.383       86.333    54098.439    32538.165     7453.460       16.967        4.705      495.043       83.652        0.029      339.885       13.521      855.679
03/25/2014  12:30:00     -385.177     -259.230       -6.920      154.441      126.111       79.579    23852.059    15904.085     6332.774       13.084        2.304      464.287       76.910        0.027      339.850       13.461      855.721
03/25/2014  12:31:00     -385.786     -262.411       -0.493      218.744      169.167      112.899    47849.098    28617.529    12746.164       15.344        4.461      466.573      119.496        0.066      339.751       13.297      855.746
03/25/2014  12:32:00     -368.965     -195.196       -7.160      238.896      136.522       97.754    57071.321    18638.238     9555.776       12.976        4.263      417.417      109.189        0.068      339.682       13.180      855.735
03/25/2014  12:33:00     -309.802     -195.103        0.750      130.324      118.191       67.686    16984.282    13969.075     4581.430        8.478        1.777      366.118       65.951        0.032      339.699       13.208      855.731
03/25/2014  12:34:00     -288.841     -193.466       12.246      199.199      137.755       84.742    39680.246    18976.488     7181.122        9.341        3.292      347.646       85.101        0.060      339.712       13.232      855.649
03/25/2014  12:35:00     -408.875     -270.581       -5.506      203.505      189.349      110.449    41414.457    35853.163    12198.987       16.493        4.473      490.299      104.873        0.046      339.742       13.282      855.682
03/25/2014  12:36:00     -438.519     -214.970      -20.023      190.602      212.968       85.159    36329.049    45355.575     7252.063       16.391        4.447      488.375      109.045        0.050      339.712       13.230      855.711
03/25/2014  12:37:00     -421.950     -180.316       -9.587      185.440      146.952       82.705    34388.114    21594.750     6840.122       13.672        3.141      458.863       86.363        0.035      339.722       13.248      855.702
03/25/2014  12:38:00     -379.528     -244.586       14.779      252.396      198.472       97.365    63703.513    39391.160     9480.020       15.831        5.629      451.513      115.134        0.065      339.691       13.194      855.721
03/25/2014  12:39:00     -331.429     -249.917       13.220      205.980      196.948      100.446    42427.719    38788.579    10089.406       13.188        4.565      415.095      101.196        0.059      339.621       13.076      855.645
03/25/2014  12:40:00     -449.683     -281.482        4.174      214.362      217.258       98.946    45951.159    47201.143     9790.223       19.219        5.147      530.516      113.263        0.046      339.637       13.105      855.631
03/25/2014  12:41:00     -406.391     -219.701       -1.354      195.656      143.182      103.119    38281.421    20500.955    10633.454       14.141        3.471      461.977      106.839        0.053      339.671       13.160      855.698
03/25/2014  12:42:00     -456.060     -309.704      -19.720      175.934      144.737       83.720    30952.642    20948.892     7009.071       18.159        2.946      551.278       72.856        0.017      339.670       13.159      855.726
03/25/2014  12:43:00     -372.463     -260.840        1.756      203.089      145.407       97.858    41245.171    21143.325     9576.108       13.935        3.598      454.715      101.443        0.050      339.699       13.209      855.754
03/25/2014  12:44:00     -272.101     -234.290       -0.051      169.647      181.393       79.652    28779.991    32903.303     6344.517        9.847        3.401      359.069       84.956        0.056      339.679       13.176      855.743
03/25/2014  12:45:00     -293.356     -249.742        0.285      167.466      111.095       87.256    28044.828    12342.127     7613.627        9.821        2.400      385.265       90.473        0.055      339.712       13.229      855.766
03/25/2014  12:46:00     -222.108     -204.678        3.684      195.410      131.311       93.634    38184.949    17242.709     8767.397        7.771        3.210      302.035      106.340        0.124      339.752       13.298      855.742
03/25/2014  12:47:00     -308.826     -199.882       -2.239      180.158      143.893       68.159    32456.966    20705.264     4645.632        9.656        2.890      367.867       82.225        0.050      339.756       13.304      855.716
03/25/2014  12:48:00     -499.967     -268.813        0.302      306.506      233.751      101.529    93946.212    54639.733    10308.179       24.053        7.945      567.651      128.705        0.051      339.615       13.068      855.752
03/25/2014  12:49:00     -557.761     -350.139      -28.005      305.697      219.128      132.609    93450.582    48017.004    17585.099       29.674        7.953      658.555      167.625        0.065      339.529       12.922      855.706
03/25/2014  12:50:00     -498.665     -120.263      -18.372      232.553      195.916       97.980    54080.804    38383.099     9600.060       18.275        5.103      512.962      109.497        0.046      339.571       12.993      855.692
03/25/2014  12:51:00     -243.294     -132.064        2.219      215.058      148.609       77.885    46249.909    22084.544     6066.098        7.551        3.720      276.827      101.458        0.134      339.640       13.109      855.654
03/25/2014  12:52:00     -381.350      -85.746       -1.206      223.567      182.753       80.412    49982.086    33398.690     6466.054       12.130        4.492      390.872       91.386        0.055      339.665       13.151      855.624
03/25/2014  12:53:00     -364.896      -54.905      -12.696      287.360      132.456       99.686    82575.577    17544.691     9937.279       12.317        5.503      369.003      123.032        0.111      339.659       13.142      855.626
03/25/2014  12:54:00     -338.462     -178.568       -5.435      202.283      216.475       94.905    40918.356    46861.580     9006.969       12.161        4.839      382.679       98.474        0.066      339.554       12.962      855.645
03/25/2014  12:55:00     -195.073     -121.484       12.268      199.825      112.123       81.060    39930.115    12571.647     6570.699        5.601        2.954      229.808      105.382        0.210      339.555       12.965      855.646
03/25/2014  12:56:00     -274.876     -200.266      -15.991      176.184      142.123       79.768    31040.714    20198.984     6362.924        8.675        2.880      340.093       82.731        0.059      339.510       12.890      855.641
03/25/2014  12:57:00     -406.950     -259.113       -9.872      198.382      178.166      103.956    39355.491    31743.174    10806.764       15.736        4.095      482.440       97.174        0.041      339.441       12.773      855.604
03/25/2014  12:58:00     -334.527     -126.909        9.869      190.864      153.417       88.885    36428.954    23536.873     7900.574        9.798        3.393      357.791       99.961        0.078      339.532       12.927      855.560
03/25/2014  12:59:00     -231.006     -146.748        0.516      213.614      165.295       98.234    45631.098    27322.519     9649.913        7.874        4.130      273.676       95.764        0.122      339.571       12.993      855.550
03/25/2014  13:00:00     -327.216     -186.099        7.340      206.577      155.713       79.688    42673.971    24246.624     6350.216       10.750        3.664      376.435       88.050        0.055      339.584       13.014      855.609
03/25/2014  13:01:00     -654.982     -394.325       -7.320      259.752      182.353      119.602    67471.085    33252.668    14304.678       34.977        5.751      764.522      136.483        0.032      339.428       12.752      855.613
03/25/2014  13:02:00     -421.335     -256.342        9.310      259.964      228.952      116.064    67581.521    52419.005    13470.917       18.837        6.674      493.188      134.283        0.074      339.475       12.830      855.587
03/25/2014  13:03:00     -417.834     -214.312       -0.674      192.078      151.062       95.603    36893.941    22819.742     9139.871       14.467        3.443      469.590       97.990        0.044      339.481       12.840      855.630
03/25/2014  13:04:00     -532.972     -154.930      -33.133      231.309      183.485      104.588    53503.779    33666.829    10938.568       20.362        4.905      555.033      114.736        0.043      339.479       12.836      855.613
03/25/2014  13:05:00     -255.330      -44.473       36.589      232.656      145.942      103.482    54128.868    21299.180    10708.443        7.731        4.307      259.174      116.601        0.202      339.667       13.153      855.551
03/25/2014  13:06:00     -414.943     -197.740      -15.501      252.704      203.834      100.935    63859.551    41548.219    10187.817       16.354        5.780      459.651      114.411        0.062      339.604       13.048      855.521
03/25/2014  13:07:00     -506.653     -214.925       -9.541      233.648      228.084      108.082    54591.343    52022.435    11681.768       21.062        5.915      550.355      125.658        0.052      339.556       12.966      855.480
03/25/2014  13:08:00     -287.263     -103.321       10.451      214.039      206.890      109.541    45812.839    42803.516    11999.240        9.694        5.031      305.279      113.052        0.137      339.631       13.093      855.506
03/25/2014  13:09:00     -358.254      -70.174      -16.649      232.703      139.799       91.336    54150.762    19543.749     8342.345       10.778        4.102      365.062      104.057        0.081      339.599       13.039      855.544
03/25/2014  13:10:00     -365.633     -243.071      -10.214      235.489      182.698      107.740    55455.222    33378.485    11607.903       14.664        5.022      439.057      117.139        0.071      339.594       13.030      855.567
03/25/2014  13:11:00     -298.467      -94.142        1.143      208.371      140.783       92.902    43418.670    19819.908     8630.761        8.490        3.593      312.962      106.153        0.115      339.627       13.087      855.547
03/25/2014  13:12:00     -235.410      -78.413       -4.388      151.876      122.236       56.735    23066.381    14941.528     3218.882        5.140        2.061      248.126       55.921        0.051      339.632       13.097      855.502
03/25/2014  13:13:00     -342.133     -178.772       -5.682      215.243      178.546       98.055    46329.587    31878.757     9614.832       11.842        4.391      386.024      113.485        0.086      339.661       13.144      855.502
03/25/2014  13:14:00     -237.373     -128.534       36.005      235.429      167.372      117.660    55426.638    28013.331    13843.945        8.571        4.864      269.939      136.271        0.255      339.699       13.207      855.563
03/25/2014  13:15:00     -382.542     -257.190        9.213      267.139      229.791      128.366    71363.227    52803.838    16477.845       17.658        7.032      460.961      148.983        0.104      339.638       13.105      855.573
03/25/2014  13:16:00     -445.419     -249.298       -9.678      200.345      139.338      103.520    40138.189    19415.200    10716.375       16.544        3.513      510.439      105.325        0.043      339.590       13.024      855.543
03/25/2014  13:17:00     -412.709     -191.476      -13.566      267.955      166.410       94.888    71799.981    27692.329     9003.795       15.782        5.425      454.963      111.389        0.060      339.580       13.007      855.559
03/25/2014  13:18:00     -523.732     -291.713      -17.154      198.077      230.713      110.285    39234.459    53228.700    12162.824       23.214        5.231      599.493      108.877        0.033      339.438       12.768      855.562
03/25/2014  13:19:00     -477.682     -291.592       -8.136      217.668      194.422      106.792    47379.153    37799.726    11404.614       20.491        4.829      559.648      118.948        0.045      339.385       12.677      855.548
03/25/2014  13:20:00     -500.960     -192.356      -10.129      264.737      202.746      105.401    70085.933    41106.031    11109.374       20.516        6.115      536.621      116.232        0.047      339.542       12.943      855.516
03/25/2014  13:21:00     -381.163     -162.487       -2.110      265.464      212.613      108.470    70470.991    45204.272    11765.788       14.955        6.372      414.352      126.017        0.092      339.497       12.866      855.544
03/25/2014  13:22:00     -265.872     -117.017       19.309      256.512      195.656      113.965    65798.191    38281.201    12988.074       10.089        5.853      290.484      130.843        0.203      339.572       12.995      855.484
03/25/2014  13:23:00     -306.932     -216.648        2.758      183.952      151.059       98.833    33838.375    22818.810     9767.929       10.378        3.321      375.691      100.474        0.072      339.504       12.881      855.477
03/25/2014  13:24:00     -398.854      -82.895       -8.013      256.523      159.781       94.798    65804.157    25529.992     8986.580       13.315        5.016      407.377      118.098        0.084      339.569       12.989      855.448
03/25/2014  13:25:00     -263.945      -97.218       -5.614      194.397      139.851       84.884    37790.369    19558.349     7205.345        7.184        3.228      281.279       86.376        0.094      339.679       13.176      855.476
03/25/2014  13:26:00     -409.486      -78.355       -5.356      264.408      219.574       92.727    69911.336    48212.817     8598.369       15.026        6.336      416.916      114.181        0.075      339.642       13.113      855.486
03/25/2014  13:27:00     -499.052     -134.199      -41.083      145.767      158.543       79.213    21248.027    25135.858     6274.712       16.070        2.633      516.781       68.083        0.017      339.598       13.036      855.496
03/25/2014  13:28:00     -144.451      -31.846       13.347      183.324      112.307       74.662    33607.628    12612.961     5574.416        3.692        2.590      147.920       88.835        0.361      339.773       13.334      855.429
03/25/2014  13:29:00     -589.985      -52.658      -34.434      278.874      208.062      110.467    77770.716    43289.949    12203.018       24.263        6.663      592.331      120.211        0.041      339.648       13.121      855.385
03/25/2014  13:30:00     -458.300      -42.104      -30.989      217.631      174.804       95.490    47363.059    30556.545     9118.349       14.989        4.352      460.230       94.561        0.042      339.661       13.144      855.378
03/25/2014  13:31:00     -228.628     -159.020       -7.296      142.201      139.911       86.066    20221.040    19575.043     7407.365        6.240        2.360      278.493       69.052        0.061      339.791       13.364      855.367
03/25/2014  13:32:00     -187.847      -15.718        2.004      137.607      101.466       72.589    18935.818    10295.448     5269.173        3.501        1.725      188.503       58.284        0.096      339.918       13.577      855.456
03/25/2014  13:33:00     -396.978     -114.538      -10.089      244.426      149.514      100.288    59743.878    22354.478    10057.680       13.147        4.608      413.171      117.360        0.081      339.679       13.176      855.510
03/25/2014  13:34:00     -316.299     -134.657      -10.466      219.866      211.318       92.115    48340.923    44655.427     8485.101       10.987        5.074      343.770      107.811        0.098      339.609       13.057      855.527
03/25/2014  13:35:00     -521.217     -320.293      -23.424      259.980      153.751      106.006    67589.729    23639.384    11237.310       23.862        5.123      611.763      122.704        0.040      339.425       12.746      855.581
03/25/2014  13:36:00     -559.971     -332.171      -13.334      248.159      187.737      103.620    61582.879    35245.151    10737.062       26.581        5.378      651.080       97.441        0.022      339.409       12.719      855.533
03/25/2014  13:37:00     -491.577     -417.634       -9.087      253.854      220.071      136.055    64441.975    48431.453    18510.998       27.374        6.569      645.031      149.869        0.054      339.426       12.748      855.500
03/25/2014  13:38:00     -483.650     -122.419       -9.050      258.963      162.765       87.400    67061.659    26492.499     7638.694       17.507        5.060      498.902      113.894        0.052      339.487       12.851      855.501
03/25/2014  13:39:00     -502.181     -113.374       -9.257      235.855      201.614      100.390    55627.554    40648.145    10078.052       18.572        5.318      514.819      107.264        0.043      339.558       12.970      855.493
03/25/2014  13:40:00     -530.690     -114.733      -20.268      290.116      218.873       93.606    84167.306    47905.358     8762.153       21.800        7.042      542.951      101.889        0.035      339.564       12.979      855.466
03/25/2014  13:41:00     -790.814      -98.980      -40.749      266.519      188.647      117.090    71032.235    35587.842    13710.026       37.857        6.017      796.984      131.854        0.027      339.313       12.557      855.403
03/25/2014  13:42:00     -618.881     -120.377      -37.880      240.742      214.567       96.214    57956.789    46039.007     9257.200       25.608        5.663      630.480       98.305        0.024      339.430       12.754      855.420
03/25/2014  13:43:00     -339.818     -126.217       -1.897      194.994      190.136       93.224    38022.674    36151.884     8690.652       10.712        4.143      362.501       94.568        0.068      339.498       12.871      855.518
03/25/2014  13:44:00     -661.082     -130.747      -29.136      271.325      207.091      112.675    73617.305    42886.613    12695.706       29.206        6.460      673.888      128.838        0.037      339.431       12.756      855.568
03/25/2014  13:45:00     -533.264     -175.278      -45.501      246.353      248.292      102.934    60689.603    61648.900    10595.409       22.503        6.647      561.331      114.742        0.042      339.478       12.834      855.598
03/25/2014  13:46:00     -479.048     -274.747       -6.492      244.303      196.319      107.688    59683.922    38541.112    11596.680       20.740        5.491      552.244      120.632        0.048      339.337       12.597      855.568
03/25/2014  13:47:00     -400.866     -235.672      -13.960      260.992      175.081      108.232    68116.919    30653.315    11714.149       16.344        5.524      465.010      128.874        0.077      339.444       12.778      855.559
03/25/2014  13:48:00     -468.397     -121.076      -22.273      220.768      216.860       94.110    48738.729    47028.217     8856.697       16.957        5.231      483.793       94.734        0.038      339.389       12.685      855.576
03/25/2014  13:49:00     -509.971     -129.495      -27.549      187.102      231.783       81.192    35006.985    53723.351     6592.204       18.644        4.766      526.155       74.928        0.020      339.300       12.536      855.534
03/25/2014  13:50:00     -448.946      -96.669       -1.905      241.842      156.248       92.407    58487.728    24413.431     8539.133       15.116        4.572      459.236      104.193        0.051      339.419       12.736      855.527
03/25/2014  13:51:00     -474.302      -63.115      -13.886      223.972      197.586       92.318    50163.667    39040.178     8522.563       16.342        4.886      478.483      106.348        0.049      339.440       12.771      855.467
03/25/2014  13:52:00     -601.398      -72.685      -22.091      308.202      201.392      120.356    94988.258    40558.752    14485.456       25.872        7.502      605.774      148.545        0.060      339.458       12.803      855.432
03/25/2014  13:53:00     -543.631     -357.156      -18.506      250.166      216.792      126.362    62583.156    46998.581    15967.402       27.447        6.277      650.458      148.530        0.052      339.421       12.740      855.455
03/25/2014  13:54:00     -588.564     -376.531      -21.078      302.752      264.345      140.852    91658.845    69878.029    19839.195       33.497        9.069      698.701      161.538        0.053      339.325       12.577      855.448
03/25/2014  13:55:00     -476.065     -359.784        1.198      333.244      270.075      146.003   111051.326    72940.317    21316.740       28.066       10.265      596.726      169.081        0.080      339.357       12.632      855.520
03/25/2014  13:56:00     -463.398     -293.989      -18.453      232.405      194.085      116.777    54012.183    37668.968    13636.955       20.340        5.266      548.787      120.836        0.048      339.289       12.518      855.539
03/25/2014  13:57:00     -548.658      -68.965      -40.261      248.523      172.068       96.433    61763.684    29607.413     9299.247       20.402        5.034      552.975      116.297        0.044      339.324       12.576      855.551
03/25/2014  13:58:00     -397.020     -157.837       12.308      262.013      175.194      111.860    68650.557    30693.112    12512.553       14.725        5.593      427.244      137.409        0.103      339.421       12.741      855.553
03/25/2014  13:59:00     -461.011     -162.186      -30.179      322.932      162.643      110.099   104285.048    26452.768    12121.697       19.128        7.143      488.708      131.024        0.072      339.400       12.704      855.489
03/25/2014  14:00:00     -725.905     -317.501      -25.374      286.245      243.126      136.319    81936.331    59110.047    18582.968       39.398        7.981      792.304      133.605        0.028      339.366       12.645      855.517
03/25/2014  14:01:00     -470.795     -316.966       18.324      268.300      232.297      128.250    71985.033    53961.843    16448.029       23.240        7.120      567.552      147.823        0.068      339.327       12.581      855.580
03/25/2014  14:02:00     -399.448     -175.783        7.692      233.203      174.658       87.541    54383.522    30505.322     7663.350       14.152        4.628      436.415       98.716        0.051      339.409       12.721      855.596
03/25/2014  14:03:00     -303.368     -181.989        5.735      233.116      150.303      100.692    54342.866    22591.142    10138.949       10.611        4.354      353.769       96.750        0.075      339.377       12.666      855.656
03/25/2014  14:04:00     -454.872     -250.439      -21.721      206.762      213.999      105.099    42750.687    45795.444    11045.767       18.483        4.980      519.257       99.732        0.037      339.316       12.562      855.635
03/25/2014  14:05:00     -388.521     -141.660       -3.209      231.697      188.550       98.723    53683.540    35551.168     9746.224       13.499        4.949      413.541      112.091        0.073      339.307       12.547      855.666
03/25/2014  14:06:00     -400.616      -49.632      -12.503      204.096      163.147       92.275    41655.126    26616.914     8514.626       11.994        3.839      403.678      102.779        0.065      339.389       12.686      855.730
03/25/2014  14:07:00     -609.985      -35.843      -31.861      218.598      184.143       95.302    47785.030    33908.826     9082.523       23.256        4.539      611.037      104.043        0.029      339.223       12.407      855.733
03/25/2014  14:08:00     -564.742     -178.315       -7.839      240.882      214.506       98.869    58024.080    46012.721     9775.062       23.228        5.691      592.225      117.603        0.039      339.280       12.500      855.744
03/25/2014  14:09:00     -635.852      -76.987      -41.682      239.252      170.534       94.097    57241.479    29081.758     8854.287       25.356        4.759      640.496      108.714        0.029      339.228       12.415      855.710
03/25/2014  14:10:00     -481.749     -170.343       -0.328      305.646      215.517      118.989    93419.755    46447.510    14158.430       20.754        7.701      510.979      129.969        0.065      339.270       12.486      855.677
03/25/2014  14:11:00     -372.774     -199.375        2.243      259.383      187.141       95.252    67279.536    35021.884     9072.888       14.503        5.569      422.742      113.421        0.072      339.245       12.444      855.660
03/25/2014  14:12:00     -365.983      -86.295      -15.148      266.026      165.964      103.821    70769.620    27544.092    10778.780       12.534        5.455      376.019      119.368        0.101      339.296       12.529      855.652
03/25/2014  14:13:00     -430.854      -75.472      -34.450      152.720      158.756       85.008    23323.444    25203.377     7226.325       12.413        2.788      437.414       77.055        0.031      339.284       12.507      855.622
03/25/2014  14:14:00     -444.364      -14.060        0.485      233.906      146.153       99.128    54711.953    21360.602     9826.323       14.176        4.295      444.587      109.629        0.061      339.339       12.600      855.614
03/25/2014  14:15:00     -396.910     -165.107      -30.324      204.592      155.533      100.899    41857.686    24190.526    10180.637       13.096        3.811      429.881      107.673        0.063      339.346       12.613      855.629
03/25/2014  14:16:00     -377.573     -161.270        1.293      252.713      165.215       96.542    63863.687    27295.957     9320.381       13.451        5.024      410.572      116.869        0.081      339.385       12.679      855.645
03/25/2014  14:17:00     -499.964     -140.401      -25.407      196.182      177.468       85.781    38487.248    31494.798     7358.345       17.382        3.867      519.303       74.612        0.021      339.267       12.480      855.628
03/25/2014  14:18:00     -498.905     -203.485      -26.899      211.232      158.300       85.586    44618.938    25058.879     7324.991       18.401        3.850      538.806       95.050        0.031      339.231       12.420      855.605
03/25/2014  14:19:00     -375.736     -174.964        3.009      190.352      149.874       77.447    36233.937    22462.251     5997.986       11.824        3.235      414.476       88.492        0.046      339.277       12.496      855.617
03/25/2014  14:20:00     -463.396     -261.980      -19.817      241.519      169.939      114.268    58331.609    28879.190    13057.149       19.200        5.013      532.325      130.461        0.060      339.301       12.537      855.629
03/25/2014  14:21:00     -420.636     -154.826      -18.564      184.496      165.980       81.283    34038.779    27549.209     6606.855       13.471        3.410      448.225       82.448        0.034      339.301       12.538      855.608
03/25/2014  14:22:00     -378.620      -85.849       -7.707      151.478      118.272       75.942    22945.505    13988.287     5767.125        9.673        2.135      388.231       67.970        0.031      339.279       12.500      855.574
03/25/2014  14:23:00     -387.651      -90.097      -34.913      123.639      149.295       60.522    15286.610    22289.029     3662.899       10.042        2.062      397.983       47.762        0.014      339.242       12.439      855.477
03/25/2014  14:24:00     -558.017      -24.426      -45.279      195.717      145.812       81.187    38305.194    21261.157     6591.254       19.008        3.308      558.552       87.973        0.025      339.191       12.354      855.412
03/25/2014  14:25:00     -577.681     -159.132      -21.066      210.680      155.448       83.572    44385.957    24164.000     6984.354       21.750        3.777      599.198       98.368        0.027      339.207       12.379      855.366
03/25/2014  14:26:00     -363.075     -161.343        5.257      220.778      148.459       71.765    48742.722    22039.976     5150.150       11.690        3.797      397.310       86.298        0.047      339.289       12.517      855.375
03/25/2014  14:27:00     -390.909     -133.592      -11.540      261.716      235.505      103.064    68495.266    55462.381    10622.213       15.266        6.729      413.106       90.671        0.048      339.286       12.511      855.353
03/25/2014  14:28:00     -550.221     -114.986      -44.087      134.430      164.856       73.623    18071.298    27177.538     5420.365       18.428        2.533      562.108       67.819        0.015      339.258       12.464      855.401
03/25/2014  14:29:00     -522.503      -54.941      -12.653      251.219      176.920      105.239    63111.142    31300.788    11075.232       19.082        5.274      525.384      119.833        0.052      339.276       12.494      855.358
03/25/2014  14:30:00     -528.305     -127.289      -16.027      169.160      172.852       86.347    28615.241    29877.669     7455.810       18.075        3.297      543.423       78.239        0.021      339.220       12.401      855.294
03/25/2014  14:31:00     -377.681     -125.841       -2.461      178.221      152.035       82.289    31762.765    23114.706     6771.441       11.006        3.082      398.094       81.604        0.042      339.365       12.644      855.287
03/25/2014  14:32:00     -440.256      -80.340      -33.900      184.670      167.420       77.106    34102.920    28029.572     5945.270       13.474        3.404      447.527       91.383        0.042      339.361       12.637      855.249
03/25/2014  14:33:00     -454.176     -111.916      -16.866      217.122      167.468       87.803    47142.043    28045.581     7709.430       15.098        4.145      467.762      102.856        0.048      339.273       12.490      855.247
03/25/2014  14:34:00     -369.326     -174.666       -7.415      219.418      166.785       95.153    48144.372    27817.325     9054.015       12.598        4.251      408.546      118.792        0.085      339.310       12.551      855.249
03/25/2014  14:35:00     -306.430     -152.699       10.405      239.030      175.687       92.086    57135.165    30866.027     8479.837       10.689        4.824      342.368      121.116        0.125      339.298       12.532      855.208
03/25/2014  14:36:00     -434.283     -221.352       -3.688      222.547      146.780       80.769    49527.301    21544.459     6523.590       15.759        3.880      487.440      104.133        0.046      339.257       12.464      855.167
03/25/2014  14:37:00     -198.527       -1.212       21.427      174.946      104.482       88.129    30606.212    10916.510     7766.790        4.457        2.464      198.531       89.516        0.203      339.396       12.699      855.143
03/25/2014  14:38:00     -381.104      -21.790      -21.928      141.410      134.979       65.692    19996.771    18219.367     4315.474        9.436        2.127      381.726       60.556        0.025      339.311       12.553      855.171
03/25/2014  14:39:00     -494.850     -153.510      -35.349      202.570      168.888      102.238    41034.730    28523.258    10452.524       17.484        4.001      518.114      102.927        0.039      339.271       12.486      855.201
03/25/2014  14:40:00     -443.311     -104.672        2.187      209.694      146.103       93.809    43971.625    21346.034     8800.149       14.079        3.706      455.500       94.608        0.043      339.219       12.400      855.226
03/25/2014  14:41:00     -333.383      -39.041      -14.759      164.648      128.347       66.644    27108.963    16472.981     4441.413        8.045        2.401      335.661       68.107        0.041      339.291       12.521      855.266
03/25/2014  14:42:00     -438.149     -151.847      -20.589      142.020      121.580       66.656    20169.553    14781.651     4442.971       12.742        1.970      463.716       67.341        0.021      339.189       12.348      855.239
03/25/2014  14:43:00     -336.335      -93.475       -4.476      163.128      108.735       66.593    26610.877    11823.220     4434.582        8.237        2.143      349.083       73.664        0.045      339.222       12.405      855.202
03/25/2014  14:44:00     -161.035     -375.731       10.998      129.612      191.908       72.894    16799.312    36828.805     5313.549       11.307        2.947      408.786       71.843        0.031      339.238       12.430      855.285
03/25/2014  14:45:00     -128.465     -173.733       23.730      122.390      121.180       64.972    14979.418    14684.540     4221.413        4.056        1.694      216.070       54.713        0.064      339.305       12.543      855.206
03/25/2014  14:46:00      -77.535     -241.580        0.238      118.094       68.940       55.561    13946.274     4752.678     3086.973        4.308        1.089      253.718       52.452        0.043      339.202       12.370      855.133
03/25/2014  14:47:00      -63.255     -266.620        2.021       69.140       65.228       32.999     4780.405     4254.748     1088.947        4.261        0.506      274.021       22.563        0.007      339.214       12.391      855.057
03/25/2014  14:48:00     -161.850     -105.797       -0.681      106.587       80.811       44.638    11360.726     6530.365     1992.593        2.863        0.994      193.361       58.707        0.092      339.278       12.499      855.006
03/25/2014  14:49:00     -263.075      -74.556      -15.028       95.289       67.096       42.972     9079.905     4501.865     1846.606        4.521        0.771      273.436       37.825        0.019      339.316       12.562      854.977
03/25/2014  14:50:00     -142.218     -122.279       19.792      141.169       90.764       67.642    19928.588     8238.030     4575.454        3.415        1.637      187.559       79.333        0.179      339.439       12.771      854.951
03/25/2014  14:51:00     -240.878     -179.846        5.761      159.614      130.578       66.417    25476.551    17050.595     4411.268        6.866        2.347      300.611       74.249        0.061      339.392       12.690      854.951
03/25/2014  14:52:00     -238.020     -156.991       14.555      147.501      116.367       67.982    21756.488    13541.206     4621.533        6.071        1.996      285.132       68.599        0.058      339.457       12.800      854.924
03/25/2014  14:53:00     -190.273      -80.814        7.636      142.472       98.737       60.924    20298.383     9749.008     3711.710        3.827        1.688      206.724       69.250        0.112      339.521       12.909      854.913
03/25/2014  14:54:00     -363.293     -202.363       -3.412      227.996      228.541      109.163    51982.019    52230.856    11916.618       14.452        5.806      415.851      116.950        0.079      339.434       12.762      854.861
03/25/2014  14:55:00     -397.590     -139.257       21.024      275.307      257.971      121.497    75794.144    66549.133    14761.558       16.748        7.855      421.272      138.136        0.108      339.398       12.700      854.835
03/25/2014  14:56:00     -447.377     -272.725      -17.105      217.241      212.917       84.835    47193.552    45333.695     7196.997       18.725        4.986      523.952       95.169        0.033      339.282       12.507      854.849
03/25/2014  14:57:00     -532.293     -304.330      -36.484      193.624      187.360       98.713    37490.332    35103.923     9744.341       22.980        4.117      613.149      105.802        0.030      339.215       12.393      854.810
03/25/2014  14:58:00     -301.598     -151.025        1.564      210.618      143.540       79.604    44359.793    20603.767     6336.794        9.252        3.565      337.298      108.964        0.104      339.202       12.371      854.784
03/25/2014  14:59:00     -248.652      -55.728       -1.813      215.099      160.508       83.835    46267.388    25762.970     7028.244        7.198        3.953      254.820      102.525        0.162      339.350       12.622      854.773
03/25/2014  15:00:00     -530.836     -243.143      -27.428      258.196      181.011       98.165    66665.285    32764.915     9636.448       22.534        5.453      583.871       94.695        0.026      339.186       12.343      854.760
03/25/2014  15:01:00     -450.134     -151.970      -35.537      186.635      168.303       78.963    34832.579    28325.950     6235.088       14.817        3.470      475.096       86.002        0.033      339.177       12.329      854.746
03/25/2014  15:02:00     -551.623     -111.528      -28.915      244.079      226.953      106.178    59574.584    51507.477    11273.857       21.994        6.118      562.784      110.166        0.038      339.118       12.229      854.694
03/25/2014  15:03:00     -486.412     -222.617      -43.742      292.836      225.153      108.749    85752.847    50693.918    11826.351       21.815        7.414      534.935      125.250        0.055      339.087       12.179      854.648
03/25/2014  15:04:00     -240.042     -118.340       19.016      212.957      154.148       98.978    45350.823    23761.455     9796.704        7.543        3.945      267.627      111.064        0.172      339.179       12.331      854.597
03/25/2014  15:05:00     -429.606     -212.901      -22.268      200.413      175.255       86.198    40165.489    30714.368     7430.179       15.433        3.916      479.466       81.061        0.029      339.131       12.251      854.595
03/25/2014  15:06:00     -257.501     -175.224       18.347      246.433      224.177      117.903    60729.413    50255.253    13901.206       11.110        6.244      311.465      137.267        0.194      339.152       12.286      854.585
03/25/2014  15:07:00     -489.569     -232.732       -3.103      230.235      184.681      104.790    53008.006    34107.024    10980.997       19.596        4.905      542.072      116.612        0.046      339.113       12.222      854.598
03/25/2014  15:08:00     -218.285     -171.760       -2.142      189.405      165.050       98.073    35874.158    27241.597     9618.255        7.493        3.637      277.758      113.831        0.168      339.190       12.350      854.592
03/25/2014  15:09:00     -482.486     -189.605      -10.274      304.312      183.154       96.313    92606.033    33545.456     9276.140       20.212        6.771      518.404      122.361        0.056      339.135       12.259      854.514
03/25/2014  15:10:00     -609.453     -165.944      -28.772      221.618      206.154      108.612    49114.659    42499.491    11796.471       25.159        5.171      631.641      123.079        0.038      339.066       12.142      854.500
03/25/2014  15:11:00     -384.022     -176.700      -12.521      201.441      145.353       82.831    40578.352    21127.560     6861.004       12.370        3.428      422.724       83.197        0.039      339.104       12.205      854.520
03/25/2014  15:12:00     -239.530      -77.333       14.580      189.452      142.628       78.808    35891.950    20342.607     6210.676        6.300        3.122      251.705       77.586        0.095      339.062       12.136      854.494
03/25/2014  15:13:00      -77.291      -65.974        3.275      109.409       89.271       64.189    11970.344     7969.349     4120.226        1.719        1.203      101.620       51.940        0.261      339.165       12.309      854.438
03/25/2014  15:14:00     -154.872      -44.965       -1.540      127.011       91.170       74.046    16131.919     8311.890     5482.750        2.796        1.496      161.267       76.154        0.223      339.234       12.425      854.421
03/25/2014  15:15:00     -443.731     -105.849      -14.787      213.594      166.770       92.017    45622.365    27812.089     8467.143       14.510        4.095      456.181       98.146        0.046      339.049       12.113      854.401
03/25/2014  15:16:00     -543.465      -25.021      -28.939      308.642      149.045      105.379    95259.998    22214.511    11104.816       21.268        6.429      544.040      142.541        0.069      338.961       11.967      854.357
03/25/2014  15:17:00     -259.919     -101.809       -3.980      290.849      198.788      113.157    84593.128    39516.667    12804.574       10.740        6.846      279.147      137.215        0.242      339.034       12.089      854.337
03/25/2014  15:18:00     -269.631     -172.081       -3.577      215.112      160.168      105.123    46272.984    25653.694    11050.823        9.264        4.149      319.864      111.134        0.121      338.991       12.016      854.346
03/25/2014  15:19:00     -293.233       -5.483       -0.912      216.652      144.330       92.566    46937.941    20831.262     8568.543        8.116        3.817      293.285       94.388        0.104      339.041       12.101      854.396
03/25/2014  15:20:00     -424.761      -53.187      -21.203      282.384      153.871       81.252    79740.506    23676.295     6601.877       14.684        5.501      428.078       89.582        0.044      338.920       11.896      854.421
03/25/2014  15:21:00     -545.821      -54.506      -47.130      278.075      219.670       93.350    77325.697    48254.906     8714.253       21.868        6.715      548.536      106.125        0.037      338.799       11.693      854.431
03/25/2014  15:22:00     -412.957     -108.585      -11.847      270.114      197.780      117.064    72961.370    39116.846    13704.008       15.410        6.289      426.994      136.616        0.102      338.884       11.837      854.425
03/25/2014  15:23:00     -470.527      -93.182      -19.065      222.202      140.923      109.362    49373.737    19859.227    11960.147       15.580        4.060      479.665      119.401        0.062      338.842       11.766      854.400
03/25/2014  15:24:00     -339.869     -111.589      -43.466      143.850      145.357       82.506    20692.961    21128.742     6807.266        8.923        2.431      357.719       45.382        0.016      338.906       11.872      854.332
03/25/2014  15:25:00     -376.266      -89.640      -18.798      184.868      130.684       77.792    34176.031    17078.197     6051.635       10.363        2.865      386.796       91.328        0.056      339.029       12.080      854.363
03/25/2014  15:26:00     -309.542      -70.655      -17.063      162.080      133.700       75.630    26269.901    17875.746     5719.914        7.547        2.493      317.503       85.593        0.073      339.088       12.180      854.397
03/25/2014  15:27:00     -416.753       13.808      -14.023      217.980      142.342       79.862    47515.281    20261.334     6377.981       12.410        3.708      416.982      102.393        0.060      339.070       12.150      854.371
03/25/2014  15:28:00     -489.644       -7.343      -29.215      230.877      168.406       96.941    53304.236    28360.689     9397.589       16.585        4.553      489.699       86.915        0.032      338.969       11.978      854.360
03/25/2014  15:29:00     -466.437     -126.125      -16.094      196.279      166.458       82.056    38525.529    27708.338     6733.192       15.334        3.648      483.188       92.342        0.037      338.973       11.987      854.399
03/25/2014  15:30:00     -511.593      -87.441      -30.478      261.994      213.382       81.247    68640.742    45531.937     6601.103       19.552        6.039      519.012      102.015        0.039      338.987       12.009      854.382
03/25/2014  15:31:00     -552.885     -212.310      -12.935      240.748      164.364       85.885    57959.706    27015.620     7376.236       22.162        4.618      592.248      108.584        0.034      338.998       12.028      854.361
03/25/2014  15:32:00     -674.418     -243.701      -18.528      262.280      194.619      103.523    68791.035    37876.530    10717.084       31.596        5.869      717.098      121.643        0.029      339.068       12.144      854.349
03/25/2014  15:33:00     -443.386     -128.229      -29.576      208.143      204.683       97.111    43323.635    41895.285     9430.463       15.426        4.732      461.556      106.603        0.053      339.057       12.126      854.374
03/25/2014  15:34:00     -303.647     -184.729        2.966      156.454      162.155       86.463    24477.698    26294.360     7475.778        9.228        2.912      355.424       88.234        0.062      339.134       12.257      854.367
03/25/2014  15:35:00     -312.460     -150.120        0.746      173.845      120.828       72.761    30222.135    14599.462     5294.132        8.513        2.506      346.651       82.424        0.057      339.149       12.281      854.318
03/25/2014  15:36:00     -418.200     -169.689      -27.586      198.420      155.181       79.433    39370.500    24081.083     6309.620       13.709        3.488      451.315       83.296        0.034      339.125       12.241      854.310
03/25/2014  15:37:00     -460.183     -140.690       -4.112      229.028      192.671      109.268    52453.743    37121.989    11939.506       16.653        5.076      481.209      106.435        0.049      339.194       12.358      854.261
03/25/2014  15:38:00     -538.530     -158.799      -25.537      211.485      187.350       93.074    44725.806    35099.862     8662.815       20.217        4.424      561.455      104.707        0.035      339.068       12.145      854.256
03/25/2014  15:39:00     -415.769     -128.019      -23.510      226.871      221.795       81.654    51470.373    49193.169     6667.420       14.855        5.367      435.032       85.541        0.039      339.133       12.253      854.212
03/25/2014  15:40:00     -401.737     -120.059       -6.930      229.930      161.225       95.205    52867.979    25993.436     9064.068       13.188        4.396      419.293      113.568        0.073      339.012       12.051      854.246
03/25/2014  15:41:00     -230.235      -85.833       -8.947      147.315      117.010       70.830    21701.793    13691.423     5016.841        5.043        2.021      245.714       68.104        0.077      339.088       12.180      854.227
03/25/2014  15:42:00     -373.659     -143.687      -19.436      221.256      162.960       90.182    48954.320    26556.019     8132.817       12.213        4.182      400.334      100.934        0.064      339.184       12.341      854.168
03/25/2014  15:43:00     -702.148     -242.590      -16.771      289.080      216.517      110.487    83567.511    46879.805    12207.474       34.737        7.133      742.874      103.309        0.019      339.105       12.208      854.136
03/25/2014  15:44:00     -632.105     -221.218      -19.917      294.909      170.606      110.892    86971.112    29106.291    12297.027       28.861        6.419      669.697      133.031        0.039      339.122       12.237      854.213
03/25/2014  15:45:00     -518.446     -115.526      -17.285      243.655      200.505       95.940    59367.676    40202.308     9204.517       19.558        5.439      531.161      109.401        0.042      339.122       12.237      854.261
03/25/2014  15:46:00     -248.588     -130.713        2.868      194.738      124.182       75.714    37922.998    15421.173     5732.568        6.897        2.954      280.859       76.408        0.074      339.146       12.277      854.279
03/25/2014  15:47:00     -264.681     -142.584        2.314      205.062      151.239       79.618    42050.224    22873.200     6339.005        8.082        3.563      300.643       92.309        0.094      339.226       12.411      854.293
03/25/2014  15:48:00     -283.005      -60.686       18.382      199.975      171.333       99.446    39990.194    29355.044     9889.442        8.166        3.962      289.439      107.854        0.139      339.242       12.439      854.303
03/25/2014  15:49:00     -293.456      -21.521       -2.607      178.146      139.975       84.519    31735.900    19593.139     7143.461        7.252        2.924      294.244       92.182        0.098      339.254       12.459      854.257
03/25/2014  15:50:00     -477.798     -192.988      -20.131      225.939      160.047       91.660    51048.493    25614.923     8401.542       17.549        4.253      515.301       95.700        0.034      339.291       12.520      854.214
03/25/2014  15:51:00     -386.742     -230.741      -20.299      227.693      187.666       86.294    51844.279    35218.478     7446.667       14.885        4.725      450.345       95.818        0.045      339.322       12.572      854.190
03/25/2014  15:52:00     -426.229     -288.584      -15.742      279.950      184.576      115.285    78371.901    34068.309    13290.641       19.544        6.287      514.735      129.273        0.063      339.311       12.553      854.180
03/25/2014  15:53:00     -377.267     -328.522      -14.972      183.910      185.594       90.945    33822.739    34445.061     8270.941       16.350        3.827      500.257      111.383        0.050      339.363       12.641      854.272
03/25/2014  15:54:00     -347.656     -250.169        7.932      247.345      168.262      114.239    61179.419    28312.167    13050.532       14.301        5.127      428.310      124.512        0.085      339.356       12.630      854.267
03/25/2014  15:55:00     -611.821     -429.962       -4.182      275.631      196.758      112.325    75972.302    38713.760    12616.889       34.324        6.365      747.792      127.336        0.029      339.152       12.287      854.231
03/25/2014  15:56:00     -441.975     -416.924        8.794      285.585      231.413      133.370    81558.646    53551.756    17787.521       26.105        7.645      607.591      143.027        0.055      339.205       12.377      854.252
03/25/2014  15:57:00     -354.041     -274.493       26.735      247.536      157.407      101.016    61274.238    24776.899    10204.275       14.881        4.813      447.987      105.636        0.056      339.193       12.355      854.294
03/25/2014  15:58:00     -286.199     -148.224        5.842      158.245      187.133       66.052    25041.437    35018.784     4362.840        8.416        3.221      322.305       62.536        0.038      339.239       12.434      854.298
03/25/2014  15:59:00     -426.235     -214.437       -2.317      168.438      177.522       79.464    28371.239    31514.184     6314.589       14.692        3.310      477.137       65.211        0.019      339.252       12.454      854.285
03/25/2014  16:00:00     -276.850     -223.529        3.124      173.922      140.257       87.557    30248.958    19672.051     7666.196        9.209        2.879      355.824       88.044        0.061      339.311       12.554      854.286
03/25/2014  16:01:00     -217.340     -240.522       -2.634      143.302      131.738       69.228    20535.577    17355.015     4792.584        7.388        2.134      324.172       69.244        0.046      339.347       12.614      854.360
03/25/2014  16:02:00     -260.775     -214.102       -2.978      180.089      107.603       66.087    32432.036    11578.323     4367.446        8.111        2.419      337.406       71.643        0.045      339.343       12.608      854.364
03/25/2014  16:03:00      -68.156     -224.643      -33.645      108.369      134.759       72.475    11743.817    18159.861     5252.628        4.569        1.758      234.754       82.436        0.123      339.408       12.719      854.329
03/25/2014  16:04:00     -260.793     -172.847       -6.963      129.460       97.065       55.471    16759.825     9421.548     3077.051        6.359        1.463      312.873       49.645        0.025      339.208       12.380      854.334
03/25/2014  16:05:00     -278.469      -95.488        2.083      159.575      147.071       77.489    25464.334    21629.801     6004.551        6.987        2.655      294.386       75.301        0.065      339.250       12.451      854.331
03/25/2014  16:06:00     -332.651     -135.111       -4.757      176.769      143.858       79.015    31247.327    20695.193     6243.401        9.355        2.909      359.043       90.619        0.064      339.054       12.122      854.282
03/25/2014  16:07:00     -366.500     -152.146       -3.227      146.660      128.805       73.904    21509.211    16590.836     5461.854       10.051        2.178      396.826       65.882        0.028      339.131       12.250      854.240
03/25/2014  16:08:00     -151.792     -138.298        8.316       86.188      159.231       52.642     7428.318    25354.624     2771.188        3.889        1.778      205.346       52.286        0.065      339.226       12.413      854.218
03/25/2014  16:09:00     -211.407     -171.743        2.868      176.984      139.509       83.755    31323.494    19462.759     7014.825        6.599        2.890      272.376      100.963        0.137      339.211       12.387      854.227
03/25/2014  16:10:00     -153.590      -72.180        0.222      105.821      111.124       56.029    11198.003    12348.528     3139.243        2.774        1.334      169.705       56.851        0.112      339.094       12.190      854.191
03/25/2014  16:11:00      -81.687       10.296       34.001      110.912       79.973       43.924    12301.543     6395.678     1929.331        1.428        1.031       82.334       55.912        0.461      339.269       12.485      854.124
03/25/2014  16:12:00      -98.938     -110.362        6.298      116.821      114.087       59.825    13647.057    13015.849     3578.975        2.612        1.512      148.218       63.935        0.186      339.181       12.335      854.075
03/25/2014  16:13:00     -224.081     -104.968       -2.123      163.014      127.021       68.395    26573.602    16134.237     4677.908        5.430        2.369      247.449       79.228        0.103      339.206       12.378      854.060
03/25/2014  16:14:00     -318.688      -83.742       -0.677      162.722       94.988       63.819    26478.418     9022.693     4072.892        7.407        1.979      329.507       73.947        0.050      339.189       12.349      854.028
03/25/2014  16:15:00     -191.941     -149.198        8.573      109.263      118.932       62.381    11938.467    14144.885     3891.393        4.457        1.499      243.107       55.169        0.051      339.274       12.493      854.062
03/25/2014  16:16:00     -218.069     -121.629       -4.230       73.819       95.211       50.395     5449.304     9065.146     2539.624        3.971        0.853      249.696       47.367        0.036      339.184       12.340      854.065
03/25/2014  16:17:00      -87.923      -95.077       13.394      122.996       71.033       41.894    15127.958     5045.716     1755.088        1.944        1.096      129.500       52.508        0.164      339.302       12.542      854.035
03/25/2014  16:18:00      -25.232      -89.842        2.898       40.231       39.509       30.494     1618.516     1560.946      929.863        0.641        0.205       93.318       22.953        0.060      339.385       12.683      853.995
03/25/2014  16:19:00      -96.645      -59.912        8.503       54.145       53.837       31.149     2931.652     2898.420      970.262        0.990        0.340      113.709       23.602        0.043      339.423       12.745      853.969
03/25/2014  16:20:00     -102.721     -240.292      -10.437      104.253       97.008       52.764    10868.701     9410.630     2784.019        4.573        1.153      261.327       47.156        0.033      339.400       12.702      853.996
03/25/2014  16:21:00     -233.640     -171.373        1.581      169.519      115.797       61.296    28736.661    13409.035     3757.250        6.492        2.295      289.752       63.284        0.048      339.373       12.659      853.975
03/25/2014  16:22:00     -188.813      -70.085      -17.129      116.356      106.628       43.510    13538.641    11369.448     1893.156        3.382        1.340      201.401       38.015        0.036      339.167       12.314      853.974
03/25/2014  16:23:00      -92.156      -96.935       -4.857       66.094       54.967       40.609     4368.426     3021.361     1649.117        1.347        0.452      133.750       34.504        0.067      339.188       12.350      853.960
03/25/2014  16:24:00     -208.746     -168.367        5.987      117.473       99.687       72.282    13799.937     9937.479     5224.693        5.046        1.448      268.184       66.601        0.062      339.330       12.586      853.999
03/25/2014  16:25:00     -220.488     -170.948       14.270      138.319      126.055       66.761    19132.178    15889.897     4457.008        5.875        1.974      278.995       60.860        0.048      339.395       12.695      853.989
03/25/2014  16:26:00     -199.723     -142.025       -0.088      191.168      119.316       72.493    36545.020    14236.311     5255.228        5.804        2.802      245.072       80.112        0.107      339.356       12.630      853.943
03/25/2014  16:27:00     -214.858      -91.192       11.107      174.050      116.531       71.392    30293.338    13579.498     5096.818        5.178        2.448      233.410       86.822        0.138      339.382       12.674      853.917
03/25/2014  16:28:00     -254.339     -183.112       -9.981      186.814      108.738       61.001    34899.573    11823.937     3721.168        7.437        2.522      313.398       83.883        0.072      339.219       12.399      853.876
03/25/2014  16:29:00     -311.552     -136.787        2.989      145.431      130.194       77.086    21150.145    16950.414     5942.253        7.991        2.202      340.258       79.015        0.054      339.201       12.369      853.838
03/25/2014  16:30:00     -232.779     -102.048       10.110      157.327      105.295       66.959    24751.869    11087.061     4483.496        5.251        2.016      254.165       78.470        0.095      339.323       12.574      853.857
03/25/2014  16:31:00     -106.811      -27.106       11.434      105.916       54.809       54.792    11218.116     3004.064     3002.141        1.475        0.861      110.196       58.154        0.279      339.406       12.717      853.831
03/25/2014  16:32:00      -98.243      -63.348        6.758       65.953       49.536       35.023     4349.840     2453.789     1226.580        1.087        0.402      116.896       34.693        0.088      339.435       12.768      853.823
03/25/2014  16:33:00     -179.497      -61.401        4.925      117.777      103.826       59.209    13871.332    10779.832     3505.735        3.208        1.408      189.708       63.575        0.112      339.454       12.797      853.826
03/25/2014  16:34:00     -303.131      -62.175      -10.220      170.787      115.693       60.062    29168.044    13384.755     3607.427        7.100        2.308      309.442       69.609        0.051      339.236       12.429      853.817
03/25/2014  16:35:00     -257.494     -125.906      -30.375       99.642      136.343       57.354     9928.572    18589.430     3289.474        5.744        1.590      286.627       59.476        0.043      339.269       12.483      853.810
03/25/2014  16:36:00     -211.292     -213.404       -1.743      125.328      110.964       69.842    15707.209    12312.918     4877.933        6.154        1.645      300.309       55.567        0.034      339.386       12.679      853.844
03/25/2014  16:37:00     -262.121     -280.661       -9.017      122.881      254.808       66.588    15099.711    64926.890     4433.918       11.600        4.223      384.029       66.774        0.030      339.128       12.247      853.895
03/25/2014  16:38:00      -95.936      -65.896       24.465      138.176       86.074       57.797    19092.740     7408.676     3340.473        2.199        1.492      116.387       61.035        0.275      339.222       12.406      853.748
03/25/2014  16:39:00      -52.041     -146.412        9.578      113.505       91.225       52.719    12883.287     8322.016     2779.276        2.411        1.199      155.386       31.069        0.040      339.258       12.467      853.762
03/25/2014  16:40:00     -116.263     -101.109        1.268      103.110       68.907       38.931    10631.738     4748.109     1515.630        2.032        0.845      154.078       35.242        0.052      339.162       12.305      853.726
03/25/2014  16:41:00     -135.140     -266.587       -0.966      197.844      137.711       78.994    39142.391    18964.441     6240.025        7.683        3.217      298.884       74.325        0.062      339.204       12.374      853.772
03/25/2014  16:42:00     -215.648     -246.837        0.035      219.967      139.651       81.023    48385.696    19502.286     6564.673        9.093        3.723      327.769       92.265        0.079      339.170       12.317      853.675
03/25/2014  16:43:00     -182.387     -152.510       18.741      165.667      118.464       73.744    27445.574    14033.693     5438.203        5.189        2.346      237.748       81.321        0.117      339.228       12.416      853.655
03/25/2014  16:44:00     -113.687     -111.459       -1.239       82.024       60.911       51.491     6727.920     3710.176     2651.322        1.922        0.654      159.210       40.183        0.064      339.267       12.482      853.613
03/25/2014  16:45:00     -132.199       -2.149        1.997      127.605       74.454       51.894    16282.986     5543.421     2692.988        2.100        1.226      132.216       51.260        0.150      339.357       12.634      853.542
03/25/2014  16:46:00     -210.209      -72.888        6.138      127.317       91.641       54.727    16209.545     8398.120     2995.058        3.857        1.380      222.487       59.420        0.071      339.321       12.571      853.494
03/25/2014  16:47:00     -120.078     -173.199       19.686      188.098      113.833       66.537    35380.796    12957.888     4427.167        4.878        2.638      210.753       82.414        0.153      339.189       12.350      853.410
03/25/2014  16:48:00      -88.742     -193.943      -14.674      168.866      106.815       57.437    28515.779    11409.355     3298.954        4.446        2.161      213.282       67.323        0.100      339.375       12.663      853.355
03/25/2014  16:49:00       53.522     -346.089      -34.622      159.398      117.545       71.324    25407.610    13816.927     5087.183        8.407        2.216      350.203       55.099        0.025      339.368       12.650      853.372
03/25/2014  16:50:00     -208.801     -129.205      -37.945      103.564       96.437       51.657    10725.415     9300.065     2668.436        4.221        1.135      245.544       47.886        0.038      339.185       12.343      853.422
03/25/2014  16:51:00      -54.122      -35.179        7.773       60.406       44.299       25.942     3648.855     1962.389      673.013        0.525        0.314       64.551       25.131        0.152      339.251       12.456      853.398
03/25/2014  16:52:00     -196.798      -88.524        1.984       91.797       59.970       39.781     8426.604     3596.356     1582.542        3.009        0.680      215.792       38.954        0.033      339.236       12.429      853.410
03/25/2014  16:53:00     -174.509      -85.355        7.309       89.021       82.876       46.075     7924.815     6868.485     2122.925        2.735        0.846      194.265       40.280        0.043      339.248       12.448      853.435
03/25/2014  16:54:00     -217.956     -122.812        4.690      129.228      106.088       74.273    16699.870    11254.669     5516.470        4.803        1.674      250.175       78.039        0.097      339.133       12.255      853.411
03/25/2014  16:55:00     -157.506     -237.200        8.257      148.267      202.385       76.395    21983.027    40959.495     5836.144        7.495        3.439      284.731       90.351        0.101      339.231       12.420      853.424
03/25/2014  16:56:00     -129.103     -289.912       -6.652      144.337      131.175       49.129    20833.158    17206.846     2413.614        7.060        2.023      317.359       58.198        0.034      339.251       12.454      853.438
03/25/2014  16:57:00       -6.553      -36.653        9.650       64.527       52.917       32.271     4163.755     2800.217     1041.402        0.474        0.400       37.234       30.464        0.669      339.478       12.838      853.347
03/25/2014  16:58:00      -68.029      -17.915        8.862       39.756       37.480       26.474     1580.569     1404.747      700.857        0.436        0.184       70.348       26.625        0.143      339.387       12.683      853.326
03/25/2014  16:59:00     -115.146      -51.696       -6.886       63.762       41.870       23.159     4065.540     1753.060      536.318        1.117        0.318      126.219       16.262        0.017      339.353       12.628      853.302
03/25/2014  17:00:00      -45.567      -97.595      -32.483       78.581       58.552       39.467     6174.919     3428.279     1557.664        1.191        0.558      107.709       34.414        0.102      339.373       12.663      853.282
03/25/2014  17:01:00     -161.318     -130.311      -20.780       73.985       53.693       46.697     5473.822     2882.970     2180.564        2.699        0.527      207.375       36.139        0.030      339.259       12.466      853.309
03/25/2014  17:02:00     -114.955      -61.816        5.295       65.974       45.592       32.426     4352.626     2078.676     1051.462        1.227        0.374      130.522       29.982        0.053      339.343       12.608      853.326
03/25/2014  17:03:00     -130.123     -101.492        9.867       92.555       79.800       39.009     8566.489     6368.032     1521.704        2.189        0.823      165.023       34.503        0.044      339.410       12.722      853.331
03/25/2014  17:04:00      -57.289     -112.313       11.036       69.800       60.763       48.194     4872.043     3692.099     2322.688        1.345        0.544      126.080       33.315        0.070      339.274       12.495      853.322
03/25/2014  17:05:00     -188.571     -144.318       13.522      168.904      148.649       61.516    28528.424    22096.581     3784.159        5.548        2.720      237.459       65.237        0.075      339.407       12.718      853.306
03/25/2014  17:05:00     -335.000     -284.000       -1.000          NaN          NaN          NaN          NaN          NaN          NaN        9.644          NaN      439.182        0.000        0.000      339.260       12.480      853.340
03/25/2014  17:09:00     -188.718     -162.056        2.902      137.955      131.897       70.514    19031.538    17396.847     4972.240        5.163        2.070      248.750       87.534        0.124      339.399       12.703      853.244
03/25/2014  17:10:00     -200.850     -215.200      -10.310      184.067      114.912       69.017    33880.535    13204.789     4763.297        6.929        2.592      294.367       87.639        0.089      339.454       12.797      853.213
03/25/2014  17:11:00     -272.956     -191.234      -22.213      130.670      130.313       61.972    17074.725    16981.394     3840.555        7.472        1.895      333.279       56.839        0.029      339.438       12.769      853.167
03/25/2014  17:12:00     -112.054     -218.685        7.878      168.208      111.046       75.464    28293.946    12331.122     5694.775        5.337        2.316      245.722       90.213        0.135      339.591       13.027      853.192
03/25/2014  17:13:00     -223.598     -176.172      -10.041      147.877      105.535       64.017    21867.684    11137.624     4098.170        5.911        1.855      284.663       64.211        0.051      339.362       12.640      853.218
03/25/2014  17:14:00      -63.058      -87.128        1.090       74.080       49.634       34.342     5487.814     2463.539     1179.355        1.035        0.457      107.553       27.031        0.063      339.606       13.055      853.181
03/25/2014  17:15:00      -58.218      -82.360      -13.404       81.601       96.778       39.872     6658.667     9366.052     1589.804        1.398        0.881      100.859       37.212        0.136      339.593       13.032      853.153
03/25/2014  17:16:00       38.300      -47.762        9.574       41.075       81.160       40.817     1687.129     6587.023     1666.005        0.689        0.497       61.222       44.170        0.521      339.744       13.288      853.112
03/25/2014  17:17:00      -71.204      -68.866       -3.124       60.425       49.992       27.693     3651.216     2499.195      766.914        0.837        0.346       99.058       22.489        0.052      339.645       13.121      853.089
03/25/2014  17:18:00      -49.921      -90.319        8.101       76.040       70.993       34.261     5782.135     5039.996     1173.815        1.135        0.600      103.197       28.443        0.076      339.666       13.156      853.108
03/25/2014  17:19:00       -2.286      -36.415        5.921       77.533       54.684       37.962     6011.389     2990.381     1441.145        0.590        0.522       36.487       26.787        0.539      339.791       13.367      853.069
03/25/2014  17:20:00      -55.823     -117.051       -4.916      107.009       74.005       50.887    11450.917     5476.712     2589.480        1.818        0.976      129.681       56.219        0.188      339.770       13.331      853.043
03/25/2014  17:21:00      -65.621     -148.948        2.615       85.464       61.864       47.114     7304.149     3827.145     2219.773        1.992        0.668      162.762       39.301        0.058      339.824       13.419      853.007
03/25/2014  17:22:00     -100.997        4.957       -7.506       51.806       40.798       26.269     2683.889     1664.478      690.062        0.766        0.252      101.118       26.391        0.068      339.510       12.893      852.984
03/25/2014  17:23:00      -64.280        4.514       -3.875       41.052       31.514       21.142     1685.253      993.124      446.989        0.365        0.156       64.438       15.270        0.056      340.006       13.730      852.937
03/25/2014  17:24:00     -153.948     -150.720       -4.268      148.011       83.950       45.184    21907.109     7047.640     2041.567        3.871        1.550      215.445       44.857        0.043      339.625       13.083      852.930
03/25/2014  17:25:00     -178.152      -65.959        5.561      172.610       83.533       59.935    29794.158     6977.836     3592.211        3.823        2.018      189.971       81.368        0.183      339.522       12.911      852.914
03/25/2014  17:26:00      -39.173     -144.852       10.303      135.609       90.711       67.028    18389.765     8228.479     4492.763        2.686        1.556      150.055       53.039        0.125      339.662       13.147      852.913
03/25/2014  17:27:00     -118.806     -156.248       -5.159      176.202      132.828       78.845    31047.288    17643.148     6216.579        4.672        2.745      196.287       86.431        0.194      339.646       13.119      852.834
03/25/2014  17:28:00     -241.289     -136.866        8.314      151.281      109.181       55.699    22886.061    11920.448     3102.363        5.746        1.895      277.403       45.366        0.027      339.470       12.822      852.807
03/25/2014  17:29:00      -23.607     -132.792       -2.017      102.186      131.702       52.512    10441.880    17345.452     2757.463        2.436        1.527      134.874       45.964        0.116      339.588       13.023      852.835
03/25/2014  17:30:00      -93.851     -293.860      -18.668      165.085      221.972       85.505    27252.896    49271.601     7311.179        8.966        4.192      308.483       73.374        0.057      339.675       13.168      852.787
03/25/2014  17:31:00     -354.849     -277.815        1.737      273.389      185.884       94.875    74741.426    34552.736     9001.176       16.068        5.915      450.665       93.273        0.043      339.610       13.058      852.810
03/25/2014  17:32:00     -441.460     -220.470       -7.295      210.717      137.991       85.939    44401.660    19041.486     7385.559       15.717        3.541      493.451       99.797        0.041      339.242       12.437      852.781
03/25/2014  17:33:00     -196.909     -168.919       -2.173      141.799      111.213       61.438    20106.815    12368.380     3774.661        5.177        1.812      259.435       57.332        0.049      339.440       12.772      852.828
03/25/2014  17:34:00     -132.329     -214.733       17.973      161.756      165.564       78.130    26164.991    27411.319     6104.240        6.180        2.984      252.232       90.770        0.130      339.572       12.994      852.886
03/25/2014  17:35:00     -189.863     -324.434      -35.973      227.450      143.072       95.826    51733.508    20469.580     9182.713       11.198        4.069      375.906       71.644        0.036      339.407       12.716      852.880
03/25/2014  17:36:00      -86.972     -113.854       24.406      160.149       92.518       63.815    25647.671     8559.558     4072.387        2.969        1.914      143.272       59.867        0.175      339.653       13.133      852.840
03/25/2014  17:37:00     -204.623     -143.033       10.685      134.305       99.235       57.219    18037.864     9847.619     3274.024        4.680        1.558      249.658       69.103        0.077      339.473       12.827      852.828
03/25/2014  17:38:00     -237.143     -261.509      -20.410      143.156      123.614       72.744    20493.780    15280.522     5291.716        8.305        2.053      353.021       79.372        0.051      339.341       12.605      852.819
03/25/2014  17:39:00     -107.511      -39.028       -0.435      108.492       91.497       55.841    11770.416     8371.759     3118.264        1.817        1.163      114.376       20.021        0.031      339.587       13.022      852.785
03/25/2014  17:40:00     -207.685     -217.157       -5.515      147.832      123.899       70.439    21854.310    15351.059     4961.683        6.624        2.108      300.483       68.586        0.052      339.177       12.330      852.777
03/25/2014  17:41:00     -252.288     -150.706       -2.433      118.761       94.848       55.628    14104.249     8996.152     3094.466        5.628        1.310      293.874       57.056        0.038      339.200       12.367      852.768
03/25/2014  17:42:00     -186.085     -177.613      -21.074      110.237       83.360       52.962    12152.119     6948.818     2804.983        4.426        1.095      257.243       46.060        0.032      339.340       12.602      852.774
03/25/2014  17:43:00      -84.762     -141.269        0.450      114.443      124.198       52.945    13097.122    15425.089     2803.205        2.923        1.566      164.747       58.653        0.127      339.442       12.776      852.754
03/25/2014  17:44:00     -170.536     -164.177       -9.052       99.248       85.083       46.712     9850.221     7239.054     2182.005        3.769        0.964      236.720       45.363        0.037      339.310       12.552      852.668
03/25/2014  17:45:00     -271.217     -265.711      -17.527      138.642      121.077       59.921    19221.583    14659.729     3590.525        9.096        1.874      379.686       62.173        0.027      339.369       12.653      852.643
03/25/2014  17:46:00     -168.906      -94.022       20.884      142.056       94.102       77.323    20179.939     8855.209     5978.794        3.640        1.751      193.311       75.707        0.153      339.549       12.956      852.606
03/25/2014  17:47:00      -25.692      -47.772       -0.060       58.691       67.193       42.088     3444.625     4514.852     1771.368        0.633        0.487       54.243       32.854        0.367      339.708       13.226      852.596
03/25/2014  17:48:00     -110.175     -215.203       -6.501      192.967      147.197       73.074    37236.455    21667.081     5339.856        6.136        3.212      241.766       63.753        0.070      339.654       13.133      852.554
03/25/2014  17:49:00     -347.222     -269.543       17.479      218.154      170.255      100.550    47591.146    28986.686    10110.291       14.009        4.334      439.564      117.956        0.072      339.418       12.735      852.556
03/25/2014  17:50:00     -305.322     -165.361        6.780      225.987      178.926       96.472    51070.326    32014.561     9306.902       10.648        4.620      347.226      121.145        0.122      339.340       12.603      852.585
03/25/2014  17:51:00     -280.369     -239.884       -9.916      147.554      116.598       78.157    21772.230    13595.027     6108.499        8.885        2.074      368.987       89.267        0.059      339.143       12.271      852.623
03/25/2014  17:52:00     -399.540     -225.070      -12.661      163.365       90.701       69.082    26688.284     8226.705     4772.264       12.506        1.984      458.573       65.126        0.020      339.114       12.223      852.616
03/25/2014  17:53:00     -235.648      -32.851       -8.703      194.590       88.349       64.185    37865.389     7805.498     4119.742        5.323        2.490      237.927       90.338        0.144      339.347       12.616      852.627
03/25/2014  17:54:00     -307.670     -222.309        0.255      126.316      167.774       86.127    15955.726    28148.111     7417.823        9.779        2.576      379.581       86.386        0.052      339.356       12.628      852.641
03/25/2014  17:55:00     -503.430     -225.639       -8.793      301.626      181.949      105.030    90978.517    33105.606    11031.198       21.975        6.756      551.684      121.673        0.049      339.205       12.376      852.668
03/25/2014  17:56:00     -297.020      -91.770       14.275      199.867      153.377       77.026    39946.779    23524.556     5932.928        8.311        3.470      310.874       90.927        0.086      339.422       12.742      852.704
03/25/2014  17:57:00     -375.273     -165.227        5.814      190.716      161.610       87.143    36372.580    26117.743     7593.889       11.911        3.504      410.036       90.466        0.049      339.396       12.699      852.741
03/25/2014  17:58:00     -524.800       54.746      -46.191      239.584      216.959       76.526    57400.544    47071.031     5856.290       19.541        5.516      527.648       61.711        0.014      339.300       12.535      852.704
03/25/2014  17:59:00     -106.466      206.310      -17.757       83.981      151.764       56.691     7052.808    23032.240     3213.899        4.375        1.665      232.161       64.209        0.076      339.319       12.568      852.597
03/25/2014  18:00:00     -150.286      -25.487      -11.980       91.143      115.524       48.900     8306.996    13345.887     2391.240        2.371        1.202      152.432       42.000        0.076      339.676       13.171      852.651
03/25/2014  18:01:00     -208.119      -78.174        2.537      161.604      103.283       61.652    26115.851    10667.298     3800.978        4.500        2.029      222.317       80.132        0.130      339.489       12.855      852.699
03/25/2014  18:02:00     -305.069     -266.717        3.257      190.535      225.786      102.660    36303.620    50979.107    10539.015       13.100        4.891      405.223       92.527        0.052      339.235       12.426      852.692
03/25/2014  18:03:00     -452.856     -274.027        8.229      230.302      187.296      114.492    53039.197    35079.717    13108.366       19.071        5.061      529.310      104.961        0.039      339.217       12.396      852.663
03/25/2014  18:04:00     -435.187     -285.067       -1.678      186.680      180.132       93.545    34849.481    32447.674     8750.585       17.334        3.802      520.241       86.857        0.028      339.183       12.338      852.658
03/25/2014  18:05:00     -317.278     -191.366        8.866      211.646      188.277       86.445    44793.840    35448.288     7472.809       11.252        4.386      370.521      106.763        0.083      339.211       12.385      852.653
03/25/2014  18:06:00     -392.472     -294.866      -14.941      240.892      186.100      122.960    58028.895    34633.027    15119.223       17.447        5.389      490.897      130.394        0.071      339.108       12.213      852.588
03/25/2014  18:07:00     -393.158      -73.800       -8.297      198.279      171.702       79.724    39314.555    29481.477     6355.973       11.761        3.758      400.025       93.882        0.055      339.214       12.391      852.545
03/25/2014  18:08:00     -289.685       13.474        0.668      130.905      126.475       68.533    17136.119    15996.003     4696.788        6.096        1.891      289.998       66.562        0.053      339.338       12.600      852.553
03/25/2014  18:09:00     -244.688     -118.792      -11.734       94.223       75.197       48.638     8878.059     5654.643     2365.647        4.551        0.845      272.000       43.448        0.026      339.279       12.500      852.544
03/25/2014  18:10:00     -180.438     -125.806        3.690       88.641       63.690       45.706     7857.228     4056.392     2089.054        3.120        0.700      219.966       37.483        0.029      339.326       12.579      852.516
03/25/2014  18:11:00     -213.923     -182.406       -2.092      136.470      105.603       72.062    18624.033    11151.965     5192.861        5.700        1.748      281.132       65.689        0.055      339.316       12.563      852.462
03/25/2014  18:12:00     -321.736     -144.386       -9.779      128.366      102.572       66.045    16477.789    10520.951     4361.879        7.790        1.568      352.649       59.795        0.029      339.300       12.535      852.454
03/25/2014  18:13:00     -286.279     -103.361      -11.017      109.258       80.867       43.873    11937.373     6539.497     1924.846        5.658        1.020      304.367       44.212        0.021      339.220       12.400      852.482
03/25/2014  18:14:00     -116.969      -84.865       -1.048      133.010       94.843       60.395    17691.755     8995.204     3647.499        2.560        1.517      144.512       69.574        0.232      339.294       12.527      852.470
03/25/2014  18:15:00     -140.045      -72.335       -2.765      112.272       68.781       41.442    12604.950     4730.758     1717.398        2.195        0.953      157.623       55.781        0.125      339.307       12.548      852.455
03/25/2014  18:16:00     -168.378       27.102      -17.508       85.597       49.802       35.104     7326.809     2480.227     1232.314        2.021        0.552      170.545       41.117        0.058      339.535       12.931      852.431
03/25/2014  18:17:00     -199.955      -24.487       -2.389       86.342       65.863       42.997     7454.917     4337.909     1848.781        2.711        0.682      201.448       36.580        0.033      339.400       12.705      852.426
03/25/2014  18:18:00     -211.395      -30.564        1.182      102.220       91.461       49.030    10448.973     8365.112     2403.931        3.342        1.061      213.593       50.370        0.056      339.489       12.854      852.445
03/25/2014  18:19:00      -87.023      -32.426       16.956      111.666       71.083       41.666    12469.250     5052.827     1736.091        1.408        0.963       92.868       51.876        0.312      339.603       13.048      852.440
03/25/2014  18:20:00     -267.468     -187.573       -4.956      139.679      105.729       65.120    19510.230    11178.648     4240.650        7.083        1.746      326.685       63.297        0.038      339.254       12.459      852.438
03/25/2014  18:21:00     -146.414      -87.565      -18.431      121.024      105.513       56.867    14646.796    11132.892     3233.820        2.922        1.451      170.601       46.970        0.076      339.262       12.471      852.447
03/25/2014  18:22:00      -69.193      -65.212       13.132      118.995       92.530       56.783    14159.909     8561.837     3224.267        1.757        1.297       95.080       63.228        0.442      339.266       12.481      852.417
03/25/2014  18:23:00     -104.640     -150.857        0.019       90.772       86.446       36.182     8239.537     7472.913     1309.143        2.536        0.851      183.596       28.668        0.024      339.063       12.137      852.370
03/25/2014  18:24:00     -245.755     -105.898       -1.365      121.775      103.993       52.283    14829.078    10814.611     2733.560        4.999        1.419      267.600       55.582        0.043      339.117       12.227      852.366
03/25/2014  18:25:00     -256.822      -34.223      -12.234      117.022       79.533       52.875    13694.255     6325.573     2795.731        4.504        1.141      259.092       60.259        0.054      339.153       12.290      852.346
03/25/2014  18:26:00     -207.765     -101.677        0.041      162.274       87.805       55.791    26332.773     7709.684     3112.583        4.532        1.858      231.311       70.154        0.092      339.374       12.660      852.336
03/25/2014  18:27:00     -464.521     -318.522      -17.395      288.067      223.914      117.239    82982.745    50137.475    13745.010       23.217        7.343      563.237      135.727        0.058      339.164       12.306      852.294
03/25/2014  18:28:00     -357.644     -255.074       -7.512      230.037      183.973      102.619    52916.990    33846.135    10530.644       14.514        4.865      439.286      111.585        0.065      339.128       12.246      852.329
03/25/2014  18:29:00     -404.445     -207.034      -11.706      229.541      174.062       98.238    52688.955    30297.479     9650.802       14.959        4.632      454.355      116.017        0.065      339.076       12.159      852.387
03/25/2014  18:30:00     -202.738     -291.539        3.713      143.796      150.799       70.748    20677.160    22740.477     5005.259        8.726        2.421      355.103       74.433        0.044      339.060       12.131      852.429
03/25/2014  18:31:00     -254.987     -282.366      -18.824      157.628      141.538       68.505    24846.486    20033.036     4692.897        9.733        2.479      380.459       67.519        0.031      339.105       12.205      852.392
03/25/2014  18:32:00     -472.288     -270.917        3.836      255.380      160.692      104.363    65218.892    25822.012    10891.556       19.918        5.097      544.475      121.611        0.050      339.057       12.127      852.382
03/25/2014  18:33:00     -185.085      -62.892       22.877      181.304      143.226       96.221    32871.235    20513.760     9258.468        5.068        3.132      195.479      103.005        0.278      339.046       12.110      852.382
03/25/2014  18:34:00     -173.272      -65.750        8.517      175.763      139.948       71.021    30892.706    19585.311     5043.995        4.496        2.776      185.327       46.308        0.062      339.095       12.192      852.334
03/25/2014  18:35:00     -384.797     -238.815       -3.784      219.273      194.362      103.606    48080.526    37776.436    10734.280       15.083        4.830      452.881      100.717        0.049      338.989       12.012      852.327
03/25/2014  18:36:00     -509.756     -365.084      -24.671      209.721      190.208      107.845    43983.085    36179.204    11630.573       24.275        4.590      627.006      113.894        0.033      338.933       11.919      852.321
03/25/2014  18:37:00     -362.017     -269.163       -0.939      218.163      182.938      100.065    47595.094    33466.239    10012.919       14.727        4.554      451.115      116.465        0.067      338.926       11.906      852.369
03/25/2014  18:38:00     -328.733     -218.269       -7.668      180.312      142.539       90.953    32512.302    20317.411     8272.462       10.842        3.055      394.596       83.123        0.044      338.912       11.883      852.416
03/25/2014  18:39:00     -285.113     -195.351       -3.536      131.031      105.458       75.393    17169.129    11121.483     5684.046        7.671        1.699      345.617       78.077        0.051      338.805       11.704      852.437
03/25/2014  18:40:00     -268.948     -144.048       -1.861      125.606       98.765       54.848    15776.812     9754.583     3008.352        6.081        1.427      305.095       64.512        0.045      338.826       11.738      852.431
03/25/2014  18:41:00     -147.949     -169.903        5.468      128.422      102.399       61.400    16492.328    10485.639     3769.903        4.076        1.537      225.291       69.256        0.094      338.895       11.856      852.422
03/25/2014  18:42:00      -75.821     -185.257       -8.351       70.861       71.541       29.716     5021.329     5118.161      883.056        2.558        0.551      200.173       29.987        0.022      338.854       11.786      852.372
03/25/2014  18:43:00       -2.103     -144.418      -13.964       79.120       64.629       41.432     6259.953     4176.917     1716.607        1.660        0.608      144.433       36.663        0.064      339.085       12.175      852.308
03/25/2014  18:44:00     -118.517     -173.759       -8.403       64.594       80.533       43.563     4172.349     6485.610     1897.763        2.843        0.628      210.329       41.200        0.038      338.935       11.922      852.269
03/25/2014  18:45:00     -183.937     -136.796        0.297       77.802       60.836       43.851     6053.145     3700.986     1922.906        3.211        0.584      229.229       33.933        0.022      338.758       11.623      852.270
03/25/2014  18:46:00     -155.096     -112.169        4.575      134.535       70.360       34.736    18099.551     4950.578     1206.577        3.045        1.213      191.407       32.599        0.029      338.784       11.670      852.246
03/25/2014  18:47:00      -68.971     -156.681      -10.322      143.178       61.510       35.913    20499.883     3783.505     1289.779        2.749        1.279      171.190       18.563        0.012      338.724       11.567      852.224
03/25/2014  18:48:00     -298.625      -72.434       -2.697      154.727       99.255       61.936    23940.390     9851.597     3836.067        6.602        1.881      307.285       66.539        0.047      338.746       11.604      852.229
03/25/2014  18:49:00     -285.106     -198.964      -19.035      149.843      154.092       80.106    22452.866    23744.334     6417.004        8.691        2.631      347.667       80.715        0.054      338.636       11.420      852.170
03/25/2014  18:50:00     -215.737      -53.784       -2.435      152.383      125.118       71.456    23220.503    15654.506     5105.999        4.670        2.199      222.340       81.429        0.134      338.747       11.606      852.141
03/25/2014  18:51:00     -224.766       -6.357       -0.250      154.121      105.236       68.683    23753.365    11074.551     4717.303        4.504        1.977      224.856       73.504        0.107      338.684       11.502      852.089
03/25/2014  18:52:00     -320.084      -22.485      -15.242      109.943       95.939       59.623    12087.479     9204.334     3554.906        6.401        1.242      320.873       59.274        0.034      338.680       11.492      852.043
03/25/2014  18:53:00     -338.033      -43.021       -1.642      134.821      104.769       66.502    18176.709    10976.444     4422.488        7.484        1.679      340.760       68.543        0.040      338.609       11.373      852.024
03/25/2014  18:54:00     -260.002     -154.299        8.033      167.451      141.837       84.476    28039.935    20117.743     7136.182        7.337        2.765      302.340       80.972        0.072      338.631       11.410      852.016
03/25/2014  18:55:00     -274.722     -105.116        1.080      229.255      139.313       92.532    52557.936    19408.140     8562.233        8.351        4.026      294.146      113.930        0.150      338.577       11.321      852.017
03/25/2014  18:56:00     -232.156      -52.055        8.130      215.691      130.144       94.306    46522.627    16937.473     8893.542        6.450        3.618      237.921      106.046        0.199      338.613       11.381      852.031
03/25/2014  18:57:00     -354.851      -34.890      -14.926      233.766      115.250       79.507    54646.558    13282.600     6321.355       10.079        3.713      356.562      104.767        0.086      338.528       11.238      852.001
03/25/2014  18:58:00     -288.397     -121.503       -8.994      198.604      111.631       72.491    39443.558    12461.471     5255.016        7.758        2.858      312.947       94.208        0.091      338.431       11.075      851.935
03/25/2014  18:59:00     -203.856     -141.049        7.206      168.645      132.722       75.590    28441.297    17615.226     5713.785        5.663        2.589      247.896       82.018        0.109      338.494       11.180      851.855
03/25/2014  19:00:00     -345.858      -95.697      -28.846      153.292      127.034       71.026    23498.302    16137.594     5044.723        8.714        2.234      358.854       65.642        0.033      338.550       11.274      851.846
03/25/2014  19:01:00     -332.506      -63.582      -22.391      138.170      117.840       66.040    19090.942    13886.190     4361.297        7.621        1.867      338.530       62.589        0.034      338.506       11.200      851.825
03/25/2014  19:02:00     -303.620      -33.793      -10.291      143.441      125.131       73.379    20575.221    15657.849     5384.457        6.752        2.081      305.494       70.134        0.053      338.523       11.229      851.816
03/25/2014  19:03:00     -322.207     -113.582      -17.649      138.355      132.530       74.997    19142.064    17564.190     5624.504        7.967        2.117      341.640       77.289        0.051      338.437       11.084      851.802
03/25/2014  19:04:00     -176.160      -18.146       19.074      128.631       86.979       61.024    16545.853     7565.369     3723.932        2.977        1.392      177.092       65.202        0.136      338.432       11.078      851.795
03/25/2014  19:05:00     -140.215     -102.612       -5.736      102.505       65.277       40.549    10507.226     4261.105     1644.194        2.331        0.821      173.752       21.658        0.016      338.529       11.240      851.803
03/25/2014  19:06:00      -72.005     -180.062       -3.956       85.889       81.585       36.876     7376.916     6656.065     1359.815        2.650        0.770      193.925       33.171        0.029      338.644       11.433      851.815
03/25/2014  19:07:00     -122.540     -149.217       -3.546       95.249       75.015       46.356     9072.459     5627.304     2148.878        2.707        0.842      193.085       29.475        0.023      338.631       11.411      851.870
03/25/2014  19:08:00      -84.476     -128.374       11.022       94.660       76.691       46.641     8960.566     5881.563     2175.372        2.037        0.851      153.675       55.219        0.129      338.605       11.370      851.866
03/25/2014  19:09:00      -92.362     -265.720       -2.538       99.369       72.387       52.973     9874.240     5239.835     2806.182        4.853        0.896      281.314       52.511        0.035      338.659       11.456      851.855
03/25/2014  19:10:00     -141.185     -173.724        5.149      122.037       82.156       52.423    14893.032     6749.614     2748.187        3.726        1.220      223.860       52.396        0.055      338.740       11.593      851.859
03/25/2014  19:11:00     -184.478      -94.487      -14.432       93.895       97.598       31.760     8816.260     9525.307     1008.688        3.126        0.968      207.268       31.383        0.023      338.752       11.614      851.846
03/25/2014  19:12:00      -89.396     -110.052        5.052      118.257       82.805       48.525    13984.715     6856.728     2354.690        2.166        1.160      141.785       42.392        0.089      338.793       11.684      851.827
03/25/2014  19:13:00      -22.892     -111.736        5.442       99.149       50.714       48.067     9830.528     2571.874     2310.420        1.387        0.736      114.057       30.043        0.069      338.918       11.896      851.819
03/25/2014  19:14:00     -127.339     -144.170        8.912      116.480       82.123       55.252    13567.479     6744.263     3052.830        3.022        1.168      192.355       47.374        0.061      338.775       11.653      851.826
03/25/2014  19:15:00       21.705     -192.024      -13.184       68.515       78.591       56.012     4694.341     6176.472     3137.308        2.576        0.700      193.247       36.925        0.037      338.852       11.782      851.857
03/25/2014  19:16:00       20.113     -149.151       10.523      109.695      107.211       69.963    12032.890    11494.131     4894.772        2.559        1.421      150.501       45.793        0.093      338.849       11.778      851.861
03/25/2014  19:17:00     -180.618     -138.742        7.312      160.375      125.755       58.709    25720.297    15814.338     3446.713        4.844        2.249      227.754       68.566        0.091      338.768       11.641      851.903
03/25/2014  19:18:00     -261.296     -139.314       12.439      165.815      140.715       79.685    27494.482    19800.728     6349.637        7.073        2.682      296.114       84.811        0.082      338.687       11.505      851.927
03/25/2014  19:19:00     -253.241     -225.632      -17.981      134.347      143.074       66.465    18049.206    20470.265     4417.547        7.914        2.147      339.176       65.726        0.038      338.665       11.467      851.960
03/25/2014  19:20:00     -133.442     -270.719      -10.314      116.250      145.948       74.130    13514.089    21300.916     5495.253        6.575        2.016      301.821       71.911        0.057      338.671       11.478      851.934
03/25/2014  19:21:00     -170.819     -123.357        6.229      112.507       84.245       57.442    12657.813     7097.196     3299.545        3.374        1.153      210.704       60.390        0.082      338.700       11.527      851.906
03/25/2014  19:22:00     -286.830     -155.346        5.119      152.757      115.654       66.801    23334.768    13375.772     4462.406        7.379        2.059      326.196       79.476        0.059      338.617       11.389      851.905
03/25/2014  19:23:00     -195.431     -263.111       -7.790      110.628      146.022       68.416    12238.618    21322.417     4680.759        7.285        1.912      327.751       60.326        0.034      338.615       11.383      851.902
03/25/2014  19:24:00     -336.633     -234.890       -3.006      161.707      117.202       73.129    26149.095    13736.421     5347.884       10.686        2.262      410.482       70.862        0.030      338.551       11.277      851.860
03/25/2014  19:25:00     -433.853     -278.347       -7.039      184.201      136.155       80.963    33929.995    18538.203     6555.049       16.238        2.951      515.466       77.208        0.022      338.435       11.080      851.824
03/25/2014  19:26:00     -259.293     -386.029       -9.600      139.178      158.146       77.803    19370.539    25010.083     6053.269       13.338        2.522      465.028       62.620        0.018      338.380       10.989      851.854
03/25/2014  19:27:00     -271.700     -223.723        1.058      156.288      126.589       86.067    24425.901    16024.886     7407.492        8.586        2.393      351.956       79.062        0.050      338.345       10.930      851.832
03/25/2014  19:28:00     -352.218     -268.045       -6.499      181.201      126.984       77.484    32833.779    16124.909     6003.751       12.544        2.748      442.612       79.546        0.032      338.240       10.754      851.794
03/25/2014  19:29:00     -346.966     -252.485      -17.260      177.089      149.613       90.806    31360.429    22383.906     8245.680       12.320        3.100      429.108       94.335        0.048      338.138       10.583      851.765
03/25/2014  19:30:00     -313.176     -237.992       -7.121      191.252      130.381       89.169    36577.295    16999.233     7951.197       10.814        3.076      393.344       88.206        0.050      338.100       10.520      851.738
03/25/2014  19:31:00     -500.660     -239.516        1.595      164.413      159.642       86.250    27031.489    25485.531     7439.126       18.398        2.998      555.003       92.684        0.028      338.009       10.367      851.728
03/25/2014  19:32:00     -348.194     -146.541       27.990      270.778      158.132      103.636    73320.726    25005.635    10740.369       12.626        5.453      377.774      128.948        0.117      338.025       10.394      851.675
03/25/2014  19:33:00     -547.907      -68.817      -35.455      267.427      168.923       82.979    71517.229    28534.940     6885.471       20.654        5.347      552.212      109.181        0.039      338.050       10.435      851.630
03/25/2014  19:34:00     -419.318     -171.931       -5.268      225.973      166.297       91.447    51063.627    27654.722     8362.532       14.623        4.354      453.197       92.441        0.042      338.081       10.485      851.659
03/25/2014  19:35:00     -497.533     -212.250      -13.779      222.853      158.203      105.400    49663.312    25028.225    11109.204       18.927        4.290      540.915      103.758        0.037      338.068       10.465      851.640
03/25/2014  19:36:00     -352.501     -163.670        5.999      258.950      213.330       95.155    67055.060    45509.606     9054.522       13.633        6.081      388.645      116.792        0.090      338.020       10.385      851.614
03/25/2014  19:37:00     -369.698     -182.402        3.432      200.440      178.558       84.100    40176.302    31882.917     7072.828       12.453        3.957      412.246       88.483        0.046      337.999       10.350      851.655
03/25/2014  19:38:00     -421.407     -252.000        0.564      207.925      137.745       83.655    43232.617    18973.612     6998.165       15.513        3.460      491.007       93.326        0.036      338.026       10.395      851.744
03/25/2014  19:39:00     -368.974     -288.193      -23.286      212.683      162.134       84.117    45234.250    26287.487     7075.615       14.915        3.930      468.185       82.840        0.031      338.093       10.507      851.783
03/25/2014  19:40:00     -326.085     -219.726       -6.632      184.374      180.288       88.730    33993.643    32503.886     7873.018       11.450        3.719      393.206       88.284        0.050      338.117       10.548      851.833
03/25/2014  19:41:00     -486.325     -281.144      -41.815      268.343      251.085       96.941    72008.070    63043.589     9397.616       23.085        7.222      561.742      111.490        0.039      338.106       10.529      851.751
03/25/2014  19:42:00     -433.331     -108.567       -2.226      203.796      163.752       84.787    41532.910    26814.817     7188.841       13.754        3.777      446.725       91.021        0.042      338.155       10.610      851.786
03/25/2014  19:43:00     -283.213     -182.991       -3.290      185.309      139.884       79.261    34339.407    19567.551     6282.345        8.694        3.009      337.187       70.193        0.043      338.163       10.624      851.836
03/25/2014  19:44:00     -341.038     -299.636       -0.633      205.091      152.789       86.338    42062.474    23344.471     7454.279       13.946        3.643      453.970      102.493        0.051      338.142       10.587      851.840
03/25/2014  19:45:00     -319.900     -219.962       -1.788      150.740      164.220       74.222    22722.595    26968.274     5508.892       10.295        2.760      388.226       67.358        0.030      338.146       10.596      851.810
03/25/2014  19:46:00     -288.145     -210.452       -7.104      151.355      135.857       72.886    22908.371    18457.194     5312.410        8.701        2.334      356.815       86.469        0.059      338.095       10.511      851.802
03/25/2014  19:47:00     -361.329     -129.606       -7.517      185.346      145.259       83.811    34353.009    21100.264     7024.309       10.493        3.124      383.870       89.039        0.054      338.031       10.405      851.765
03/25/2014  19:48:00     -398.615      -58.941       17.192      211.535      201.075      113.041    44746.968    40431.289    12778.167       13.029        4.898      402.950      100.063        0.062      338.083       10.491      851.780
03/25/2014  19:49:00     -368.953     -116.985       18.383      251.570      196.844      109.179    63287.506    38747.623    11920.021       13.203        5.698      387.055      121.838        0.099      338.082       10.489      851.798
03/25/2014  19:50:00     -354.246     -152.691        5.518      192.589      166.807       84.473    37090.396    27824.553     7135.724       11.043        3.603      385.752       98.652        0.065      338.110       10.537      851.818
03/25/2014  19:51:00     -396.556     -188.540        1.270      209.862      153.017       91.809    44041.888    23414.185     8428.872       13.433        3.794      439.094      103.256        0.055      338.120       10.552      851.836
03/25/2014  19:52:00     -416.830     -201.950       -4.277      226.048      199.995      102.921    51097.816    39997.923    10592.731       15.810        5.084      463.175      124.931        0.073      338.072       10.473      851.837
03/25/2014  19:53:00     -427.210     -129.812       -4.667      177.210      150.693       88.508    31403.268    22708.303     7833.626       13.065        3.097      446.497       94.661        0.045      338.096       10.512      851.914
03/25/2014  19:54:00     -286.911     -171.319        3.293      173.234      118.425       68.699    30010.087    14024.488     4719.568        8.021        2.438      334.168       79.800        0.057      338.128       10.565      851.979
03/25/2014  19:55:00     -316.962     -226.106       15.839      190.851      156.304       96.490    36424.098    24430.805     9310.370       11.099        3.508      389.344      100.064        0.066      338.072       10.473      851.989
03/25/2014  19:56:00     -252.785     -286.825       -1.739      149.474      141.362       81.626    22342.373    19983.088     6662.735        9.757        2.449      382.320       86.329        0.051      338.039       10.418      852.057
03/25/2014  19:57:00     -284.519     -245.250       14.642      196.132      176.744       95.399    38467.686    31238.374     9101.007       11.004        3.940      375.630      116.513        0.096      337.989       10.334      852.057
03/25/2014  19:58:00     -295.228     -190.429        0.336      149.595      109.981       69.412    22378.798    12095.802     4818.091        8.135        1.965      351.316       80.455        0.052      337.965       10.292      852.053
03/25/2014  19:59:00     -297.605     -202.333       -8.332      125.392       91.466       66.206    15723.031     8366.093     4383.259        7.902        1.424      359.872       64.574        0.032      337.967       10.297      852.013
03/25/2014  20:00:00     -237.104     -150.417        0.442      140.153      106.301       61.897    19642.828    11299.877     3831.281        5.680        1.739      280.791       72.997        0.068      337.969       10.300      851.976
03/25/2014  20:01:00     -286.050     -189.567        5.145      121.296      112.367       58.755    14712.635    12626.310     3452.177        7.428        1.540      343.162       57.121        0.028      338.009       10.367      851.997
03/25/2014  20:02:00     -308.351     -201.210       -1.558      172.526      105.224       67.003    29765.137    11071.990     4489.445        9.044        2.266      368.193       70.112        0.036      337.984       10.325      852.020
03/25/2014  20:03:00     -308.850     -117.457        5.439      145.676      103.484       61.370    21221.569    10709.041     3766.236        7.245        1.785      330.431       64.991        0.039      338.010       10.369      852.042
03/25/2014  20:04:00     -299.156     -242.904       -4.737      129.609      145.611       66.430    16798.398    21202.552     4412.892        9.546        2.121      385.352       63.893        0.027      338.083       10.490      852.030
03/25/2014  20:05:00     -157.888     -174.751       25.869      141.587      127.643       67.374    20046.838    16292.618     4539.216        4.850        2.044      235.514       80.212        0.116      338.113       10.541      852.033
03/25/2014  20:06:00     -329.525     -213.207      -18.033      160.634      139.122       75.043    25803.190    19354.894     5631.397       10.257        2.539      392.485       75.600        0.037      338.099       10.517      852.035
03/25/2014  20:07:00     -254.749     -245.059      -12.945      161.234      120.755       69.297    25996.274    14581.827     4802.042        8.524        2.269      353.484       70.369        0.040      338.097       10.514      852.061
03/25/2014  20:08:00      -56.704     -228.119       20.622      107.092      116.257       63.052    11468.636    13515.727     3975.606        4.231        1.448      235.061       48.860        0.043      338.104       10.526      852.072
03/25/2014  20:09:00     -256.841     -191.771       12.132      144.459      118.384       72.844    20868.457    14014.669     5306.303        7.153        2.009      320.536       79.111        0.061      338.089       10.501      852.059
03/25/2014  20:10:00      -97.312     -140.086       21.287      104.743      143.650       69.726    10971.072    20635.365     4861.783        3.300        1.823      170.569       58.440        0.117      338.103       10.526      852.039
03/25/2014  20:11:00     -194.722     -184.623       -0.032       95.614      126.298       57.839     9141.977    15951.133     3345.323        5.021        1.422      268.332       49.910        0.035      338.096       10.512      851.986
03/25/2014  20:12:00      -58.023     -133.881       23.238      121.694       89.078       53.130    14809.406     7934.934     2822.806        2.369        1.278      145.913       57.877        0.157      338.149       10.601      851.985
03/25/2014  20:13:00     -139.207     -146.732       -5.895       74.671       55.014       40.845     5575.724     3026.567     1668.284        2.561        0.514      202.260       33.682        0.028      338.127       10.566      852.021
03/25/2014  20:14:00      -71.589      -83.930        8.047       72.532       56.688       39.423     5260.830     3213.482     1554.175        1.113        0.501      110.314       29.013        0.069      338.124       10.561      852.023
03/25/2014  20:15:00      -45.600     -102.390      -10.476       56.978       46.060       27.788     3246.443     2121.496      772.151        0.941        0.307      112.085       15.885        0.020      338.238       10.755      852.037
03/25/2014  20:16:00     -106.134     -217.445      -10.137      107.916      103.448       57.548    11645.871    10701.445     3311.770        4.215        1.283      241.964       52.309        0.047      338.161       10.623      852.108
03/25/2014  20:17:00     -143.193     -214.194       -2.435       93.249       79.678       47.370     8695.355     6348.546     2243.916        4.184        0.864      257.650       38.328        0.022      338.115       10.543      852.182
03/25/2014  20:18:00     -108.964     -140.037       -2.815      111.639      103.980       49.661    12463.216    10811.926     2466.254        2.861        1.287      177.436       54.868        0.096      338.123       10.559      852.166
03/25/2014  20:19:00     -135.392     -174.412        1.298      107.837       99.325       55.726    11628.748     9865.408     3105.410        3.667        1.230      220.795       38.200        0.030      338.121       10.554      852.209
03/25/2014  20:20:00     -299.869     -174.803        8.476      184.566      118.151       73.075    34064.731    13959.685     5339.913        8.695        2.668      347.099       78.932        0.052      338.082       10.489      852.280
03/25/2014  20:21:00     -162.458     -253.402        1.897      147.210      166.153       58.334    21670.734    27606.716     3402.812        7.163        2.634      301.007       59.985        0.040      337.989       10.334      852.353
03/25/2014  20:22:00      -20.802      -23.805       15.064       58.537       53.921       41.645     3426.542     2907.481     1734.276        0.465        0.403       31.613       24.843        0.618      338.081       10.491      852.184
03/25/2014  20:23:00     -155.227      -37.119        8.699      115.141       91.937       55.498    13257.374     8452.329     3080.004        2.516        1.239      159.604       55.293        0.120      337.999       10.351      852.173
03/25/2014  20:24:00      -86.493     -230.154       -5.540       79.332      101.925       49.762     6293.616    10388.792     2476.284        3.982        0.958      245.870       28.529        0.013      337.969       10.301      852.242
03/25/2014  20:25:00     -133.097     -195.396        9.104      112.368      121.940       69.667    12626.554    14869.359     4853.488        4.416        1.617      236.420       62.895        0.071      337.976       10.312      852.309
03/25/2014  20:26:00     -167.422     -175.099      -12.925      143.117      105.527       58.649    20482.538    11135.946     3439.742        4.695        1.753      242.260       65.351        0.073      337.953       10.272      852.344
03/25/2014  20:27:00     -280.716     -213.758       -0.667      167.872      131.165       75.505    28180.993    17204.339     5701.046        8.778        2.554      352.837       72.489        0.042      337.901       10.184      852.399
03/25/2014  20:28:00     -111.393     -193.777        2.784       98.367      109.170       58.072     9676.108    11917.985     3372.387        3.746        1.248      223.513       43.421        0.038      337.913       10.205      852.452
03/25/2014  20:29:00     -222.867     -231.454       -4.410      138.336      144.212       66.122    19136.864    20797.047     4372.065        7.377        2.215      321.311       72.728        0.051      337.887       10.162      852.520
03/25/2014  20:30:00     -313.343     -223.143       14.911      186.603      145.821       85.356    34820.647    21263.758     7285.713       10.577        3.169      384.677       96.633        0.063      337.819       10.048      852.564
03/25/2014  20:31:00     -253.075     -199.169       -3.269      161.088      106.579       76.270    25949.292    11359.140     5817.038        7.342        2.156      322.048       84.642        0.069      337.758        9.947      852.619
03/25/2014  20:32:00     -336.098      -55.879      -21.757      186.377      126.050       65.632    34736.379    15888.567     4307.607        8.573        2.747      340.711       83.564        0.060      337.738        9.912      852.653
03/25/2014  20:33:00     -248.082     -104.217        3.560      131.346      135.937       67.797    17251.815    18478.818     4596.479        5.636        2.016      269.083       79.067        0.086      337.785        9.991      852.651
03/25/2014  20:34:00     -395.444     -121.494        7.673      212.795      134.771       87.545    45281.802    18163.127     7664.182       12.114        3.555      413.687       91.152        0.049      337.553        9.600      852.648
03/25/2014  20:35:00     -324.401     -153.577       -3.428      219.072      159.636       98.605    47992.454    25483.512     9722.877       10.600        4.160      358.918      113.908        0.101      337.592        9.666      852.622
03/25/2014  20:36:00     -471.435     -166.796      -32.642      171.486      172.617       84.494    29407.435    29796.736     7139.224       15.873        3.317      500.072       77.494        0.024      337.513        9.533      852.626
03/25/2014  20:37:00     -282.758     -131.436       -2.229      180.635      172.383       78.952    32628.885    29715.868     6233.429        8.289        3.429      311.813       94.320        0.091      337.494        9.503      852.661
03/25/2014  20:38:00     -316.196     -141.566      -11.105      175.427      150.052       88.210    30774.531    22515.459     7781.082        9.060        3.054      346.441       85.885        0.061      337.513        9.535      852.654
03/25/2014  20:39:00     -353.855     -123.222        2.413      178.898      155.280       88.514    32004.423    24112.020     7834.669       10.216        3.198      374.695       82.309        0.048      337.480        9.479      852.682
03/25/2014  20:40:00     -280.994      -71.585        1.129      202.994      184.538       78.670    41206.721    34054.285     6188.893        8.275        4.072      289.969       87.831        0.092      337.507        9.525      852.650
03/25/2014  20:41:00     -402.942     -160.651      -16.911      236.401      223.061      108.352    55885.513    49756.421    11740.203       15.290        5.869      433.787      134.442        0.096      337.408        9.360      852.628
03/25/2014  20:42:00     -458.579     -202.360        4.198      236.172      222.994      113.027    55777.316    49726.460    12775.096       18.475        5.914      501.243      127.332        0.065      337.319        9.210      852.579
03/25/2014  20:43:00     -442.661     -164.359      -11.462      222.794      215.549       86.151    49637.105    46461.445     7422.045       16.329        5.176      472.189       83.911        0.032      337.214        9.035      852.570
03/25/2014  20:44:00     -635.835     -520.960      -41.254      311.621      232.075      142.305    97107.699    53858.665    20250.775       42.427        8.561      822.001      160.364        0.038      337.015        8.701      852.502
03/25/2014  20:45:00     -627.126     -283.460      -27.110      297.247      243.562      129.706    88355.828    59322.270    16823.693       31.940        8.225      688.213      148.714        0.047      336.925        8.548      852.526
03/25/2014  20:46:00     -447.700      -93.802      -13.394      292.306      185.357      107.268    85442.989    34357.259    11506.483       17.033        6.565      457.421      124.554        0.074      336.973        8.630      852.520
03/25/2014  20:47:00     -640.112     -183.666      -31.598      194.728      252.177      104.499    37918.844    63593.347    10920.041       27.843        5.622      665.941       92.415        0.019      336.851        8.427      852.482
03/25/2014  20:48:00     -498.093     -178.535      -18.476      189.885      185.902      105.005    36056.228    34559.469    11026.006       18.096        4.082      529.123      105.872        0.040      336.816        8.369      852.454
03/25/2014  20:49:00     -421.629     -190.112       -4.468      248.766      163.657      104.630    61884.752    26783.586    10947.356       15.675        4.981      462.508      105.979        0.053      336.805        8.351      852.449
03/25/2014  20:50:00     -363.434     -109.930       -2.247      215.714      205.169      103.971    46532.400    42094.249    10809.912       12.179        4.972      379.696      112.382        0.088      336.778        8.304      852.423
03/25/2014  20:51:00     -355.112     -208.855       14.236      303.706      187.921      123.850    92237.394    35314.374    15338.814       15.638        7.145      411.977      153.439        0.139      336.719        8.208      852.395
03/25/2014  20:52:00     -552.433     -233.768      -35.423      266.456      236.857      109.085    70998.676    56101.289    11899.429       25.001        6.950      599.858      111.983        0.035      336.605        8.018      852.373
03/25/2014  20:53:00     -461.057      -38.446      -23.521      270.783      182.411      101.029    73323.313    33273.833    10206.909       16.568        5.840      462.657      125.473        0.074      336.671        8.128      852.332
03/25/2014  20:54:00     -357.138      -95.561        1.222      213.824      176.287       95.236    45720.868    31077.151     9069.922       11.126        4.293      369.702      101.876        0.076      336.648        8.089      852.309
03/25/2014  20:55:00     -415.151     -277.071       -6.714      176.394      213.908       93.085    31114.973    45756.459     8664.815       16.733        4.277      499.119       95.106        0.036      336.567        7.953      852.294
03/25/2014  20:56:00     -465.071     -226.618      -24.820      195.472      166.935       85.603    38209.199    27867.315     7327.827       17.082        3.670      517.346       84.136        0.026      336.512        7.862      852.314
03/25/2014  20:57:00     -450.015     -181.267      -15.897      211.576      187.687       88.724    44764.229    35226.421     7871.913       16.173        4.393      485.150       86.274        0.032      336.480        7.804      852.334
03/25/2014  20:58:00     -600.458      -90.522      -14.054      276.753      189.550       95.989    76592.219    35929.146     9213.866       24.531        6.087      607.243      120.654        0.039      336.383        7.642      852.302
03/25/2014  20:59:00     -496.330      -96.461      -12.990      225.414      191.306      100.468    50811.305    36598.036    10093.828       17.664        4.875      505.617      110.091        0.047      336.427        7.716      852.296
03/25/2014  21:00:00     -479.720     -233.875       -8.949      235.328      181.153       96.663    55379.198    32816.501     9343.660       19.120        4.877      533.694      119.726        0.050      336.408        7.685      852.282
03/25/2014  21:01:00     -335.419     -116.048        1.171      210.408      182.092      114.473    44271.378    33157.534    13104.048       10.824        4.527      354.927      116.263        0.107      336.465        7.783      852.224
03/25/2014  21:02:00     -503.401      -55.761      -17.313      242.778      137.350       78.864    58941.397    18865.053     6219.577       17.041        4.201      506.480       93.867        0.034      336.393        7.660      852.173
03/25/2014  21:03:00     -486.820      -79.268       -8.918      242.650      165.700      101.762    58878.898    27456.655    10355.588       17.000        4.835      493.231      119.950        0.059      336.398        7.669      852.145
03/25/2014  21:04:00     -468.894        1.021      -20.060      243.400      144.567       92.967    59243.467    20899.497     8642.945       15.451        4.439      468.895      119.460        0.065      336.421        7.707      852.144
03/25/2014  21:05:00     -471.012      -68.981      -18.632      217.081      170.412       97.744    47123.950    29040.097     9553.895       15.632        4.286      476.037      113.423        0.057      336.417        7.702      852.088
03/25/2014  21:06:00     -423.586      -85.338       16.725      236.182      169.408       95.999    55781.989    28698.920     9215.815       14.032        4.685      432.097      120.422        0.078      336.373        7.627      852.063
03/25/2014  21:07:00     -492.717      -45.397      -13.880      251.145      194.066      117.020    63073.679    37661.441    13693.662       17.970        5.721      494.804      129.766        0.069      336.390        7.656      852.088
03/25/2014  21:08:00     -618.280     -171.409      -39.206      226.433      182.081       98.133    51271.892    33153.397     9630.033       25.360        4.703      641.601      112.118        0.031      336.339        7.568      852.089
03/25/2014  21:09:00     -535.746     -153.440      -18.787      250.176      216.778      107.835    62587.851    46992.770    11628.327       21.604        6.060      557.286      117.131        0.044      336.359        7.604      852.098
03/25/2014  21:10:00     -599.195      -36.730      -29.072      303.533      179.432      103.996    92132.081    32196.013    10815.214       24.816        6.757      600.320      114.904        0.037      336.387        7.652      852.118
03/25/2014  21:11:00     -415.224     -228.833       -5.915      281.191      237.050      127.699    79068.464    56192.524    16306.930       18.816        7.578      474.105      144.322        0.093      336.408        7.686      852.168
03/25/2014  21:12:00     -281.342     -187.552      -22.356      192.209      160.950       93.197    36944.219    25904.758     8685.663        9.317        3.577      338.126       96.779        0.082      336.424        7.712      852.218
03/25/2014  21:13:00     -489.217      -58.632       -1.135      257.457      202.378      103.002    66283.932    40956.685    10609.356       18.029        5.892      492.718      122.325        0.062      336.500        7.841      852.198
03/25/2014  21:14:00     -503.052     -235.721       -3.580      288.197      189.862      116.431    83057.734    36047.640    13556.156       22.062        6.633      555.541      134.395        0.059      336.656        8.101      852.142
03/25/2014  21:15:00     -470.034     -147.849        0.137      227.098      179.257       87.693    51573.288    32133.112     7690.093       16.708        4.570      492.739      109.331        0.049      336.562        7.945      852.201
03/25/2014  21:16:00     -296.243     -168.528       -1.305      211.117      173.742       94.496    44570.312    30186.437     8929.565        9.991        4.184      340.825       99.855        0.086      336.426        7.715      852.293
03/25/2014  21:17:00     -341.151     -216.031      -26.658      202.038      143.040       86.361    40819.215    20460.302     7458.185       11.624        3.437      403.799       91.674        0.052      336.442        7.743      852.303
03/25/2014  21:18:00     -212.256     -116.067       -6.412      145.737       88.543       60.490    21239.337     7839.934     3659.099        4.565        1.637      241.917       70.584        0.085      336.365        7.615      852.358
03/25/2014  21:19:00     -266.123     -152.685       -1.195      166.892      103.168       66.866    27852.835    10643.651     4471.054        6.854        2.148      306.813       73.224        0.057      336.294        7.496      852.357
03/25/2014  21:20:00     -203.506     -179.383       11.306      159.172      129.239       78.764    25335.848    16702.693     6203.822        6.097        2.412      271.280       91.451        0.114      336.272        7.459      852.305
03/25/2014  21:21:00     -251.065     -149.109       -4.715      145.930      134.304       65.807    21295.570    18037.489     4330.607        6.447        2.183      292.005       74.494        0.065      336.295        7.497      852.356
03/25/2014  21:22:00     -355.952     -166.580       -9.204      155.834      167.844       95.431    24284.335    28171.769     9107.069       10.804        3.078      393.002       95.674        0.059      336.317        7.533      852.431
03/25/2014  21:23:00     -259.107      -84.100      -12.910      203.341      117.380       68.732    41347.365    13778.074     4724.121        6.710        2.992      272.414       80.575        0.087      336.245        7.415      852.449
03/25/2014  21:24:00     -271.758     -173.992       -0.906      118.550      122.799       73.083    14054.219    15079.500     5341.120        6.929        1.724      322.685       62.327        0.037      336.232        7.393      852.447
03/25/2014  21:25:00     -345.136     -167.582      -12.655      164.533      159.721       77.453    27071.042    25510.830     5999.030       10.296        2.929      383.669       83.598        0.047      336.251        7.424      852.452
03/25/2014  21:26:00     -381.957     -127.140      -11.969      167.041      143.543       78.176    27902.663    20604.678     6111.423       10.840        2.731      402.561       83.743        0.043      336.167        7.285      852.449
03/25/2014  21:27:00     -508.241      -36.556      -43.390      155.906      124.108       67.599    24306.607    15402.692     4569.655       15.289        2.214      509.554       78.004        0.023      336.085        7.146      852.446
03/25/2014  21:28:00     -349.472      -79.894       -2.601      146.273      131.104       70.409    21395.878    17188.295     4957.377        8.602        2.177      358.488       72.628        0.041      336.040        7.072      852.415
03/25/2014  21:29:00     -226.902      -72.011        0.874       97.952       99.108       58.578     9594.539     9822.474     3431.431        3.976        1.142      238.054       57.732        0.059      336.088        7.151      852.403
03/25/2014  21:30:00     -308.141      -48.393       -6.744      139.070      119.228       76.360    19340.437    14215.313     5830.896        6.835        1.969      311.918       81.253        0.068      336.063        7.111      852.370
03/25/2014  21:31:00     -255.927      -48.763       -5.542      205.230      125.928       70.997    42119.365    15857.833     5040.513        6.545        3.151      260.531      103.229        0.157      336.061        7.108      852.310
03/25/2014  21:32:00     -218.959      -41.673        0.452      136.521       94.881       60.456    18637.888     9002.446     3654.938        4.048        1.565      222.889       61.731        0.077      336.056        7.100      852.238
03/25/2014  21:33:00     -209.846      -25.431       -1.540      112.298       83.730       48.181    12610.927     7010.687     2321.371        3.331        1.097      211.382       52.246        0.061      336.007        7.018      852.205
03/25/2014  21:34:00     -158.939       -2.277      -12.464       66.577       55.514       28.831     4432.557     3081.772      831.226        1.688        0.417      158.956       32.018        0.041      335.998        7.003      852.145
03/25/2014  21:35:00     -214.304       17.111       -2.835      101.791       73.830       47.109    10361.380     5450.912     2219.245        3.213        0.902      214.986       48.054        0.050      336.119        7.205      852.069
03/25/2014  21:36:00     -233.067      -17.155       -4.014       99.023       61.000       42.953     9805.496     3720.958     1844.947        3.500        0.769      233.698       43.685        0.035      335.959        6.939      852.027
03/25/2014  21:37:00     -215.026      -44.943        0.745      126.678       71.924       42.941    16047.436     5172.998     1843.936        3.566        1.153      219.672       49.281        0.050      335.940        6.906      852.025
03/25/2014  21:38:00     -219.365     -110.263       -8.631      101.782       57.342       39.707    10359.529     3288.084     1576.634        3.779        0.761      245.518       41.346        0.028      335.927        6.881      852.056
03/25/2014  21:39:00     -219.596      -47.766       -0.973       86.097       60.149       44.914     7412.723     3617.886     2017.266        3.177        0.652      224.731       43.173        0.037      335.849        6.752      852.085
03/25/2014  21:40:00     -271.774      -88.162       -5.393       91.445       69.923       40.306     8362.133     4889.187     1624.556        4.827        0.744      285.716       43.908        0.024      335.793        6.661      852.116
03/25/2014  21:41:00     -307.701      -55.420      -11.224      114.485       92.400       56.928    13106.800     8537.728     3240.830        6.138        1.244      312.652       54.388        0.030      335.757        6.601      852.146
03/25/2014  21:42:00     -263.997      -88.443      -12.494       92.847       94.838       50.194     8620.513     8994.217     2519.440        4.890        1.007      278.418       44.410        0.025      335.828        6.718      852.189
03/25/2014  21:43:00     -244.256      -52.816       -2.941      125.282       83.119       49.294    15695.501     6908.795     2429.874        4.374        1.252      249.901       62.311        0.062      335.704        6.513      852.251
03/25/2014  21:44:00     -205.923      -55.169       -9.224       95.367       87.324       43.693     9094.828     7625.395     1909.054        3.208        0.931      213.185       43.806        0.042      335.714        6.528      852.319
03/25/2014  21:45:00      -87.764      -26.714       15.245       70.562       56.016       34.571     4979.008     3137.736     1195.124        0.898        0.466       91.740       30.886        0.113      335.995        7.000      852.379
03/25/2014  21:46:00      -54.868      -81.595        0.261       80.109       80.963       46.289     6417.396     6554.991     2142.660        1.239        0.756       98.327       38.589        0.154      335.806        6.686      852.387
03/25/2014  21:47:00      -16.854      -50.173       43.144      102.268       58.865       43.868    10458.816     3465.139     1924.421        1.025        0.792       52.928       57.541        1.182      335.810        6.691      852.381
03/25/2014  21:48:00     -155.013      -51.309       -0.815       94.210       87.406       35.186     8875.554     7639.796     1238.026        2.220        0.888      163.284       37.585        0.053      335.749        6.587      852.374
03/25/2014  21:49:00     -148.356       -8.225        0.846       82.003       69.824       54.922     6724.455     4875.338     3016.462        1.834        0.731      148.584       38.474        0.067      335.831        6.725      852.356
03/25/2014  21:50:00     -168.793      -13.451        3.246       79.663       66.087       44.964     6346.255     4367.493     2021.760        2.071        0.637      169.328       45.487        0.072      335.796        6.666      852.349
03/25/2014  21:51:00     -252.066      -63.420       -4.304       82.515       88.678       43.779     6808.664     7863.760     1916.565        4.208        0.829      259.922       43.603        0.028      335.733        6.561      852.305
03/25/2014  21:52:00     -283.069      -68.727      -18.280      100.408       62.063       46.308    10081.738     3851.769     2144.465        5.063        0.804      291.293       45.671        0.025      335.630        6.388      852.264
03/25/2014  21:53:00     -242.309      -50.565      -20.742       98.156       81.114       51.980     9634.691     6579.419     2701.963        4.030        0.946      247.529       46.480        0.035      335.657        6.433      852.218
03/25/2014  21:54:00     -241.467      -58.182      -24.506       92.806       79.696       39.478     8612.933     6351.386     1558.547        3.940        0.826      248.378       27.518        0.012      335.645        6.412      852.175
03/25/2014  21:55:00     -299.578      -73.153      -23.585       96.812      102.067       49.700     9372.507    10417.709     2470.059        5.895        1.113      308.380       39.815        0.017      335.658        6.435      852.164
03/25/2014  21:56:00     -341.840     -150.748      -20.896      110.409       95.645       60.159    12190.147     9147.888     3619.146        8.248        1.248      373.603       56.500        0.023      335.710        6.520      852.166
03/25/2014  21:57:00     -305.816     -110.021      -16.835      141.141       96.908       63.289    19920.845     9391.183     4005.511        6.961        1.666      325.004       64.704        0.040      335.771        6.624      852.173
03/25/2014  21:58:00     -339.234     -111.659      -20.807      118.684      104.493       55.135    14085.886    10918.723     3039.825        7.801        1.402      357.138       44.829        0.016      335.872        6.791      852.173
03/25/2014  21:59:00     -286.859     -153.071       -9.314      100.277       70.812       48.934    10055.477     5014.348     2394.528        6.163        0.873      325.144       50.514        0.024      335.796        6.666      852.200
03/25/2014  22:00:00     -288.793      -42.595      -29.587       83.874       79.211       48.041     7034.883     6274.398     2307.954        5.085        0.781      291.917       39.233        0.018      335.909        6.851      852.219
03/25/2014  22:01:00     -274.460      -88.215      -18.547       78.702       70.030       41.777     6194.073     4904.197     1745.299        4.815        0.642      288.289       19.466        0.005      335.916        6.864      852.203
03/25/2014  22:02:00     -344.373      -45.793      -11.620       82.701       96.037       51.742     6839.425     9223.177     2677.278        6.978        0.937      347.404       47.644        0.019      335.868        6.784      852.221
03/25/2014  22:03:00     -267.418     -116.525       -2.534      130.517      105.352       59.674    17034.765    11098.970     3560.982        5.839        1.585      291.703       63.459        0.047      335.891        6.823      852.225
03/25/2014  22:04:00     -338.067      -93.254        1.037      139.036       93.339       63.159    19330.952     8712.077     3989.008        7.750        1.602      350.693       68.448        0.038      335.883        6.811      852.237
03/25/2014  22:05:00     -191.107      -63.570        1.440       74.318       79.535       41.951     5523.121     6325.860     1759.920        2.708        0.680      201.403       33.949        0.028      335.886        6.814      852.238
03/25/2014  22:06:00      -21.124      -18.957       14.144       36.217       44.561       28.165     1311.642     1985.660      793.254        0.255        0.205       28.383       22.723        0.641      335.889        6.823      852.205
03/25/2014  22:07:00      -23.836      -18.857        7.829       46.231       30.968       25.960     2137.277      958.997      673.917        0.238        0.189       30.393       18.162        0.357      335.899        6.839      852.165
03/25/2014  22:08:00      -55.033       -3.256       -6.303       31.905       32.870       26.832     1017.907     1080.463      719.958        0.295        0.141       55.129       23.235        0.178      335.947        6.919      852.146
03/25/2014  22:09:00     -110.551      -34.948        1.529       72.998       55.678       27.050     5328.678     3100.014      731.684        1.130        0.458      115.944       20.887        0.032      335.882        6.809      852.156
03/25/2014  22:10:00      -71.280      -38.455       11.878       65.785       66.231       41.783     4327.612     4386.555     1745.791        0.858        0.523       80.992       39.060        0.233      335.961        6.943      852.183
03/25/2014  22:11:00     -122.298       34.666        4.804       91.939       68.412       45.065     8452.804     4680.248     2030.865        1.567        0.758      127.116       40.971        0.104      336.000        7.008      852.213
03/25/2014  22:12:00     -185.130      -96.079        1.993      108.972      108.630       50.423    11874.902    11800.397     2542.511        3.486        1.311      208.577       47.766        0.052      336.007        7.018      852.256
03/25/2014  22:13:00     -219.854     -125.554        4.018      124.773       90.117       63.443    15568.243     8121.108     4024.966        4.591        1.386      253.179       54.389        0.046      336.006        7.016      852.299
03/25/2014  22:14:00     -132.501      -87.891        9.273      150.681       82.575       72.882    22704.758     6818.643     5311.742        3.009        1.742      159.001       86.081        0.293      336.069        7.121      852.300
03/25/2014  22:15:00       10.359      -31.782       30.998       71.728       84.840       50.790     5144.867     7197.785     2579.648        0.850        0.746       33.428       50.329        2.267      336.058        7.105      852.241
03/25/2014  22:16:00      -15.356       33.345        4.999       48.648       33.484       34.299     2366.580     1121.168     1176.449        0.302        0.233       36.711       34.908        0.904      336.084        7.148      852.141
03/25/2014  22:17:00     -168.649      -12.630      -13.057       74.735       54.691       30.427     5585.276     2991.118      925.777        1.914        0.475      169.121       21.203        0.016      336.135        7.232      852.072
03/25/2014  22:18:00     -170.498      -69.811       -5.180      119.856       50.371       39.711    14365.512     2537.195     1576.970        2.622        0.924      184.236       42.536        0.053      336.172        7.294      852.096
03/25/2014  22:19:00     -120.324      -87.043       31.014      154.465       80.070       65.644    23859.454     6411.223     4309.158        2.879        1.729      148.507       85.153        0.329      336.138        7.235      852.154
03/25/2014  22:20:00     -239.959     -166.224       -8.468      114.326       79.308       48.075    13070.333     6289.809     2311.232        5.347        1.084      291.909       53.677        0.034      336.057        7.100      852.179
03/25/2014  22:21:00     -121.856     -158.191        0.486      101.752       64.341       41.909    10353.456     4139.705     1756.372        2.806        0.812      199.683       40.921        0.042      336.061        7.108      852.166
03/25/2014  22:22:00     -101.860     -141.500        7.826       84.725       60.266       44.274     7178.301     3631.956     1960.185        2.161        0.639      174.349       36.144        0.043      336.121        7.207      852.133
03/25/2014  22:23:00      -30.628     -157.640       -0.226       35.854       64.043       30.223     1285.505     4101.528      913.400        1.604        0.315      160.588       17.080        0.011      336.134        7.229      852.127
03/25/2014  22:24:00      -46.903      -82.359       -1.246       36.343       60.524       25.883     1320.801     3663.111      669.929        0.732        0.283       94.778       16.959        0.032      336.193        7.328      852.097
03/25/2014  22:25:00      -14.349      -17.645       42.348       98.723       76.667       49.925     9746.180     5877.881     2492.550        1.021        0.906       22.743       63.923        7.900      336.124        7.214      852.043
03/25/2014  22:26:00      -99.292      -72.340       -9.598       58.529       73.225       35.667     3425.630     5361.834     1272.100        1.262        0.503      122.850       42.619        0.120      336.157        7.269      851.986
03/25/2014  22:27:00     -137.898     -117.673       -3.076       75.955       70.485       34.254     5769.180     4968.099     1173.356        2.239        0.596      181.281       38.560        0.045      336.167        7.285      851.998
03/25/2014  22:28:00     -103.213      -80.224        8.546       90.397       75.537       48.690     8171.530     5705.833     2370.707        1.670        0.812      130.724       61.377        0.220      336.147        7.251      852.065
03/25/2014  22:29:00       28.947      -20.750       28.455       34.173       31.053       26.402     1167.769      964.305      697.081        0.245        0.141       35.615       14.954        0.176      336.154        7.264      852.078
03/25/2014  22:30:00      -52.571      -14.949       -2.995       41.287       37.044       16.622     1704.622     1372.227      276.301        0.317        0.168       54.655       14.212        0.068      336.083        7.146      852.051
03/25/2014  22:31:00      -79.040      -42.040        6.972       58.305       42.539       25.824     3399.488     1809.568      666.879        0.697        0.294       89.525       32.873        0.135      336.073        7.129      852.062
03/25/2014  22:32:00     -149.464      -39.253      -14.627       57.511       29.299       26.380     3307.502      858.454      695.931        1.448        0.243      154.532       19.764        0.016      336.073        7.129      852.060
03/25/2014  22:33:00      -49.302       13.034       19.295       73.095       40.842       31.145     5342.950     1668.071      969.997        0.548        0.399       50.996       35.167        0.476      336.065        7.117      852.041
03/25/2014  22:34:00     -152.891       14.048       -7.292       47.130       29.560       24.461     2221.284      873.792      598.326        1.366        0.185      153.535       19.240        0.016      336.008        7.020      852.007
03/25/2014  22:35:00     -114.965      -43.561        1.900       62.712       37.652       26.965     3932.770     1417.670      727.092        1.060        0.304      122.941       27.491        0.050      336.031        7.059      851.995
03/25/2014  22:36:00     -129.789      -63.846       -1.208       85.173       51.556       32.802     7254.456     2657.982     1075.943        1.595        0.549      144.642       42.983        0.088      336.057        7.103      852.018
03/25/2014  22:37:00     -174.421      -64.944       -4.981       83.167       82.354       40.153     6916.683     6782.212     1612.269        2.499        0.766      186.119       40.177        0.047      336.067        7.118      852.051
03/25/2014  22:38:00     -119.591      -36.228       -8.954       60.992       69.650       31.532     3719.989     4851.139      994.255        1.263        0.478      124.958       29.962        0.057      336.008        7.021      852.062
03/25/2014  22:39:00     -198.612      -24.628       -9.686       70.555       76.499       34.184     4978.058     5852.113     1168.520        2.607        0.600      200.133       37.507        0.035      336.027        7.050      852.056
03/25/2014  22:40:00     -198.780      -81.405       -5.362      101.262       72.881       48.243    10253.945     5311.661     2327.380        3.203        0.895      214.803       52.293        0.059      336.046        7.082      852.069
03/25/2014  22:41:00     -245.944     -127.880      -23.766       86.470       90.941       47.866     7477.068     8270.227     2291.119        4.772        0.902      277.203       37.584        0.018      336.099        7.170      852.083
03/25/2014  22:42:00     -151.706     -124.575       -0.622      101.278       97.923       52.178    10257.228     9588.962     2722.557        3.055        1.128      196.300       55.226        0.079      336.144        7.247      852.085
03/25/2014  22:43:00     -100.257       27.339       16.660      129.645      140.807       63.696    16807.883    19826.511     4057.125        2.588        2.035      103.918       77.769        0.560      336.126        7.217      852.069
03/25/2014  22:44:00     -128.841     -104.680        0.010       93.189       68.953       47.830     8684.183     4754.551     2287.725        2.164        0.786      166.006       46.651        0.079      336.144        7.246      852.069
03/25/2014  22:45:00     -191.612     -122.332        3.285      198.400      117.976       86.216    39362.540    13918.329     7433.256        5.619        3.036      227.333      102.418        0.203      336.135        7.231      852.069
03/25/2014  22:46:00     -332.594        3.315      -16.987      136.590      107.582       61.328    18656.698    11573.901     3761.094        7.245        1.700      332.611       53.353        0.026      336.117        7.201      852.052
03/25/2014  22:47:00     -256.469     -102.910       -0.956      133.035       97.607       55.770    17698.374     9527.182     3110.319        5.335        1.517      276.345       61.355        0.049      336.114        7.196      852.026
03/25/2014  22:48:00     -385.144     -150.341       -0.575      152.571      108.229       68.650    23277.827    11713.474     4712.882       10.531        1.985      413.447       73.094        0.031      336.064        7.111      851.992
03/25/2014  22:49:00     -213.259     -101.778        1.806      135.790      103.383       48.275    18438.860    10688.106     2330.437        4.364        1.573      236.301       48.378        0.042      336.098        7.169      851.973
03/25/2014  22:50:00     -224.462      -88.866      -16.874      122.519       84.656       38.684    15010.863     7166.715     1496.425        4.111        1.184      241.413       41.169        0.029      336.083        7.144      851.963
03/25/2014  22:51:00     -130.968        8.588        8.046       98.646       73.052       44.626     9731.076     5336.576     1991.438        1.717        0.853      131.249       42.227        0.104      336.097        7.168      851.956
03/25/2014  22:52:00     -193.609       -4.008       10.845      141.729       87.411       54.954    20087.203     7640.708     3019.950        3.418        1.537      193.650       68.890        0.127      336.119        7.204      851.954
03/25/2014  22:53:00     -222.557     -133.311       -4.789      151.310      135.324       72.414    22894.750    18312.603     5243.815        5.688        2.323      259.429       79.843        0.095      336.099        7.171      851.931
03/25/2014  22:54:00     -196.632      -48.067       -7.098      108.930       84.541       52.325    11865.798     7147.185     2737.936        3.138        1.088      202.421       53.043        0.069      336.083        7.144      851.901
03/25/2014  22:55:00     -298.897      -61.866       -5.756      157.062       81.052       63.994    24668.356     6569.364     4095.235        6.426        1.767      305.233       70.617        0.054      336.068        7.118      851.872
03/25/2014  22:56:00     -389.286      -71.968       -8.415      129.527       90.503       61.764    16777.149     8190.837     3814.827        9.278        1.439      395.883       63.762        0.026      336.053        7.095      851.837
03/25/2014  22:57:00     -457.580     -125.799        2.620      219.110      132.155       77.665    48009.382    17464.825     6031.798       14.834        3.575      474.557       82.874        0.030      336.066        7.116      851.840
03/25/2014  22:58:00     -439.613      -56.802       -3.605      217.809      110.218       79.621    47440.745    12148.093     6339.481       13.120        3.296      443.268       99.690        0.051      336.054        7.097      851.839
03/25/2014  22:59:00     -442.440     -113.072      -18.720      177.049      140.131       77.018    31346.379    19636.749     5931.753       13.289        2.846      456.660       74.997        0.027      336.056        7.099      851.841
03/25/2014  23:00:00     -220.971      -37.344        2.918      140.644      106.474       68.429    19780.766    11336.806     4682.530        4.301        1.790      224.104       76.119        0.115      336.055        7.097      851.836
03/25/2014  23:01:00     -227.511      -60.789      -10.352      113.824      101.156       56.357    12955.991    10232.507     3176.073        4.096        1.318      235.492       46.754        0.039      336.031        7.057      851.826
03/25/2014  23:02:00     -408.429     -109.144      -19.431      104.940       86.186       54.372    11012.506     7428.056     2956.341       10.025        1.070      422.761       52.405        0.015      336.003        7.010      851.819
03/25/2014  23:03:00     -239.438     -103.495        3.517      139.572      127.280       57.197    19480.364    16200.199     3271.539        5.350        1.948      260.848       64.444        0.061      336.047        7.084      851.805
03/25/2014  23:04:00     -274.816      -53.839       -2.500      162.957      122.158       61.708    26555.095    14922.575     3807.886        6.185        2.264      280.040       75.813        0.073      336.050        7.089      851.818
03/25/2014  23:05:00     -105.704      -73.948       12.616      100.337       68.270       46.404    10067.584     4660.754     2153.342        1.684        0.844      129.002       48.132        0.139      336.060        7.106      851.853
03/25/2014  23:06:00     -156.312     -157.246       12.512      101.017       89.252       56.090    10204.525     7965.845     3146.095        3.531        1.066      221.720       48.955        0.049      336.107        7.182      851.895
03/25/2014  23:07:00     -154.774     -252.548       21.862      160.930      129.275       75.136    25898.552    16712.131     5645.425        6.823        2.413      296.202       85.350        0.083      336.133        7.227      851.946
03/25/2014  23:08:00     -270.814     -173.110       -7.962      143.158       99.106       58.366    20494.223     9822.064     3406.557        6.854        1.686      321.415       53.052        0.027      336.104        7.178      851.981
03/25/2014  23:09:00     -110.857      -80.464       26.773      119.089       78.460       55.472    14182.186     6155.981     3077.092        2.144        1.171      136.980       61.944        0.204      336.158        7.271      852.005
03/25/2014  23:10:00     -264.909      -94.816        4.682      138.093       96.976       58.777    19069.733     9404.287     3454.738        5.555        1.596      281.366       66.467        0.056      336.087        7.150      852.012
03/25/2014  23:11:00      -87.454      -61.079       27.534       95.792      105.259       51.750     9176.098    11079.430     2678.073        1.753        1.147      106.672       51.813        0.236      336.132        7.227      851.999
03/25/2014  23:12:00     -162.717     -126.029        1.798      133.681       81.953       59.101    17870.517     6716.295     3492.948        3.522        1.404      205.816       68.469        0.111      336.111        7.191      851.978
03/25/2014  23:13:00     -167.032      -84.040        0.312       83.964       96.789       43.810     7050.017     9368.141     1919.282        2.665        0.917      186.982       31.944        0.029      336.116        7.199      851.964
03/25/2014  23:14:00     -181.063      -47.766       10.105      128.863       75.478       40.123    16605.620     5696.903     1609.817        2.954        1.196      187.257       43.451        0.054      336.143        7.244      851.958
03/25/2014  23:15:00     -276.745     -128.591       -0.277      135.256      146.897       69.603    18294.055    21578.729     4844.561        6.891        2.236      305.162       73.279        0.058      336.072        7.124      851.943
03/25/2014  23:16:00     -303.034     -136.835       -1.894      124.195       85.681       57.527    15424.327     7341.198     3309.384        6.831        1.304      332.496       63.957        0.037      336.058        7.102      851.927
03/25/2014  23:17:00     -116.710      -53.974        6.109      125.233       70.751       43.549    15683.302     5005.673     1896.494        1.957        1.129      128.586       46.848        0.133      336.167        7.286      851.928
03/25/2014  23:18:00     -247.475     -117.553        4.256      170.444      152.067       80.547    29051.004    23124.312     6487.896        6.686        2.933      273.975       98.173        0.128      336.127        7.216      851.941
03/25/2014  23:19:00     -259.709      -65.793      -15.393      152.973      178.291       70.895    23400.721    31787.711     5026.080        6.610        3.011      267.913       56.031        0.044      336.136        7.231      851.933
03/25/2014  23:20:00     -232.659     -188.495      -16.495      149.161      132.360       72.579    22248.998    17519.112     5267.749        6.748        2.252      299.434       77.417        0.067      336.134        7.229      851.914
03/25/2014  23:21:00     -348.162     -187.433      -12.664      117.396       71.294       56.478    13781.799     5082.888     3189.716        8.928        1.103      395.409       58.033        0.022      336.123        7.210      851.899
03/25/2014  23:22:00     -183.141     -122.219       11.729      116.761       91.090       58.029    13633.181     8297.403     3367.335        3.695        1.265      220.178       65.997        0.090      336.136        7.233      851.883
03/25/2014  23:23:00     -329.683      -97.559        0.794      125.230      102.640       58.962    15682.625    10535.057     3476.548        7.395        1.485      343.815       54.572        0.025      336.059        7.103      851.885
03/25/2014  23:24:00     -164.671     -114.466       20.456      165.544      116.804       74.722    27404.755    13643.253     5583.330        4.363        2.332      200.547       88.527        0.195      336.040        7.073      851.863
03/25/2014  23:25:00     -354.204     -211.760      -12.898      170.838       97.691       76.887    29185.523     9543.493     5911.541       10.755        2.232      412.678       79.194        0.037      335.925        6.881      851.854
03/25/2014  23:26:00     -348.646      -47.927       -3.224      155.815      127.460       72.584    24278.296    16245.959     5268.381        8.482        2.290      351.925       75.548        0.046      335.845        6.747      851.890
03/25/2014  23:27:00     -541.928     -262.760      -23.867      251.822      221.430      121.602    63414.141    49031.065    14787.005       24.524        6.362      602.269      128.140        0.045      335.837        6.732      851.904
03/25/2014  23:28:00     -244.102     -246.154      -12.673      166.118      123.315       78.304    27595.305    15206.496     6131.508        8.463        2.447      346.666       80.459        0.054      335.848        6.752      851.925
03/25/2014  23:29:00     -292.143     -155.185        4.796      134.493      112.955       74.573    18088.246    12758.899     5561.080        7.292        1.820      330.802       70.613        0.046      335.751        6.591      851.892
03/25/2014  23:30:00     -206.533     -170.836       -1.228      142.175      125.534       83.639    20213.727    15758.892     6995.458        5.740        2.148      268.031       74.675        0.078      335.747        6.583      851.899
03/25/2014  23:31:00     -173.815     -107.470       -0.209      113.535      100.893       57.149    12890.111    10179.480     3266.003        3.404        1.317      204.356       55.443        0.074      335.674        6.462      851.935
03/25/2014  23:32:00     -233.002     -198.178       -9.090      135.225      132.197       67.815    18285.793    17476.131     4598.832        6.700        2.018      305.883       69.431        0.052      335.665        6.447      851.909
03/25/2014  23:33:00     -327.805     -111.371       -2.656      151.986      137.692       65.564    23099.706    18958.968     4298.618        8.310        2.318      346.208       62.770        0.033      335.656        6.433      851.914
03/25/2014  23:34:00     -178.285     -147.490        9.527      106.490      103.952       59.147    11340.042    10805.957     3498.335        3.963        1.282      231.385       53.702        0.054      335.634        6.396      851.905
03/25/2014  23:35:00     -247.783     -125.611        8.192      142.361      103.228       61.017    20266.620    10655.922     3723.101        5.594        1.732      277.803       56.825        0.042      335.566        6.282      851.866
03/25/2014  23:36:00     -245.405     -175.082        3.789      187.640      123.322       71.205    35208.951    15208.268     5070.151        7.318        2.774      301.459       88.914        0.087      335.519        6.204      851.829
03/25/2014  23:37:00     -324.927     -240.833      -10.965      172.844      103.184       65.934    29874.917    10647.028     4347.286       10.427        2.243      404.448       63.184        0.024      335.438        6.068      851.857
03/25/2014  23:38:00     -463.331     -333.217        6.261      184.206      126.800       92.194    33931.854    16078.188     8499.686       19.212        2.925      570.709       91.121        0.025      335.390        5.987      851.858
03/25/2014  23:39:00     -353.169     -215.347       -6.770      205.795      119.285       87.107    42351.451    14228.968     7587.697       11.765        3.208      413.646       73.472        0.032      335.406        6.015      851.887
03/25/2014  23:40:00     -289.062     -260.625       -3.552      223.835      139.903       93.542    50102.225    19572.756     8750.140       11.494        3.921      389.207      104.344        0.072      335.556        6.267      851.889
03/25/2014  23:41:00     -116.226     -319.750       -6.401      161.191      167.738       76.855    25982.676    28135.944     5906.752        8.790        3.001      340.218       66.561        0.038      335.647        6.417      851.868
03/25/2014  23:42:00      -18.064     -137.495       -2.354       93.173       96.611       66.123     8681.210     9333.631     4372.216        2.081        1.119      138.676       48.679        0.123      335.776        6.634      851.759
03/25/2014  23:43:00      -91.611      -98.693        9.102       76.206       97.025       44.688     5807.423     9413.922     1997.027        1.771        0.861      134.658       42.390        0.099      335.775        6.631      851.696
03/25/2014  23:44:00     -196.920      -52.638       14.212      143.847       93.007       52.136    20691.878     8650.278     2718.189        3.690        1.603      203.834       63.163        0.096      335.665        6.449      851.712
03/25/2014  23:45:00     -231.008      -84.613      -14.063      142.096      100.039       51.174    20191.333    10007.886     2618.806        4.676        1.641      246.017       51.669        0.044      335.703        6.512      851.653
03/25/2014  23:46:00     -274.471      -87.376       -3.444      162.952      137.735       82.899    26553.293    18970.858     6872.281        6.768        2.620      288.043       90.564        0.099      335.667        6.450      851.594
03/25/2014  23:47:00     -282.055     -121.228        0.714      204.133      126.917       91.263    41670.120    16107.942     8329.004        8.017        3.305      307.003      100.023        0.106      335.735        6.564      851.567
03/25/2014  23:48:00     -395.198     -178.069       -8.020      207.073      196.033      100.917    42879.363    38428.905    10184.255       13.971        4.575      433.463      109.129        0.063      335.845        6.747      851.548
03/25/2014  23:49:00     -488.054      -72.687      -27.012      204.505      168.693       91.496    41822.321    28457.220     8371.479       16.141        3.933      493.437       84.305        0.029      335.823        6.711      851.496
03/25/2014  23:50:00     -286.581     -105.395       -0.361      194.840      152.763       78.105    37962.459    23336.419     6100.458        8.030        3.370      305.347       94.967        0.097      335.807        6.683      851.480
03/25/2014  23:51:00     -397.287      -96.448       -4.009      182.816      155.583       81.427    33421.642    24206.162     6630.421       11.569        3.213      408.826       93.326        0.052      335.765        6.614      851.469
03/25/2014  23:52:00     -433.909      -49.967      -37.431      290.048      180.249      104.268    84127.683    32489.691    10871.860       15.981        6.374      436.777      122.787        0.079      335.814        6.695      851.422
03/25/2014  23:53:00     -264.732      -22.793        7.169      234.137      136.110       87.844    54820.223    18525.963     7716.576        7.584        4.053      265.712      109.087        0.169      335.780        6.639      851.384
03/25/2014  23:54:00     -528.888      -30.507      -30.744      230.149      185.984       95.369    52968.412    34590.014     9095.314       18.911        4.833      529.767      100.596        0.036      335.749        6.585      851.357
03/25/2014  23:55:00     -582.188      -92.878      -31.074      213.182      184.189      102.083    45446.496    33925.624    10420.983       21.915        4.490      589.550      116.316        0.039      335.771        6.625      851.344
03/25/2014  23:56:00     -221.244     -120.669       -1.735      200.512      145.828       94.962    40205.013    21265.875     9017.871        6.699        3.524      252.012       88.679        0.124      335.801        6.674      851.346
03/25/2014  23:57:00     -265.596      -57.346      -12.685      166.913      197.371       86.348    27859.810    38955.469     7456.029        7.412        3.714      271.717       88.915        0.107      335.763        6.610      851.317
03/25/2014  23:58:00     -541.328     -150.192      -19.415      212.064      153.177       84.160    44971.013    23463.133     7082.926       19.573        3.776      561.778       91.561        0.027      335.726        6.548      851.294
03/25/2014  23:59:00     -537.571     -216.573      -13.744      240.110      175.689       93.270    57652.955    30866.490     8699.335       21.663        4.861      579.557      113.646        0.038      335.714        6.528      851.257
